<?xml version="1.0" encoding="UTF-8" standalone="no" ?>
<gpx xmlns="http://www.topografix.com/GPX/1/1" xmlns:xsi="http://www.w3.org/2001/XMLSchema-instance" xsi:schemaLocation="http://www.topografix.com/GPX/1/1 http://www.topografix.com/GPX/1/1/gpx.xsd" version="1.1" creator="VisuGPX - https://www.visugpx.com">
  <metadata>
    <name>la printanière</name>
    <desc><![CDATA[Montreuil juigné feneu]]></desc>
  </metadata>
  <trk>
    <name><![CDATA[02-JUIL-14 20:29:00]]></name>
    <trkseg>
      <trkpt lat="47.56999" lon="-0.50265">
        <ele>40.51</ele>
        <time>2014-06-29T09:24:12Z</time>
      </trkpt>
      <trkpt lat="47.56999" lon="-0.50265">
        <ele>36.67</ele>
        <time>2014-06-29T09:24:14Z</time>
      </trkpt>
      <trkpt lat="47.56999" lon="-0.50265">
        <ele>38.59</ele>
        <time>2014-06-29T09:24:15Z</time>
      </trkpt>
      <trkpt lat="47.57" lon="-0.5026">
        <ele>34.74</ele>
        <time>2014-06-29T09:24:19Z</time>
      </trkpt>
      <trkpt lat="47.57001" lon="-0.50257">
        <ele>39.55</ele>
        <time>2014-06-29T09:24:21Z</time>
      </trkpt>
      <trkpt lat="47.57002" lon="-0.50256">
        <ele>36.67</ele>
        <time>2014-06-29T09:24:22Z</time>
      </trkpt>
      <trkpt lat="47.57003" lon="-0.50254">
        <ele>32.82</ele>
        <time>2014-06-29T09:24:23Z</time>
      </trkpt>
      <trkpt lat="47.56984" lon="-0.50233">
        <ele>28.02</ele>
        <time>2014-06-29T14:37:52Z</time>
      </trkpt>
      <trkpt lat="47.56984" lon="-0.50232">
        <ele>28.5</ele>
        <time>2014-06-29T14:37:53Z</time>
      </trkpt>
      <trkpt lat="47.56995" lon="-0.50236">
        <ele>28.02</ele>
        <time>2014-06-29T14:38:12Z</time>
      </trkpt>
      <trkpt lat="47.56997" lon="-0.50239">
        <ele>28.5</ele>
        <time>2014-06-29T14:38:28Z</time>
      </trkpt>
      <trkpt lat="47.56996" lon="-0.5024">
        <ele>28.02</ele>
        <time>2014-06-29T14:38:46Z</time>
      </trkpt>
      <trkpt lat="47.56998" lon="-0.50238">
        <ele>28.02</ele>
        <time>2014-06-29T14:39:03Z</time>
      </trkpt>
      <trkpt lat="47.57003" lon="-0.50235">
        <ele>28.02</ele>
        <time>2014-06-29T14:39:22Z</time>
      </trkpt>
      <trkpt lat="47.57002" lon="-0.50238">
        <ele>28.98</ele>
        <time>2014-06-29T14:39:38Z</time>
      </trkpt>
      <trkpt lat="47.57002" lon="-0.50238">
        <ele>25.61</ele>
        <time>2014-06-29T14:39:45Z</time>
      </trkpt>
      <trkpt lat="47.57002" lon="-0.50238">
        <ele>28.98</ele>
        <time>2014-06-29T14:39:46Z</time>
      </trkpt>
      <trkpt lat="47.57002" lon="-0.50238">
        <ele>29.46</ele>
        <time>2014-06-29T14:40:01Z</time>
      </trkpt>
      <trkpt lat="47.57001" lon="-0.50237">
        <ele>28.5</ele>
        <time>2014-06-29T14:40:17Z</time>
      </trkpt>
      <trkpt lat="47.57001" lon="-0.50237">
        <ele>28.98</ele>
        <time>2014-06-29T14:40:32Z</time>
      </trkpt>
      <trkpt lat="47.56999" lon="-0.5024">
        <ele>28.98</ele>
        <time>2014-06-29T14:40:45Z</time>
      </trkpt>
      <trkpt lat="47.57001" lon="-0.5024">
        <ele>28.98</ele>
        <time>2014-06-29T14:40:56Z</time>
      </trkpt>
      <trkpt lat="47.56999" lon="-0.50237">
        <ele>28.98</ele>
        <time>2014-06-29T14:41:07Z</time>
      </trkpt>
      <trkpt lat="47.56996" lon="-0.50236">
        <ele>28.98</ele>
        <time>2014-06-29T14:41:10Z</time>
      </trkpt>
      <trkpt lat="47.56984" lon="-0.50227">
        <ele>28.98</ele>
        <time>2014-06-29T14:41:24Z</time>
      </trkpt>
      <trkpt lat="47.56985" lon="-0.50227">
        <ele>28.98</ele>
        <time>2014-06-29T14:41:35Z</time>
      </trkpt>
      <trkpt lat="47.56993" lon="-0.5025">
        <ele>28.98</ele>
        <time>2014-06-29T14:41:49Z</time>
      </trkpt>
      <trkpt lat="47.56993" lon="-0.50247">
        <ele>30.42</ele>
        <time>2014-06-29T14:42:02Z</time>
      </trkpt>
      <trkpt lat="47.56991" lon="-0.50251">
        <ele>29.46</ele>
        <time>2014-06-29T14:42:08Z</time>
      </trkpt>
      <trkpt lat="47.5699" lon="-0.50259">
        <ele>29.46</ele>
        <time>2014-06-29T14:42:13Z</time>
      </trkpt>
      <trkpt lat="47.5699" lon="-0.50267">
        <ele>29.94</ele>
        <time>2014-06-29T14:42:17Z</time>
      </trkpt>
      <trkpt lat="47.56991" lon="-0.50287">
        <ele>22.73</ele>
        <time>2014-06-29T14:42:26Z</time>
      </trkpt>
      <trkpt lat="47.5387" lon="-0.6198">
        <ele>-8.51</ele>
        <time>2014-07-02T15:52:59Z</time>
      </trkpt>
      <trkpt lat="47.53869" lon="-0.6198">
        <ele>-8.51</ele>
        <time>2014-07-02T15:53:00Z</time>
      </trkpt>
      <trkpt lat="47.53864" lon="-0.61977">
        <ele>-8.51</ele>
        <time>2014-07-02T15:53:10Z</time>
      </trkpt>
      <trkpt lat="47.53869" lon="-0.6197">
        <ele>-9</ele>
        <time>2014-07-02T15:53:24Z</time>
      </trkpt>
      <trkpt lat="47.53864" lon="-0.61962">
        <ele>-11.88</ele>
        <time>2014-07-02T15:53:34Z</time>
      </trkpt>
      <trkpt lat="47.53864" lon="-0.61961">
        <ele>-8.03</ele>
        <time>2014-07-02T15:53:35Z</time>
      </trkpt>
      <trkpt lat="47.53863" lon="-0.61961">
        <ele>-7.07</ele>
        <time>2014-07-02T15:53:37Z</time>
      </trkpt>
      <trkpt lat="47.53863" lon="-0.61961">
        <ele>-13.32</ele>
        <time>2014-07-02T15:53:38Z</time>
      </trkpt>
      <trkpt lat="47.53863" lon="-0.61961">
        <ele>-8.51</ele>
        <time>2014-07-02T15:53:39Z</time>
      </trkpt>
      <trkpt lat="47.53863" lon="-0.61962">
        <ele>-2.75</ele>
        <time>2014-07-02T15:53:43Z</time>
      </trkpt>
      <trkpt lat="47.53863" lon="-0.61963">
        <ele>1.1</ele>
        <time>2014-07-02T15:53:45Z</time>
      </trkpt>
      <trkpt lat="47.53863" lon="-0.61963">
        <ele>0.14</ele>
        <time>2014-07-02T15:53:46Z</time>
      </trkpt>
      <trkpt lat="47.53863" lon="-0.61963">
        <ele>5.91</ele>
        <time>2014-07-02T15:53:48Z</time>
      </trkpt>
      <trkpt lat="47.53863" lon="-0.61963">
        <ele>9.75</ele>
        <time>2014-07-02T15:53:50Z</time>
      </trkpt>
      <trkpt lat="47.53866" lon="-0.61968">
        <ele>9.75</ele>
        <time>2014-07-02T15:53:51Z</time>
      </trkpt>
      <trkpt lat="47.53868" lon="-0.61971">
        <ele>13.12</ele>
        <time>2014-07-02T15:53:52Z</time>
      </trkpt>
      <trkpt lat="47.53869" lon="-0.61972">
        <ele>12.15</ele>
        <time>2014-07-02T15:53:53Z</time>
      </trkpt>
      <trkpt lat="47.53869" lon="-0.61974">
        <ele>17.44</ele>
        <time>2014-07-02T15:53:55Z</time>
      </trkpt>
      <trkpt lat="47.53869" lon="-0.61975">
        <ele>18.4</ele>
        <time>2014-07-02T15:53:56Z</time>
      </trkpt>
      <trkpt lat="47.53868" lon="-0.61986">
        <ele>21.77</ele>
        <time>2014-07-02T15:54:00Z</time>
      </trkpt>
      <trkpt lat="47.53863" lon="-0.61994">
        <ele>24.65</ele>
        <time>2014-07-02T15:54:03Z</time>
      </trkpt>
      <trkpt lat="47.53848" lon="-0.61986">
        <ele>29.46</ele>
        <time>2014-07-02T15:54:09Z</time>
      </trkpt>
      <trkpt lat="47.53843" lon="-0.61981">
        <ele>30.42</ele>
        <time>2014-07-02T15:54:11Z</time>
      </trkpt>
      <trkpt lat="47.53835" lon="-0.61961">
        <ele>32.82</ele>
        <time>2014-07-02T15:54:17Z</time>
      </trkpt>
      <trkpt lat="47.53849" lon="-0.61922">
        <ele>33.3</ele>
        <time>2014-07-02T15:54:24Z</time>
      </trkpt>
      <trkpt lat="47.53858" lon="-0.61902">
        <ele>34.26</ele>
        <time>2014-07-02T15:54:27Z</time>
      </trkpt>
      <trkpt lat="47.53872" lon="-0.61853">
        <ele>34.74</ele>
        <time>2014-07-02T15:54:33Z</time>
      </trkpt>
      <trkpt lat="47.53897" lon="-0.61824">
        <ele>35.23</ele>
        <time>2014-07-02T15:54:39Z</time>
      </trkpt>
      <trkpt lat="47.53909" lon="-0.6182">
        <ele>36.67</ele>
        <time>2014-07-02T15:54:42Z</time>
      </trkpt>
      <trkpt lat="47.53934" lon="-0.6181">
        <ele>37.63</ele>
        <time>2014-07-02T15:54:49Z</time>
      </trkpt>
      <trkpt lat="47.53934" lon="-0.61788">
        <ele>37.63</ele>
        <time>2014-07-02T15:54:53Z</time>
      </trkpt>
      <trkpt lat="47.53926" lon="-0.61753">
        <ele>35.71</ele>
        <time>2014-07-02T15:54:58Z</time>
      </trkpt>
      <trkpt lat="47.53904" lon="-0.61733">
        <ele>33.3</ele>
        <time>2014-07-02T15:55:02Z</time>
      </trkpt>
      <trkpt lat="47.53888" lon="-0.61737">
        <ele>32.34</ele>
        <time>2014-07-02T15:55:04Z</time>
      </trkpt>
      <trkpt lat="47.53845" lon="-0.61752">
        <ele>30.42</ele>
        <time>2014-07-02T15:55:10Z</time>
      </trkpt>
      <trkpt lat="47.53817" lon="-0.61742">
        <ele>28.98</ele>
        <time>2014-07-02T15:55:14Z</time>
      </trkpt>
      <trkpt lat="47.53802" lon="-0.61716">
        <ele>27.05</ele>
        <time>2014-07-02T15:55:17Z</time>
      </trkpt>
      <trkpt lat="47.53793" lon="-0.61679">
        <ele>23.21</ele>
        <time>2014-07-02T15:55:21Z</time>
      </trkpt>
      <trkpt lat="47.5379" lon="-0.61669">
        <ele>22.25</ele>
        <time>2014-07-02T15:55:23Z</time>
      </trkpt>
      <trkpt lat="47.53804" lon="-0.61657">
        <ele>22.25</ele>
        <time>2014-07-02T15:55:27Z</time>
      </trkpt>
      <trkpt lat="47.53853" lon="-0.61641">
        <ele>21.77</ele>
        <time>2014-07-02T15:55:35Z</time>
      </trkpt>
      <trkpt lat="47.53906" lon="-0.61619">
        <ele>21.77</ele>
        <time>2014-07-02T15:55:43Z</time>
      </trkpt>
      <trkpt lat="47.53928" lon="-0.61611">
        <ele>20.81</ele>
        <time>2014-07-02T15:55:47Z</time>
      </trkpt>
      <trkpt lat="47.5394" lon="-0.61603">
        <ele>20.32</ele>
        <time>2014-07-02T15:55:51Z</time>
      </trkpt>
      <trkpt lat="47.53941" lon="-0.61596">
        <ele>21.29</ele>
        <time>2014-07-02T15:55:57Z</time>
      </trkpt>
      <trkpt lat="47.53941" lon="-0.61596">
        <ele>20.81</ele>
        <time>2014-07-02T15:56:08Z</time>
      </trkpt>
      <trkpt lat="47.53941" lon="-0.61596">
        <ele>20.32</ele>
        <time>2014-07-02T15:56:21Z</time>
      </trkpt>
      <trkpt lat="47.53941" lon="-0.61596">
        <ele>20.81</ele>
        <time>2014-07-02T15:56:30Z</time>
      </trkpt>
      <trkpt lat="47.53941" lon="-0.61596">
        <ele>21.29</ele>
        <time>2014-07-02T15:56:37Z</time>
      </trkpt>
      <trkpt lat="47.53941" lon="-0.61596">
        <ele>21.29</ele>
        <time>2014-07-02T15:56:59Z</time>
      </trkpt>
      <trkpt lat="47.53941" lon="-0.61596">
        <ele>21.29</ele>
        <time>2014-07-02T15:57:16Z</time>
      </trkpt>
      <trkpt lat="47.53941" lon="-0.61596">
        <ele>21.29</ele>
        <time>2014-07-02T15:57:34Z</time>
      </trkpt>
      <trkpt lat="47.53941" lon="-0.61596">
        <ele>20.81</ele>
        <time>2014-07-02T15:57:51Z</time>
      </trkpt>
      <trkpt lat="47.53941" lon="-0.61596">
        <ele>21.29</ele>
        <time>2014-07-02T15:58:15Z</time>
      </trkpt>
      <trkpt lat="47.53941" lon="-0.61596">
        <ele>21.77</ele>
        <time>2014-07-02T15:58:35Z</time>
      </trkpt>
      <trkpt lat="47.53941" lon="-0.61596">
        <ele>21.77</ele>
        <time>2014-07-02T15:58:48Z</time>
      </trkpt>
      <trkpt lat="47.53941" lon="-0.61596">
        <ele>25.13</ele>
        <time>2014-07-02T15:58:58Z</time>
      </trkpt>
      <trkpt lat="47.53941" lon="-0.61596">
        <ele>21.77</ele>
        <time>2014-07-02T15:58:59Z</time>
      </trkpt>
      <trkpt lat="47.53941" lon="-0.61596">
        <ele>21.29</ele>
        <time>2014-07-02T15:59:14Z</time>
      </trkpt>
      <trkpt lat="47.53941" lon="-0.61596">
        <ele>21.77</ele>
        <time>2014-07-02T15:59:29Z</time>
      </trkpt>
      <trkpt lat="47.53941" lon="-0.61596">
        <ele>21.77</ele>
        <time>2014-07-02T15:59:43Z</time>
      </trkpt>
      <trkpt lat="47.53941" lon="-0.61596">
        <ele>21.77</ele>
        <time>2014-07-02T16:00:04Z</time>
      </trkpt>
      <trkpt lat="47.53941" lon="-0.61596">
        <ele>21.77</ele>
        <time>2014-07-02T16:00:18Z</time>
      </trkpt>
      <trkpt lat="47.53942" lon="-0.61596">
        <ele>22.25</ele>
        <time>2014-07-02T16:00:33Z</time>
      </trkpt>
      <trkpt lat="47.53942" lon="-0.61596">
        <ele>22.25</ele>
        <time>2014-07-02T16:00:51Z</time>
      </trkpt>
      <trkpt lat="47.53941" lon="-0.61595">
        <ele>21.77</ele>
        <time>2014-07-02T16:01:03Z</time>
      </trkpt>
      <trkpt lat="47.53941" lon="-0.61595">
        <ele>22.25</ele>
        <time>2014-07-02T16:01:17Z</time>
      </trkpt>
      <trkpt lat="47.53941" lon="-0.61595">
        <ele>22.25</ele>
        <time>2014-07-02T16:01:34Z</time>
      </trkpt>
      <trkpt lat="47.53941" lon="-0.61595">
        <ele>21.77</ele>
        <time>2014-07-02T16:01:43Z</time>
      </trkpt>
      <trkpt lat="47.53941" lon="-0.61595">
        <ele>22.25</ele>
        <time>2014-07-02T16:01:54Z</time>
      </trkpt>
      <trkpt lat="47.53941" lon="-0.61595">
        <ele>22.25</ele>
        <time>2014-07-02T16:02:16Z</time>
      </trkpt>
      <trkpt lat="47.53941" lon="-0.61595">
        <ele>22.73</ele>
        <time>2014-07-02T16:02:33Z</time>
      </trkpt>
      <trkpt lat="47.53941" lon="-0.61595">
        <ele>22.73</ele>
        <time>2014-07-02T16:02:46Z</time>
      </trkpt>
      <trkpt lat="47.53941" lon="-0.61595">
        <ele>22.25</ele>
        <time>2014-07-02T16:03:02Z</time>
      </trkpt>
      <trkpt lat="47.53941" lon="-0.61595">
        <ele>22.73</ele>
        <time>2014-07-02T16:03:18Z</time>
      </trkpt>
      <trkpt lat="47.53942" lon="-0.61596">
        <ele>22.73</ele>
        <time>2014-07-02T16:03:26Z</time>
      </trkpt>
      <trkpt lat="47.53942" lon="-0.61596">
        <ele>22.73</ele>
        <time>2014-07-02T16:03:34Z</time>
      </trkpt>
      <trkpt lat="47.53942" lon="-0.61596">
        <ele>22.73</ele>
        <time>2014-07-02T16:03:48Z</time>
      </trkpt>
      <trkpt lat="47.53942" lon="-0.61596">
        <ele>22.25</ele>
        <time>2014-07-02T16:04:03Z</time>
      </trkpt>
      <trkpt lat="47.53942" lon="-0.61597">
        <ele>22.73</ele>
        <time>2014-07-02T16:04:05Z</time>
      </trkpt>
      <trkpt lat="47.53952" lon="-0.61593">
        <ele>23.21</ele>
        <time>2014-07-02T16:04:10Z</time>
      </trkpt>
      <trkpt lat="47.53955" lon="-0.6159">
        <ele>23.21</ele>
        <time>2014-07-02T16:04:12Z</time>
      </trkpt>
      <trkpt lat="47.5397" lon="-0.61573">
        <ele>21.77</ele>
        <time>2014-07-02T16:04:20Z</time>
      </trkpt>
      <trkpt lat="47.53972" lon="-0.61569">
        <ele>26.57</ele>
        <time>2014-07-02T16:04:21Z</time>
      </trkpt>
      <trkpt lat="47.53974" lon="-0.61565">
        <ele>23.69</ele>
        <time>2014-07-02T16:04:22Z</time>
      </trkpt>
      <trkpt lat="47.53988" lon="-0.61526">
        <ele>24.17</ele>
        <time>2014-07-02T16:04:31Z</time>
      </trkpt>
      <trkpt lat="47.53995" lon="-0.61475">
        <ele>25.13</ele>
        <time>2014-07-02T16:04:39Z</time>
      </trkpt>
      <trkpt lat="47.53999" lon="-0.61408">
        <ele>26.09</ele>
        <time>2014-07-02T16:04:49Z</time>
      </trkpt>
      <trkpt lat="47.54002" lon="-0.61341">
        <ele>26.09</ele>
        <time>2014-07-02T16:04:58Z</time>
      </trkpt>
      <trkpt lat="47.54007" lon="-0.61259">
        <ele>25.13</ele>
        <time>2014-07-02T16:05:07Z</time>
      </trkpt>
      <trkpt lat="47.54008" lon="-0.61219">
        <ele>24.17</ele>
        <time>2014-07-02T16:05:11Z</time>
      </trkpt>
      <trkpt lat="47.54011" lon="-0.61135">
        <ele>23.69</ele>
        <time>2014-07-02T16:05:19Z</time>
      </trkpt>
      <trkpt lat="47.54014" lon="-0.61087">
        <ele>24.17</ele>
        <time>2014-07-02T16:05:24Z</time>
      </trkpt>
      <trkpt lat="47.5402" lon="-0.61062">
        <ele>24.17</ele>
        <time>2014-07-02T16:05:27Z</time>
      </trkpt>
      <trkpt lat="47.54044" lon="-0.61006">
        <ele>23.69</ele>
        <time>2014-07-02T16:05:35Z</time>
      </trkpt>
      <trkpt lat="47.54064" lon="-0.60977">
        <ele>23.69</ele>
        <time>2014-07-02T16:05:40Z</time>
      </trkpt>
      <trkpt lat="47.54093" lon="-0.60954">
        <ele>23.69</ele>
        <time>2014-07-02T16:05:46Z</time>
      </trkpt>
      <trkpt lat="47.54119" lon="-0.6094">
        <ele>24.17</ele>
        <time>2014-07-02T16:05:51Z</time>
      </trkpt>
      <trkpt lat="47.54129" lon="-0.60923">
        <ele>23.69</ele>
        <time>2014-07-02T16:05:55Z</time>
      </trkpt>
      <trkpt lat="47.54121" lon="-0.60883">
        <ele>23.21</ele>
        <time>2014-07-02T16:06:02Z</time>
      </trkpt>
      <trkpt lat="47.54117" lon="-0.60867">
        <ele>24.17</ele>
        <time>2014-07-02T16:06:04Z</time>
      </trkpt>
      <trkpt lat="47.54122" lon="-0.60839">
        <ele>23.69</ele>
        <time>2014-07-02T16:06:08Z</time>
      </trkpt>
      <trkpt lat="47.54127" lon="-0.60835">
        <ele>23.21</ele>
        <time>2014-07-02T16:06:09Z</time>
      </trkpt>
      <trkpt lat="47.5416" lon="-0.60809">
        <ele>24.17</ele>
        <time>2014-07-02T16:06:16Z</time>
      </trkpt>
      <trkpt lat="47.54183" lon="-0.60777">
        <ele>24.17</ele>
        <time>2014-07-02T16:06:22Z</time>
      </trkpt>
      <trkpt lat="47.54192" lon="-0.60747">
        <ele>24.17</ele>
        <time>2014-07-02T16:06:26Z</time>
      </trkpt>
      <trkpt lat="47.54218" lon="-0.60706">
        <ele>24.65</ele>
        <time>2014-07-02T16:06:33Z</time>
      </trkpt>
      <trkpt lat="47.54263" lon="-0.60655">
        <ele>26.09</ele>
        <time>2014-07-02T16:06:44Z</time>
      </trkpt>
      <trkpt lat="47.54296" lon="-0.60602">
        <ele>26.57</ele>
        <time>2014-07-02T16:06:53Z</time>
      </trkpt>
      <trkpt lat="47.54314" lon="-0.6057">
        <ele>26.57</ele>
        <time>2014-07-02T16:06:58Z</time>
      </trkpt>
      <trkpt lat="47.54331" lon="-0.60539">
        <ele>26.09</ele>
        <time>2014-07-02T16:07:03Z</time>
      </trkpt>
      <trkpt lat="47.54348" lon="-0.60501">
        <ele>26.09</ele>
        <time>2014-07-02T16:07:09Z</time>
      </trkpt>
      <trkpt lat="47.54363" lon="-0.60479">
        <ele>25.61</ele>
        <time>2014-07-02T16:07:13Z</time>
      </trkpt>
      <trkpt lat="47.54398" lon="-0.60441">
        <ele>25.61</ele>
        <time>2014-07-02T16:07:21Z</time>
      </trkpt>
      <trkpt lat="47.54438" lon="-0.604">
        <ele>26.57</ele>
        <time>2014-07-02T16:07:30Z</time>
      </trkpt>
      <trkpt lat="47.54475" lon="-0.60367">
        <ele>26.57</ele>
        <time>2014-07-02T16:07:38Z</time>
      </trkpt>
      <trkpt lat="47.54504" lon="-0.60349">
        <ele>27.53</ele>
        <time>2014-07-02T16:07:44Z</time>
      </trkpt>
      <trkpt lat="47.54542" lon="-0.60332">
        <ele>27.53</ele>
        <time>2014-07-02T16:07:52Z</time>
      </trkpt>
      <trkpt lat="47.54572" lon="-0.60318">
        <ele>27.05</ele>
        <time>2014-07-02T16:07:58Z</time>
      </trkpt>
      <trkpt lat="47.54605" lon="-0.60284">
        <ele>26.09</ele>
        <time>2014-07-02T16:08:05Z</time>
      </trkpt>
      <trkpt lat="47.54614" lon="-0.60274">
        <ele>25.61</ele>
        <time>2014-07-02T16:08:07Z</time>
      </trkpt>
      <trkpt lat="47.54649" lon="-0.60227">
        <ele>26.09</ele>
        <time>2014-07-02T16:08:16Z</time>
      </trkpt>
      <trkpt lat="47.54654" lon="-0.60194">
        <ele>26.09</ele>
        <time>2014-07-02T16:08:21Z</time>
      </trkpt>
      <trkpt lat="47.54652" lon="-0.60187">
        <ele>26.09</ele>
        <time>2014-07-02T16:08:22Z</time>
      </trkpt>
      <trkpt lat="47.54637" lon="-0.60144">
        <ele>28.5</ele>
        <time>2014-07-02T16:08:29Z</time>
      </trkpt>
      <trkpt lat="47.54623" lon="-0.60079">
        <ele>29.46</ele>
        <time>2014-07-02T16:08:39Z</time>
      </trkpt>
      <trkpt lat="47.54617" lon="-0.60051">
        <ele>29.46</ele>
        <time>2014-07-02T16:08:43Z</time>
      </trkpt>
      <trkpt lat="47.54604" lon="-0.60009">
        <ele>28.98</ele>
        <time>2014-07-02T16:08:49Z</time>
      </trkpt>
      <trkpt lat="47.54594" lon="-0.59925">
        <ele>29.46</ele>
        <time>2014-07-02T16:09:00Z</time>
      </trkpt>
      <trkpt lat="47.54599" lon="-0.59867">
        <ele>28.98</ele>
        <time>2014-07-02T16:09:07Z</time>
      </trkpt>
      <trkpt lat="47.54602" lon="-0.59851">
        <ele>28.98</ele>
        <time>2014-07-02T16:09:09Z</time>
      </trkpt>
      <trkpt lat="47.54616" lon="-0.5981">
        <ele>28.5</ele>
        <time>2014-07-02T16:09:15Z</time>
      </trkpt>
      <trkpt lat="47.54636" lon="-0.59765">
        <ele>28.02</ele>
        <time>2014-07-02T16:09:22Z</time>
      </trkpt>
      <trkpt lat="47.54645" lon="-0.5972">
        <ele>28.98</ele>
        <time>2014-07-02T16:09:28Z</time>
      </trkpt>
      <trkpt lat="47.54643" lon="-0.59688">
        <ele>28.02</ele>
        <time>2014-07-02T16:09:32Z</time>
      </trkpt>
      <trkpt lat="47.54636" lon="-0.59656">
        <ele>28.02</ele>
        <time>2014-07-02T16:09:36Z</time>
      </trkpt>
      <trkpt lat="47.54629" lon="-0.59635">
        <ele>28.02</ele>
        <time>2014-07-02T16:09:39Z</time>
      </trkpt>
      <trkpt lat="47.54632" lon="-0.59607">
        <ele>28.02</ele>
        <time>2014-07-02T16:09:43Z</time>
      </trkpt>
      <trkpt lat="47.54677" lon="-0.59563">
        <ele>28.02</ele>
        <time>2014-07-02T16:09:53Z</time>
      </trkpt>
      <trkpt lat="47.54719" lon="-0.5953">
        <ele>28.02</ele>
        <time>2014-07-02T16:10:02Z</time>
      </trkpt>
      <trkpt lat="47.54763" lon="-0.59504">
        <ele>27.53</ele>
        <time>2014-07-02T16:10:11Z</time>
      </trkpt>
      <trkpt lat="47.54783" lon="-0.59492">
        <ele>28.02</ele>
        <time>2014-07-02T16:10:15Z</time>
      </trkpt>
      <trkpt lat="47.54816" lon="-0.59471">
        <ele>28.02</ele>
        <time>2014-07-02T16:10:22Z</time>
      </trkpt>
      <trkpt lat="47.54825" lon="-0.59465">
        <ele>28.5</ele>
        <time>2014-07-02T16:10:24Z</time>
      </trkpt>
      <trkpt lat="47.54859" lon="-0.59446">
        <ele>28.98</ele>
        <time>2014-07-02T16:10:31Z</time>
      </trkpt>
      <trkpt lat="47.54873" lon="-0.59438">
        <ele>28.5</ele>
        <time>2014-07-02T16:10:34Z</time>
      </trkpt>
      <trkpt lat="47.54877" lon="-0.59434">
        <ele>28.5</ele>
        <time>2014-07-02T16:10:35Z</time>
      </trkpt>
      <trkpt lat="47.5488" lon="-0.59428">
        <ele>28.98</ele>
        <time>2014-07-02T16:10:36Z</time>
      </trkpt>
      <trkpt lat="47.54884" lon="-0.59423">
        <ele>28.98</ele>
        <time>2014-07-02T16:10:37Z</time>
      </trkpt>
      <trkpt lat="47.54887" lon="-0.59417">
        <ele>28.98</ele>
        <time>2014-07-02T16:10:38Z</time>
      </trkpt>
      <trkpt lat="47.54891" lon="-0.59413">
        <ele>28.98</ele>
        <time>2014-07-02T16:10:39Z</time>
      </trkpt>
      <trkpt lat="47.54895" lon="-0.5941">
        <ele>28.5</ele>
        <time>2014-07-02T16:10:40Z</time>
      </trkpt>
      <trkpt lat="47.54899" lon="-0.59407">
        <ele>28.5</ele>
        <time>2014-07-02T16:10:41Z</time>
      </trkpt>
      <trkpt lat="47.54917" lon="-0.59396">
        <ele>28.98</ele>
        <time>2014-07-02T16:10:46Z</time>
      </trkpt>
      <trkpt lat="47.54934" lon="-0.59386">
        <ele>28.98</ele>
        <time>2014-07-02T16:10:50Z</time>
      </trkpt>
      <trkpt lat="47.54959" lon="-0.59369">
        <ele>29.46</ele>
        <time>2014-07-02T16:10:56Z</time>
      </trkpt>
      <trkpt lat="47.54981" lon="-0.59357">
        <ele>29.94</ele>
        <time>2014-07-02T16:11:02Z</time>
      </trkpt>
      <trkpt lat="47.55" lon="-0.59342">
        <ele>30.42</ele>
        <time>2014-07-02T16:11:08Z</time>
      </trkpt>
      <trkpt lat="47.55025" lon="-0.59326">
        <ele>30.42</ele>
        <time>2014-07-02T16:11:15Z</time>
      </trkpt>
      <trkpt lat="47.55056" lon="-0.59312">
        <ele>30.9</ele>
        <time>2014-07-02T16:11:22Z</time>
      </trkpt>
      <trkpt lat="47.5506" lon="-0.5931">
        <ele>31.38</ele>
        <time>2014-07-02T16:11:23Z</time>
      </trkpt>
      <trkpt lat="47.55065" lon="-0.59308">
        <ele>30.9</ele>
        <time>2014-07-02T16:11:24Z</time>
      </trkpt>
      <trkpt lat="47.55105" lon="-0.59286">
        <ele>31.86</ele>
        <time>2014-07-02T16:11:33Z</time>
      </trkpt>
      <trkpt lat="47.55139" lon="-0.5927">
        <ele>32.34</ele>
        <time>2014-07-02T16:11:40Z</time>
      </trkpt>
      <trkpt lat="47.55174" lon="-0.5925">
        <ele>32.82</ele>
        <time>2014-07-02T16:11:46Z</time>
      </trkpt>
      <trkpt lat="47.55209" lon="-0.59235">
        <ele>33.3</ele>
        <time>2014-07-02T16:11:53Z</time>
      </trkpt>
      <trkpt lat="47.55254" lon="-0.59216">
        <ele>33.78</ele>
        <time>2014-07-02T16:12:02Z</time>
      </trkpt>
      <trkpt lat="47.55268" lon="-0.59207">
        <ele>33.78</ele>
        <time>2014-07-02T16:12:04Z</time>
      </trkpt>
      <trkpt lat="47.55274" lon="-0.59203">
        <ele>33.78</ele>
        <time>2014-07-02T16:12:05Z</time>
      </trkpt>
      <trkpt lat="47.55307" lon="-0.59187">
        <ele>33.78</ele>
        <time>2014-07-02T16:12:11Z</time>
      </trkpt>
      <trkpt lat="47.55312" lon="-0.59184">
        <ele>33.78</ele>
        <time>2014-07-02T16:12:12Z</time>
      </trkpt>
      <trkpt lat="47.5535" lon="-0.59167">
        <ele>34.26</ele>
        <time>2014-07-02T16:12:20Z</time>
      </trkpt>
      <trkpt lat="47.55391" lon="-0.59149">
        <ele>34.26</ele>
        <time>2014-07-02T16:12:28Z</time>
      </trkpt>
      <trkpt lat="47.5544" lon="-0.59133">
        <ele>34.26</ele>
        <time>2014-07-02T16:12:38Z</time>
      </trkpt>
      <trkpt lat="47.55464" lon="-0.59124">
        <ele>34.26</ele>
        <time>2014-07-02T16:12:43Z</time>
      </trkpt>
      <trkpt lat="47.55469" lon="-0.59122">
        <ele>34.26</ele>
        <time>2014-07-02T16:12:44Z</time>
      </trkpt>
      <trkpt lat="47.55508" lon="-0.59102">
        <ele>34.74</ele>
        <time>2014-07-02T16:12:52Z</time>
      </trkpt>
      <trkpt lat="47.55513" lon="-0.591">
        <ele>34.74</ele>
        <time>2014-07-02T16:12:53Z</time>
      </trkpt>
      <trkpt lat="47.55534" lon="-0.59081">
        <ele>34.74</ele>
        <time>2014-07-02T16:12:58Z</time>
      </trkpt>
      <trkpt lat="47.55538" lon="-0.59077">
        <ele>35.23</ele>
        <time>2014-07-02T16:12:59Z</time>
      </trkpt>
      <trkpt lat="47.55561" lon="-0.59052">
        <ele>34.74</ele>
        <time>2014-07-02T16:13:05Z</time>
      </trkpt>
      <trkpt lat="47.55585" lon="-0.59024">
        <ele>34.74</ele>
        <time>2014-07-02T16:13:12Z</time>
      </trkpt>
      <trkpt lat="47.5559" lon="-0.59019">
        <ele>35.23</ele>
        <time>2014-07-02T16:13:13Z</time>
      </trkpt>
      <trkpt lat="47.55594" lon="-0.59015">
        <ele>34.74</ele>
        <time>2014-07-02T16:13:14Z</time>
      </trkpt>
      <trkpt lat="47.55598" lon="-0.5901">
        <ele>35.23</ele>
        <time>2014-07-02T16:13:15Z</time>
      </trkpt>
      <trkpt lat="47.55606" lon="-0.59003">
        <ele>34.74</ele>
        <time>2014-07-02T16:13:17Z</time>
      </trkpt>
      <trkpt lat="47.55609" lon="-0.58999">
        <ele>35.23</ele>
        <time>2014-07-02T16:13:18Z</time>
      </trkpt>
      <trkpt lat="47.55618" lon="-0.58985">
        <ele>35.23</ele>
        <time>2014-07-02T16:13:22Z</time>
      </trkpt>
      <trkpt lat="47.5562" lon="-0.58984">
        <ele>35.23</ele>
        <time>2014-07-02T16:13:23Z</time>
      </trkpt>
      <trkpt lat="47.5564" lon="-0.5899">
        <ele>36.19</ele>
        <time>2014-07-02T16:13:28Z</time>
      </trkpt>
      <trkpt lat="47.55665" lon="-0.58996">
        <ele>36.67</ele>
        <time>2014-07-02T16:13:34Z</time>
      </trkpt>
      <trkpt lat="47.55689" lon="-0.59003">
        <ele>36.67</ele>
        <time>2014-07-02T16:13:39Z</time>
      </trkpt>
      <trkpt lat="47.55708" lon="-0.59013">
        <ele>37.15</ele>
        <time>2014-07-02T16:13:43Z</time>
      </trkpt>
      <trkpt lat="47.55713" lon="-0.59017">
        <ele>37.15</ele>
        <time>2014-07-02T16:13:44Z</time>
      </trkpt>
      <trkpt lat="47.55718" lon="-0.59019">
        <ele>36.67</ele>
        <time>2014-07-02T16:13:45Z</time>
      </trkpt>
      <trkpt lat="47.55753" lon="-0.59035">
        <ele>37.15</ele>
        <time>2014-07-02T16:13:52Z</time>
      </trkpt>
      <trkpt lat="47.55766" lon="-0.59041">
        <ele>37.63</ele>
        <time>2014-07-02T16:13:55Z</time>
      </trkpt>
      <trkpt lat="47.5581" lon="-0.59056">
        <ele>37.63</ele>
        <time>2014-07-02T16:14:03Z</time>
      </trkpt>
      <trkpt lat="47.5586" lon="-0.5907">
        <ele>39.07</ele>
        <time>2014-07-02T16:14:13Z</time>
      </trkpt>
      <trkpt lat="47.55901" lon="-0.59081">
        <ele>38.59</ele>
        <time>2014-07-02T16:14:21Z</time>
      </trkpt>
      <trkpt lat="47.55939" lon="-0.59093">
        <ele>38.11</ele>
        <time>2014-07-02T16:14:28Z</time>
      </trkpt>
      <trkpt lat="47.55982" lon="-0.59106">
        <ele>38.11</ele>
        <time>2014-07-02T16:14:36Z</time>
      </trkpt>
      <trkpt lat="47.56039" lon="-0.59121">
        <ele>38.11</ele>
        <time>2014-07-02T16:14:45Z</time>
      </trkpt>
      <trkpt lat="47.56077" lon="-0.5912">
        <ele>38.59</ele>
        <time>2014-07-02T16:14:52Z</time>
      </trkpt>
      <trkpt lat="47.56128" lon="-0.59118">
        <ele>38.59</ele>
        <time>2014-07-02T16:15:01Z</time>
      </trkpt>
      <trkpt lat="47.56157" lon="-0.59118">
        <ele>39.55</ele>
        <time>2014-07-02T16:15:07Z</time>
      </trkpt>
      <trkpt lat="47.56194" lon="-0.59116">
        <ele>40.03</ele>
        <time>2014-07-02T16:15:15Z</time>
      </trkpt>
      <trkpt lat="47.56235" lon="-0.59116">
        <ele>40.51</ele>
        <time>2014-07-02T16:15:24Z</time>
      </trkpt>
      <trkpt lat="47.56246" lon="-0.5912">
        <ele>40.51</ele>
        <time>2014-07-02T16:15:27Z</time>
      </trkpt>
      <trkpt lat="47.56248" lon="-0.59122">
        <ele>40.99</ele>
        <time>2014-07-02T16:15:28Z</time>
      </trkpt>
      <trkpt lat="47.5625" lon="-0.59132">
        <ele>40.99</ele>
        <time>2014-07-02T16:15:30Z</time>
      </trkpt>
      <trkpt lat="47.56254" lon="-0.59187">
        <ele>40.51</ele>
        <time>2014-07-02T16:15:38Z</time>
      </trkpt>
      <trkpt lat="47.56256" lon="-0.59218">
        <ele>39.55</ele>
        <time>2014-07-02T16:15:42Z</time>
      </trkpt>
      <trkpt lat="47.56261" lon="-0.59279">
        <ele>38.11</ele>
        <time>2014-07-02T16:15:49Z</time>
      </trkpt>
      <trkpt lat="47.56261" lon="-0.59297">
        <ele>38.11</ele>
        <time>2014-07-02T16:15:51Z</time>
      </trkpt>
      <trkpt lat="47.56245" lon="-0.59368">
        <ele>37.15</ele>
        <time>2014-07-02T16:15:59Z</time>
      </trkpt>
      <trkpt lat="47.56222" lon="-0.59437">
        <ele>36.67</ele>
        <time>2014-07-02T16:16:07Z</time>
      </trkpt>
      <trkpt lat="47.5621" lon="-0.5947">
        <ele>36.19</ele>
        <time>2014-07-02T16:16:11Z</time>
      </trkpt>
      <trkpt lat="47.5619" lon="-0.59541">
        <ele>35.23</ele>
        <time>2014-07-02T16:16:19Z</time>
      </trkpt>
      <trkpt lat="47.56173" lon="-0.59602">
        <ele>35.23</ele>
        <time>2014-07-02T16:16:26Z</time>
      </trkpt>
      <trkpt lat="47.56169" lon="-0.5962">
        <ele>35.23</ele>
        <time>2014-07-02T16:16:28Z</time>
      </trkpt>
      <trkpt lat="47.56163" lon="-0.59646">
        <ele>34.74</ele>
        <time>2014-07-02T16:16:31Z</time>
      </trkpt>
      <trkpt lat="47.56147" lon="-0.59725">
        <ele>35.71</ele>
        <time>2014-07-02T16:16:40Z</time>
      </trkpt>
      <trkpt lat="47.56139" lon="-0.59799">
        <ele>36.19</ele>
        <time>2014-07-02T16:16:49Z</time>
      </trkpt>
      <trkpt lat="47.56139" lon="-0.59815">
        <ele>36.67</ele>
        <time>2014-07-02T16:16:51Z</time>
      </trkpt>
      <trkpt lat="47.56141" lon="-0.59857">
        <ele>36.19</ele>
        <time>2014-07-02T16:16:58Z</time>
      </trkpt>
      <trkpt lat="47.5614" lon="-0.59879">
        <ele>36.67</ele>
        <time>2014-07-02T16:17:04Z</time>
      </trkpt>
      <trkpt lat="47.5614" lon="-0.59884">
        <ele>36.67</ele>
        <time>2014-07-02T16:17:05Z</time>
      </trkpt>
      <trkpt lat="47.56144" lon="-0.59924">
        <ele>36.67</ele>
        <time>2014-07-02T16:17:11Z</time>
      </trkpt>
      <trkpt lat="47.56145" lon="-0.59932">
        <ele>36.19</ele>
        <time>2014-07-02T16:17:12Z</time>
      </trkpt>
      <trkpt lat="47.56147" lon="-0.59994">
        <ele>37.15</ele>
        <time>2014-07-02T16:17:20Z</time>
      </trkpt>
      <trkpt lat="47.56147" lon="-0.60002">
        <ele>36.67</ele>
        <time>2014-07-02T16:17:21Z</time>
      </trkpt>
      <trkpt lat="47.56147" lon="-0.60026">
        <ele>36.67</ele>
        <time>2014-07-02T16:17:24Z</time>
      </trkpt>
      <trkpt lat="47.56157" lon="-0.60049">
        <ele>36.67</ele>
        <time>2014-07-02T16:17:28Z</time>
      </trkpt>
      <trkpt lat="47.56161" lon="-0.60053">
        <ele>36.67</ele>
        <time>2014-07-02T16:17:29Z</time>
      </trkpt>
      <trkpt lat="47.56191" lon="-0.60065">
        <ele>37.15</ele>
        <time>2014-07-02T16:17:36Z</time>
      </trkpt>
      <trkpt lat="47.56206" lon="-0.60071">
        <ele>37.15</ele>
        <time>2014-07-02T16:17:39Z</time>
      </trkpt>
      <trkpt lat="47.56239" lon="-0.60084">
        <ele>38.11</ele>
        <time>2014-07-02T16:17:46Z</time>
      </trkpt>
      <trkpt lat="47.56272" lon="-0.60098">
        <ele>38.59</ele>
        <time>2014-07-02T16:17:53Z</time>
      </trkpt>
      <trkpt lat="47.56305" lon="-0.6011">
        <ele>39.07</ele>
        <time>2014-07-02T16:18:00Z</time>
      </trkpt>
      <trkpt lat="47.56323" lon="-0.60132">
        <ele>39.07</ele>
        <time>2014-07-02T16:18:05Z</time>
      </trkpt>
      <trkpt lat="47.56329" lon="-0.60143">
        <ele>39.55</ele>
        <time>2014-07-02T16:18:07Z</time>
      </trkpt>
      <trkpt lat="47.56347" lon="-0.60159">
        <ele>40.03</ele>
        <time>2014-07-02T16:18:12Z</time>
      </trkpt>
      <trkpt lat="47.56376" lon="-0.60169">
        <ele>40.51</ele>
        <time>2014-07-02T16:18:19Z</time>
      </trkpt>
      <trkpt lat="47.56401" lon="-0.6018">
        <ele>40.51</ele>
        <time>2014-07-02T16:18:24Z</time>
      </trkpt>
      <trkpt lat="47.56444" lon="-0.60183">
        <ele>40.51</ele>
        <time>2014-07-02T16:18:32Z</time>
      </trkpt>
      <trkpt lat="47.56465" lon="-0.6018">
        <ele>40.51</ele>
        <time>2014-07-02T16:18:36Z</time>
      </trkpt>
      <trkpt lat="47.565" lon="-0.60179">
        <ele>40.99</ele>
        <time>2014-07-02T16:18:42Z</time>
      </trkpt>
      <trkpt lat="47.56549" lon="-0.60187">
        <ele>40.51</ele>
        <time>2014-07-02T16:18:51Z</time>
      </trkpt>
      <trkpt lat="47.56585" lon="-0.60191">
        <ele>40.51</ele>
        <time>2014-07-02T16:18:58Z</time>
      </trkpt>
      <trkpt lat="47.56635" lon="-0.60199">
        <ele>40.99</ele>
        <time>2014-07-02T16:19:07Z</time>
      </trkpt>
      <trkpt lat="47.56677" lon="-0.6021">
        <ele>39.07</ele>
        <time>2014-07-02T16:19:14Z</time>
      </trkpt>
      <trkpt lat="47.56716" lon="-0.60215">
        <ele>38.11</ele>
        <time>2014-07-02T16:19:20Z</time>
      </trkpt>
      <trkpt lat="47.56741" lon="-0.60193">
        <ele>37.63</ele>
        <time>2014-07-02T16:19:25Z</time>
      </trkpt>
      <trkpt lat="47.56746" lon="-0.60188">
        <ele>37.63</ele>
        <time>2014-07-02T16:19:26Z</time>
      </trkpt>
      <trkpt lat="47.56767" lon="-0.60157">
        <ele>36.67</ele>
        <time>2014-07-02T16:19:31Z</time>
      </trkpt>
      <trkpt lat="47.56789" lon="-0.60101">
        <ele>36.67</ele>
        <time>2014-07-02T16:19:39Z</time>
      </trkpt>
      <trkpt lat="47.56811" lon="-0.60038">
        <ele>37.15</ele>
        <time>2014-07-02T16:19:48Z</time>
      </trkpt>
      <trkpt lat="47.5683" lon="-0.59983">
        <ele>37.15</ele>
        <time>2014-07-02T16:19:56Z</time>
      </trkpt>
      <trkpt lat="47.56847" lon="-0.59926">
        <ele>37.63</ele>
        <time>2014-07-02T16:20:04Z</time>
      </trkpt>
      <trkpt lat="47.56861" lon="-0.59873">
        <ele>38.59</ele>
        <time>2014-07-02T16:20:12Z</time>
      </trkpt>
      <trkpt lat="47.56871" lon="-0.59833">
        <ele>39.55</ele>
        <time>2014-07-02T16:20:18Z</time>
      </trkpt>
      <trkpt lat="47.56881" lon="-0.59806">
        <ele>39.55</ele>
        <time>2014-07-02T16:20:22Z</time>
      </trkpt>
      <trkpt lat="47.56887" lon="-0.59778">
        <ele>40.03</ele>
        <time>2014-07-02T16:20:26Z</time>
      </trkpt>
      <trkpt lat="47.56908" lon="-0.59717">
        <ele>40.99</ele>
        <time>2014-07-02T16:20:35Z</time>
      </trkpt>
      <trkpt lat="47.56929" lon="-0.59656">
        <ele>41.47</ele>
        <time>2014-07-02T16:20:44Z</time>
      </trkpt>
      <trkpt lat="47.56932" lon="-0.59649">
        <ele>41.47</ele>
        <time>2014-07-02T16:20:45Z</time>
      </trkpt>
      <trkpt lat="47.56943" lon="-0.59623">
        <ele>42.44</ele>
        <time>2014-07-02T16:20:49Z</time>
      </trkpt>
      <trkpt lat="47.56957" lon="-0.59586">
        <ele>42.44</ele>
        <time>2014-07-02T16:20:55Z</time>
      </trkpt>
      <trkpt lat="47.56971" lon="-0.59594">
        <ele>42.44</ele>
        <time>2014-07-02T16:20:59Z</time>
      </trkpt>
      <trkpt lat="47.56981" lon="-0.59609">
        <ele>42.92</ele>
        <time>2014-07-02T16:21:02Z</time>
      </trkpt>
      <trkpt lat="47.57011" lon="-0.59654">
        <ele>42.44</ele>
        <time>2014-07-02T16:21:11Z</time>
      </trkpt>
      <trkpt lat="47.57018" lon="-0.59665">
        <ele>42.92</ele>
        <time>2014-07-02T16:21:13Z</time>
      </trkpt>
      <trkpt lat="47.57058" lon="-0.59714">
        <ele>42.92</ele>
        <time>2014-07-02T16:21:23Z</time>
      </trkpt>
      <trkpt lat="47.57096" lon="-0.59747">
        <ele>42.92</ele>
        <time>2014-07-02T16:21:31Z</time>
      </trkpt>
      <trkpt lat="47.57137" lon="-0.59784">
        <ele>41.95</ele>
        <time>2014-07-02T16:21:39Z</time>
      </trkpt>
      <trkpt lat="47.57174" lon="-0.59828">
        <ele>42.44</ele>
        <time>2014-07-02T16:21:47Z</time>
      </trkpt>
      <trkpt lat="47.57183" lon="-0.59837">
        <ele>42.92</ele>
        <time>2014-07-02T16:21:49Z</time>
      </trkpt>
      <trkpt lat="47.57208" lon="-0.59846">
        <ele>42.44</ele>
        <time>2014-07-02T16:21:54Z</time>
      </trkpt>
      <trkpt lat="47.57217" lon="-0.5984">
        <ele>42.44</ele>
        <time>2014-07-02T16:21:56Z</time>
      </trkpt>
      <trkpt lat="47.57255" lon="-0.59811">
        <ele>43.4</ele>
        <time>2014-07-02T16:22:04Z</time>
      </trkpt>
      <trkpt lat="47.5729" lon="-0.59782">
        <ele>45.32</ele>
        <time>2014-07-02T16:22:12Z</time>
      </trkpt>
      <trkpt lat="47.57318" lon="-0.59751">
        <ele>46.28</ele>
        <time>2014-07-02T16:22:19Z</time>
      </trkpt>
      <trkpt lat="47.57346" lon="-0.59711">
        <ele>48.2</ele>
        <time>2014-07-02T16:22:27Z</time>
      </trkpt>
      <trkpt lat="47.57373" lon="-0.59674">
        <ele>49.16</ele>
        <time>2014-07-02T16:22:35Z</time>
      </trkpt>
      <trkpt lat="47.57396" lon="-0.59644">
        <ele>50.61</ele>
        <time>2014-07-02T16:22:42Z</time>
      </trkpt>
      <trkpt lat="47.57407" lon="-0.59619">
        <ele>51.09</ele>
        <time>2014-07-02T16:22:47Z</time>
      </trkpt>
      <trkpt lat="47.57411" lon="-0.59609">
        <ele>51.57</ele>
        <time>2014-07-02T16:22:49Z</time>
      </trkpt>
      <trkpt lat="47.57426" lon="-0.59608">
        <ele>51.57</ele>
        <time>2014-07-02T16:22:53Z</time>
      </trkpt>
      <trkpt lat="47.57434" lon="-0.59614">
        <ele>52.05</ele>
        <time>2014-07-02T16:22:55Z</time>
      </trkpt>
      <trkpt lat="47.57483" lon="-0.59634">
        <ele>53.01</ele>
        <time>2014-07-02T16:23:05Z</time>
      </trkpt>
      <trkpt lat="47.57518" lon="-0.59642">
        <ele>53.01</ele>
        <time>2014-07-02T16:23:12Z</time>
      </trkpt>
      <trkpt lat="47.57539" lon="-0.59648">
        <ele>53.49</ele>
        <time>2014-07-02T16:23:16Z</time>
      </trkpt>
      <trkpt lat="47.57589" lon="-0.5967">
        <ele>53.97</ele>
        <time>2014-07-02T16:23:26Z</time>
      </trkpt>
      <trkpt lat="47.57631" lon="-0.59694">
        <ele>53.97</ele>
        <time>2014-07-02T16:23:34Z</time>
      </trkpt>
      <trkpt lat="47.57646" lon="-0.59703">
        <ele>53.49</ele>
        <time>2014-07-02T16:23:37Z</time>
      </trkpt>
      <trkpt lat="47.57653" lon="-0.59727">
        <ele>53.49</ele>
        <time>2014-07-02T16:23:41Z</time>
      </trkpt>
      <trkpt lat="47.57645" lon="-0.59748">
        <ele>53.49</ele>
        <time>2014-07-02T16:23:44Z</time>
      </trkpt>
      <trkpt lat="47.57612" lon="-0.59813">
        <ele>53.49</ele>
        <time>2014-07-02T16:23:54Z</time>
      </trkpt>
      <trkpt lat="47.57574" lon="-0.59869">
        <ele>53.01</ele>
        <time>2014-07-02T16:24:03Z</time>
      </trkpt>
      <trkpt lat="47.57558" lon="-0.59897">
        <ele>52.05</ele>
        <time>2014-07-02T16:24:07Z</time>
      </trkpt>
      <trkpt lat="47.57553" lon="-0.59927">
        <ele>52.05</ele>
        <time>2014-07-02T16:24:11Z</time>
      </trkpt>
      <trkpt lat="47.57569" lon="-0.59946">
        <ele>52.53</ele>
        <time>2014-07-02T16:24:15Z</time>
      </trkpt>
      <trkpt lat="47.57595" lon="-0.59981">
        <ele>53.01</ele>
        <time>2014-07-02T16:24:22Z</time>
      </trkpt>
      <trkpt lat="47.57643" lon="-0.6004">
        <ele>53.01</ele>
        <time>2014-07-02T16:24:33Z</time>
      </trkpt>
      <trkpt lat="47.57688" lon="-0.60092">
        <ele>53.49</ele>
        <time>2014-07-02T16:24:43Z</time>
      </trkpt>
      <trkpt lat="47.57718" lon="-0.60134">
        <ele>53.49</ele>
        <time>2014-07-02T16:24:50Z</time>
      </trkpt>
      <trkpt lat="47.57755" lon="-0.602">
        <ele>51.57</ele>
        <time>2014-07-02T16:24:59Z</time>
      </trkpt>
      <trkpt lat="47.5779" lon="-0.6028">
        <ele>50.13</ele>
        <time>2014-07-02T16:25:08Z</time>
      </trkpt>
      <trkpt lat="47.57827" lon="-0.60349">
        <ele>49.65</ele>
        <time>2014-07-02T16:25:16Z</time>
      </trkpt>
      <trkpt lat="47.57858" lon="-0.604">
        <ele>48.68</ele>
        <time>2014-07-02T16:25:23Z</time>
      </trkpt>
      <trkpt lat="47.5789" lon="-0.60448">
        <ele>47.72</ele>
        <time>2014-07-02T16:25:30Z</time>
      </trkpt>
      <trkpt lat="47.57928" lon="-0.60498">
        <ele>45.32</ele>
        <time>2014-07-02T16:25:37Z</time>
      </trkpt>
      <trkpt lat="47.5794" lon="-0.60512">
        <ele>44.36</ele>
        <time>2014-07-02T16:25:39Z</time>
      </trkpt>
      <trkpt lat="47.57969" lon="-0.60529">
        <ele>42.44</ele>
        <time>2014-07-02T16:25:43Z</time>
      </trkpt>
      <trkpt lat="47.58013" lon="-0.60542">
        <ele>39.07</ele>
        <time>2014-07-02T16:25:48Z</time>
      </trkpt>
      <trkpt lat="47.58057" lon="-0.60556">
        <ele>35.71</ele>
        <time>2014-07-02T16:25:53Z</time>
      </trkpt>
      <trkpt lat="47.58083" lon="-0.60581">
        <ele>32.34</ele>
        <time>2014-07-02T16:25:57Z</time>
      </trkpt>
      <trkpt lat="47.58092" lon="-0.606">
        <ele>30.9</ele>
        <time>2014-07-02T16:25:59Z</time>
      </trkpt>
      <trkpt lat="47.58115" lon="-0.60645">
        <ele>26.57</ele>
        <time>2014-07-02T16:26:05Z</time>
      </trkpt>
      <trkpt lat="47.58104" lon="-0.60651">
        <ele>25.13</ele>
        <time>2014-07-02T16:26:10Z</time>
      </trkpt>
      <trkpt lat="47.58092" lon="-0.60655">
        <ele>24.17</ele>
        <time>2014-07-02T16:26:12Z</time>
      </trkpt>
      <trkpt lat="47.58074" lon="-0.6068">
        <ele>23.21</ele>
        <time>2014-07-02T16:26:16Z</time>
      </trkpt>
      <trkpt lat="47.5807" lon="-0.60705">
        <ele>22.73</ele>
        <time>2014-07-02T16:26:19Z</time>
      </trkpt>
      <trkpt lat="47.58073" lon="-0.60749">
        <ele>22.73</ele>
        <time>2014-07-02T16:26:25Z</time>
      </trkpt>
      <trkpt lat="47.58079" lon="-0.60778">
        <ele>23.69</ele>
        <time>2014-07-02T16:26:29Z</time>
      </trkpt>
      <trkpt lat="47.58103" lon="-0.60855">
        <ele>25.61</ele>
        <time>2014-07-02T16:26:39Z</time>
      </trkpt>
      <trkpt lat="47.58106" lon="-0.60862">
        <ele>25.61</ele>
        <time>2014-07-02T16:26:40Z</time>
      </trkpt>
      <trkpt lat="47.58117" lon="-0.60898">
        <ele>27.05</ele>
        <time>2014-07-02T16:26:45Z</time>
      </trkpt>
      <trkpt lat="47.58133" lon="-0.60944">
        <ele>28.98</ele>
        <time>2014-07-02T16:26:52Z</time>
      </trkpt>
      <trkpt lat="47.58142" lon="-0.60967">
        <ele>29.94</ele>
        <time>2014-07-02T16:26:56Z</time>
      </trkpt>
      <trkpt lat="47.58154" lon="-0.6099">
        <ele>30.9</ele>
        <time>2014-07-02T16:27:01Z</time>
      </trkpt>
      <trkpt lat="47.58156" lon="-0.60996">
        <ele>30.9</ele>
        <time>2014-07-02T16:27:02Z</time>
      </trkpt>
      <trkpt lat="47.58172" lon="-0.61038">
        <ele>33.3</ele>
        <time>2014-07-02T16:27:10Z</time>
      </trkpt>
      <trkpt lat="47.58187" lon="-0.61074">
        <ele>34.74</ele>
        <time>2014-07-02T16:27:17Z</time>
      </trkpt>
      <trkpt lat="47.58203" lon="-0.6112">
        <ele>36.67</ele>
        <time>2014-07-02T16:27:25Z</time>
      </trkpt>
      <trkpt lat="47.58215" lon="-0.61148">
        <ele>38.11</ele>
        <time>2014-07-02T16:27:31Z</time>
      </trkpt>
      <trkpt lat="47.58223" lon="-0.61169">
        <ele>38.59</ele>
        <time>2014-07-02T16:27:35Z</time>
      </trkpt>
      <trkpt lat="47.58245" lon="-0.61189">
        <ele>40.51</ele>
        <time>2014-07-02T16:27:42Z</time>
      </trkpt>
      <trkpt lat="47.58273" lon="-0.61216">
        <ele>40.99</ele>
        <time>2014-07-02T16:27:50Z</time>
      </trkpt>
      <trkpt lat="47.58283" lon="-0.61223">
        <ele>40.99</ele>
        <time>2014-07-02T16:27:53Z</time>
      </trkpt>
      <trkpt lat="47.58303" lon="-0.61204">
        <ele>41.47</ele>
        <time>2014-07-02T16:27:59Z</time>
      </trkpt>
      <trkpt lat="47.58319" lon="-0.61198">
        <ele>41.47</ele>
        <time>2014-07-02T16:28:03Z</time>
      </trkpt>
      <trkpt lat="47.58351" lon="-0.61189">
        <ele>41.47</ele>
        <time>2014-07-02T16:28:10Z</time>
      </trkpt>
      <trkpt lat="47.58387" lon="-0.61166">
        <ele>41.47</ele>
        <time>2014-07-02T16:28:19Z</time>
      </trkpt>
      <trkpt lat="47.58423" lon="-0.61146">
        <ele>40.99</ele>
        <time>2014-07-02T16:28:27Z</time>
      </trkpt>
      <trkpt lat="47.58428" lon="-0.61144">
        <ele>40.03</ele>
        <time>2014-07-02T16:28:28Z</time>
      </trkpt>
      <trkpt lat="47.58475" lon="-0.6111">
        <ele>39.07</ele>
        <time>2014-07-02T16:28:38Z</time>
      </trkpt>
      <trkpt lat="47.58494" lon="-0.6109">
        <ele>37.63</ele>
        <time>2014-07-02T16:28:44Z</time>
      </trkpt>
      <trkpt lat="47.58497" lon="-0.6109">
        <ele>38.11</ele>
        <time>2014-07-02T16:28:45Z</time>
      </trkpt>
      <trkpt lat="47.5851" lon="-0.61108">
        <ele>37.63</ele>
        <time>2014-07-02T16:28:50Z</time>
      </trkpt>
      <trkpt lat="47.58529" lon="-0.61167">
        <ele>39.07</ele>
        <time>2014-07-02T16:29:00Z</time>
      </trkpt>
      <trkpt lat="47.58546" lon="-0.61228">
        <ele>40.99</ele>
        <time>2014-07-02T16:29:10Z</time>
      </trkpt>
      <trkpt lat="47.58552" lon="-0.61277">
        <ele>43.4</ele>
        <time>2014-07-02T16:29:18Z</time>
      </trkpt>
      <trkpt lat="47.58556" lon="-0.61335">
        <ele>44.84</ele>
        <time>2014-07-02T16:29:27Z</time>
      </trkpt>
      <trkpt lat="47.58558" lon="-0.61373">
        <ele>46.28</ele>
        <time>2014-07-02T16:29:33Z</time>
      </trkpt>
      <trkpt lat="47.5856" lon="-0.61392">
        <ele>46.76</ele>
        <time>2014-07-02T16:29:36Z</time>
      </trkpt>
      <trkpt lat="47.58566" lon="-0.61416">
        <ele>46.76</ele>
        <time>2014-07-02T16:29:40Z</time>
      </trkpt>
      <trkpt lat="47.58588" lon="-0.61438">
        <ele>48.2</ele>
        <time>2014-07-02T16:29:46Z</time>
      </trkpt>
      <trkpt lat="47.58604" lon="-0.6144">
        <ele>48.2</ele>
        <time>2014-07-02T16:29:49Z</time>
      </trkpt>
      <trkpt lat="47.58651" lon="-0.61435">
        <ele>46.76</ele>
        <time>2014-07-02T16:29:58Z</time>
      </trkpt>
      <trkpt lat="47.58709" lon="-0.61428">
        <ele>47.24</ele>
        <time>2014-07-02T16:30:08Z</time>
      </trkpt>
      <trkpt lat="47.58756" lon="-0.61422">
        <ele>48.68</ele>
        <time>2014-07-02T16:30:17Z</time>
      </trkpt>
      <trkpt lat="47.58803" lon="-0.61405">
        <ele>49.65</ele>
        <time>2014-07-02T16:30:27Z</time>
      </trkpt>
      <trkpt lat="47.58807" lon="-0.61402">
        <ele>49.65</ele>
        <time>2014-07-02T16:30:28Z</time>
      </trkpt>
      <trkpt lat="47.5885" lon="-0.61377">
        <ele>50.13</ele>
        <time>2014-07-02T16:30:38Z</time>
      </trkpt>
      <trkpt lat="47.58884" lon="-0.61358">
        <ele>50.61</ele>
        <time>2014-07-02T16:30:46Z</time>
      </trkpt>
      <trkpt lat="47.58918" lon="-0.61338">
        <ele>51.09</ele>
        <time>2014-07-02T16:30:54Z</time>
      </trkpt>
      <trkpt lat="47.58942" lon="-0.61328">
        <ele>52.05</ele>
        <time>2014-07-02T16:31:00Z</time>
      </trkpt>
      <trkpt lat="47.58962" lon="-0.6132">
        <ele>52.53</ele>
        <time>2014-07-02T16:31:05Z</time>
      </trkpt>
      <trkpt lat="47.58989" lon="-0.61301">
        <ele>53.01</ele>
        <time>2014-07-02T16:31:12Z</time>
      </trkpt>
      <trkpt lat="47.59017" lon="-0.61282">
        <ele>53.01</ele>
        <time>2014-07-02T16:31:19Z</time>
      </trkpt>
      <trkpt lat="47.59037" lon="-0.6126">
        <ele>53.01</ele>
        <time>2014-07-02T16:31:26Z</time>
      </trkpt>
      <trkpt lat="47.59056" lon="-0.61238">
        <ele>52.53</ele>
        <time>2014-07-02T16:31:32Z</time>
      </trkpt>
      <trkpt lat="47.59079" lon="-0.61215">
        <ele>52.05</ele>
        <time>2014-07-02T16:31:38Z</time>
      </trkpt>
      <trkpt lat="47.59094" lon="-0.61201">
        <ele>52.05</ele>
        <time>2014-07-02T16:31:41Z</time>
      </trkpt>
      <trkpt lat="47.59112" lon="-0.61182">
        <ele>51.09</ele>
        <time>2014-07-02T16:31:45Z</time>
      </trkpt>
      <trkpt lat="47.59131" lon="-0.61172">
        <ele>50.61</ele>
        <time>2014-07-02T16:31:50Z</time>
      </trkpt>
      <trkpt lat="47.59136" lon="-0.61179">
        <ele>50.61</ele>
        <time>2014-07-02T16:31:52Z</time>
      </trkpt>
      <trkpt lat="47.59142" lon="-0.61206">
        <ele>51.57</ele>
        <time>2014-07-02T16:31:57Z</time>
      </trkpt>
      <trkpt lat="47.59146" lon="-0.61241">
        <ele>52.05</ele>
        <time>2014-07-02T16:32:03Z</time>
      </trkpt>
      <trkpt lat="47.59148" lon="-0.61266">
        <ele>53.01</ele>
        <time>2014-07-02T16:32:07Z</time>
      </trkpt>
      <trkpt lat="47.59156" lon="-0.613">
        <ele>53.49</ele>
        <time>2014-07-02T16:32:13Z</time>
      </trkpt>
      <trkpt lat="47.5917" lon="-0.61347">
        <ele>53.97</ele>
        <time>2014-07-02T16:32:21Z</time>
      </trkpt>
      <trkpt lat="47.59173" lon="-0.61354">
        <ele>53.97</ele>
        <time>2014-07-02T16:32:22Z</time>
      </trkpt>
      <trkpt lat="47.59229" lon="-0.61409">
        <ele>53.97</ele>
        <time>2014-07-02T16:32:29Z</time>
      </trkpt>
      <trkpt lat="47.5924" lon="-0.61447">
        <ele>53.97</ele>
        <time>2014-07-02T16:32:36Z</time>
      </trkpt>
      <trkpt lat="47.59257" lon="-0.61455">
        <ele>53.97</ele>
        <time>2014-07-02T16:32:41Z</time>
      </trkpt>
      <trkpt lat="47.59289" lon="-0.61465">
        <ele>53.97</ele>
        <time>2014-07-02T16:32:49Z</time>
      </trkpt>
      <trkpt lat="47.59319" lon="-0.61473">
        <ele>54.45</ele>
        <time>2014-07-02T16:32:56Z</time>
      </trkpt>
      <trkpt lat="47.59349" lon="-0.61481">
        <ele>54.45</ele>
        <time>2014-07-02T16:33:02Z</time>
      </trkpt>
      <trkpt lat="47.59375" lon="-0.61495">
        <ele>54.93</ele>
        <time>2014-07-02T16:33:08Z</time>
      </trkpt>
      <trkpt lat="47.59384" lon="-0.61505">
        <ele>53.97</ele>
        <time>2014-07-02T16:33:11Z</time>
      </trkpt>
      <trkpt lat="47.59389" lon="-0.61518">
        <ele>53.97</ele>
        <time>2014-07-02T16:33:14Z</time>
      </trkpt>
      <trkpt lat="47.59388" lon="-0.61548">
        <ele>53.49</ele>
        <time>2014-07-02T16:33:19Z</time>
      </trkpt>
      <trkpt lat="47.59386" lon="-0.61555">
        <ele>53.49</ele>
        <time>2014-07-02T16:33:20Z</time>
      </trkpt>
      <trkpt lat="47.59363" lon="-0.61613">
        <ele>49.16</ele>
        <time>2014-07-02T16:33:28Z</time>
      </trkpt>
      <trkpt lat="47.59347" lon="-0.61656">
        <ele>48.2</ele>
        <time>2014-07-02T16:33:31Z</time>
      </trkpt>
      <trkpt lat="47.59317" lon="-0.61702">
        <ele>45.8</ele>
        <time>2014-07-02T16:33:35Z</time>
      </trkpt>
      <trkpt lat="47.59269" lon="-0.61758">
        <ele>44.84</ele>
        <time>2014-07-02T16:33:42Z</time>
      </trkpt>
      <trkpt lat="47.59239" lon="-0.61805">
        <ele>45.32</ele>
        <time>2014-07-02T16:33:48Z</time>
      </trkpt>
      <trkpt lat="47.59179" lon="-0.61889">
        <ele>46.28</ele>
        <time>2014-07-02T16:34:00Z</time>
      </trkpt>
      <trkpt lat="47.59156" lon="-0.61909">
        <ele>46.28</ele>
        <time>2014-07-02T16:34:04Z</time>
      </trkpt>
      <trkpt lat="47.59111" lon="-0.61964">
        <ele>47.24</ele>
        <time>2014-07-02T16:34:13Z</time>
      </trkpt>
      <trkpt lat="47.59107" lon="-0.61971">
        <ele>47.24</ele>
        <time>2014-07-02T16:34:14Z</time>
      </trkpt>
      <trkpt lat="47.59081" lon="-0.62028">
        <ele>48.2</ele>
        <time>2014-07-02T16:34:22Z</time>
      </trkpt>
      <trkpt lat="47.59061" lon="-0.62077">
        <ele>48.68</ele>
        <time>2014-07-02T16:34:29Z</time>
      </trkpt>
      <trkpt lat="47.59036" lon="-0.62139">
        <ele>49.16</ele>
        <time>2014-07-02T16:34:38Z</time>
      </trkpt>
      <trkpt lat="47.59026" lon="-0.62175">
        <ele>49.16</ele>
        <time>2014-07-02T16:34:43Z</time>
      </trkpt>
      <trkpt lat="47.59029" lon="-0.62221">
        <ele>49.65</ele>
        <time>2014-07-02T16:34:49Z</time>
      </trkpt>
      <trkpt lat="47.59045" lon="-0.62277">
        <ele>50.61</ele>
        <time>2014-07-02T16:34:57Z</time>
      </trkpt>
      <trkpt lat="47.5906" lon="-0.62294">
        <ele>51.57</ele>
        <time>2014-07-02T16:35:02Z</time>
      </trkpt>
      <trkpt lat="47.59065" lon="-0.62292">
        <ele>51.57</ele>
        <time>2014-07-02T16:35:03Z</time>
      </trkpt>
      <trkpt lat="47.59099" lon="-0.62267">
        <ele>52.53</ele>
        <time>2014-07-02T16:35:12Z</time>
      </trkpt>
      <trkpt lat="47.59126" lon="-0.62251">
        <ele>53.49</ele>
        <time>2014-07-02T16:35:19Z</time>
      </trkpt>
      <trkpt lat="47.59164" lon="-0.62237">
        <ele>53.49</ele>
        <time>2014-07-02T16:35:28Z</time>
      </trkpt>
      <trkpt lat="47.59199" lon="-0.6223">
        <ele>53.49</ele>
        <time>2014-07-02T16:35:36Z</time>
      </trkpt>
      <trkpt lat="47.59236" lon="-0.62223">
        <ele>52.53</ele>
        <time>2014-07-02T16:35:44Z</time>
      </trkpt>
      <trkpt lat="47.59281" lon="-0.62213">
        <ele>52.05</ele>
        <time>2014-07-02T16:35:53Z</time>
      </trkpt>
      <trkpt lat="47.5932" lon="-0.62209">
        <ele>51.09</ele>
        <time>2014-07-02T16:36:01Z</time>
      </trkpt>
      <trkpt lat="47.59349" lon="-0.62204">
        <ele>51.09</ele>
        <time>2014-07-02T16:36:07Z</time>
      </trkpt>
      <trkpt lat="47.59369" lon="-0.62201">
        <ele>51.57</ele>
        <time>2014-07-02T16:36:11Z</time>
      </trkpt>
      <trkpt lat="47.59383" lon="-0.622">
        <ele>51.57</ele>
        <time>2014-07-02T16:36:14Z</time>
      </trkpt>
      <trkpt lat="47.59417" lon="-0.62195">
        <ele>52.05</ele>
        <time>2014-07-02T16:36:22Z</time>
      </trkpt>
      <trkpt lat="47.59434" lon="-0.62193">
        <ele>52.53</ele>
        <time>2014-07-02T16:36:26Z</time>
      </trkpt>
      <trkpt lat="47.59463" lon="-0.62192">
        <ele>53.01</ele>
        <time>2014-07-02T16:36:32Z</time>
      </trkpt>
      <trkpt lat="47.59491" lon="-0.62187">
        <ele>53.49</ele>
        <time>2014-07-02T16:36:39Z</time>
      </trkpt>
      <trkpt lat="47.59522" lon="-0.62184">
        <ele>53.49</ele>
        <time>2014-07-02T16:36:46Z</time>
      </trkpt>
      <trkpt lat="47.59563" lon="-0.62183">
        <ele>53.01</ele>
        <time>2014-07-02T16:36:53Z</time>
      </trkpt>
      <trkpt lat="47.59579" lon="-0.62185">
        <ele>53.01</ele>
        <time>2014-07-02T16:36:56Z</time>
      </trkpt>
      <trkpt lat="47.5962" lon="-0.62185">
        <ele>52.53</ele>
        <time>2014-07-02T16:37:04Z</time>
      </trkpt>
      <trkpt lat="47.59629" lon="-0.62186">
        <ele>52.05</ele>
        <time>2014-07-02T16:37:06Z</time>
      </trkpt>
      <trkpt lat="47.59635" lon="-0.62211">
        <ele>52.53</ele>
        <time>2014-07-02T16:37:11Z</time>
      </trkpt>
      <trkpt lat="47.59634" lon="-0.62225">
        <ele>53.01</ele>
        <time>2014-07-02T16:37:13Z</time>
      </trkpt>
      <trkpt lat="47.59634" lon="-0.62239">
        <ele>53.97</ele>
        <time>2014-07-02T16:37:15Z</time>
      </trkpt>
      <trkpt lat="47.59633" lon="-0.62283">
        <ele>53.97</ele>
        <time>2014-07-02T16:37:22Z</time>
      </trkpt>
      <trkpt lat="47.59634" lon="-0.62337">
        <ele>54.45</ele>
        <time>2014-07-02T16:37:30Z</time>
      </trkpt>
      <trkpt lat="47.59634" lon="-0.62351">
        <ele>55.41</ele>
        <time>2014-07-02T16:37:32Z</time>
      </trkpt>
      <trkpt lat="47.5963" lon="-0.62407">
        <ele>55.41</ele>
        <time>2014-07-02T16:37:39Z</time>
      </trkpt>
      <trkpt lat="47.59628" lon="-0.62431">
        <ele>55.41</ele>
        <time>2014-07-02T16:37:42Z</time>
      </trkpt>
      <trkpt lat="47.59629" lon="-0.62461">
        <ele>55.41</ele>
        <time>2014-07-02T16:37:46Z</time>
      </trkpt>
      <trkpt lat="47.5963" lon="-0.62476">
        <ele>55.89</ele>
        <time>2014-07-02T16:37:48Z</time>
      </trkpt>
      <trkpt lat="47.59631" lon="-0.625">
        <ele>55.89</ele>
        <time>2014-07-02T16:37:51Z</time>
      </trkpt>
      <trkpt lat="47.59632" lon="-0.62516">
        <ele>55.89</ele>
        <time>2014-07-02T16:37:53Z</time>
      </trkpt>
      <trkpt lat="47.59624" lon="-0.62536">
        <ele>55.89</ele>
        <time>2014-07-02T16:37:57Z</time>
      </trkpt>
      <trkpt lat="47.59615" lon="-0.62538">
        <ele>55.89</ele>
        <time>2014-07-02T16:37:59Z</time>
      </trkpt>
      <trkpt lat="47.59576" lon="-0.62543">
        <ele>56.86</ele>
        <time>2014-07-02T16:38:07Z</time>
      </trkpt>
      <trkpt lat="47.59542" lon="-0.6255">
        <ele>56.86</ele>
        <time>2014-07-02T16:38:14Z</time>
      </trkpt>
      <trkpt lat="47.59506" lon="-0.62557">
        <ele>56.37</ele>
        <time>2014-07-02T16:38:21Z</time>
      </trkpt>
      <trkpt lat="47.59464" lon="-0.62563">
        <ele>56.37</ele>
        <time>2014-07-02T16:38:29Z</time>
      </trkpt>
      <trkpt lat="47.59444" lon="-0.62567">
        <ele>56.37</ele>
        <time>2014-07-02T16:38:33Z</time>
      </trkpt>
      <trkpt lat="47.59382" lon="-0.62574">
        <ele>56.37</ele>
        <time>2014-07-02T16:38:44Z</time>
      </trkpt>
      <trkpt lat="47.59343" lon="-0.62574">
        <ele>56.37</ele>
        <time>2014-07-02T16:38:51Z</time>
      </trkpt>
      <trkpt lat="47.59293" lon="-0.62574">
        <ele>56.37</ele>
        <time>2014-07-02T16:39:00Z</time>
      </trkpt>
      <trkpt lat="47.59257" lon="-0.62581">
        <ele>56.37</ele>
        <time>2014-07-02T16:39:07Z</time>
      </trkpt>
      <trkpt lat="47.59247" lon="-0.62584">
        <ele>56.86</ele>
        <time>2014-07-02T16:39:09Z</time>
      </trkpt>
      <trkpt lat="47.59212" lon="-0.62595">
        <ele>56.37</ele>
        <time>2014-07-02T16:39:16Z</time>
      </trkpt>
      <trkpt lat="47.59156" lon="-0.6261">
        <ele>56.37</ele>
        <time>2014-07-02T16:39:27Z</time>
      </trkpt>
      <trkpt lat="47.59149" lon="-0.62612">
        <ele>56.37</ele>
        <time>2014-07-02T16:39:29Z</time>
      </trkpt>
      <trkpt lat="47.59149" lon="-0.62626">
        <ele>56.37</ele>
        <time>2014-07-02T16:39:33Z</time>
      </trkpt>
      <trkpt lat="47.59176" lon="-0.62675">
        <ele>56.37</ele>
        <time>2014-07-02T16:39:43Z</time>
      </trkpt>
      <trkpt lat="47.59201" lon="-0.62709">
        <ele>56.37</ele>
        <time>2014-07-02T16:39:50Z</time>
      </trkpt>
      <trkpt lat="47.59211" lon="-0.62744">
        <ele>56.86</ele>
        <time>2014-07-02T16:39:56Z</time>
      </trkpt>
      <trkpt lat="47.59208" lon="-0.62758">
        <ele>56.86</ele>
        <time>2014-07-02T16:39:58Z</time>
      </trkpt>
      <trkpt lat="47.59197" lon="-0.62808">
        <ele>56.86</ele>
        <time>2014-07-02T16:40:05Z</time>
      </trkpt>
      <trkpt lat="47.592" lon="-0.62849">
        <ele>56.86</ele>
        <time>2014-07-02T16:40:11Z</time>
      </trkpt>
      <trkpt lat="47.59204" lon="-0.62852">
        <ele>57.34</ele>
        <time>2014-07-02T16:40:12Z</time>
      </trkpt>
      <trkpt lat="47.59247" lon="-0.62878">
        <ele>57.34</ele>
        <time>2014-07-02T16:40:21Z</time>
      </trkpt>
      <trkpt lat="47.59296" lon="-0.62914">
        <ele>57.34</ele>
        <time>2014-07-02T16:40:31Z</time>
      </trkpt>
      <trkpt lat="47.59345" lon="-0.62951">
        <ele>57.82</ele>
        <time>2014-07-02T16:40:41Z</time>
      </trkpt>
      <trkpt lat="47.59391" lon="-0.62985">
        <ele>57.82</ele>
        <time>2014-07-02T16:40:50Z</time>
      </trkpt>
      <trkpt lat="47.59435" lon="-0.63022">
        <ele>57.82</ele>
        <time>2014-07-02T16:40:59Z</time>
      </trkpt>
      <trkpt lat="47.59471" lon="-0.63058">
        <ele>58.3</ele>
        <time>2014-07-02T16:41:07Z</time>
      </trkpt>
      <trkpt lat="47.59498" lon="-0.63103">
        <ele>57.82</ele>
        <time>2014-07-02T16:41:14Z</time>
      </trkpt>
      <trkpt lat="47.59527" lon="-0.63171">
        <ele>57.82</ele>
        <time>2014-07-02T16:41:23Z</time>
      </trkpt>
      <trkpt lat="47.59556" lon="-0.63238">
        <ele>56.86</ele>
        <time>2014-07-02T16:41:32Z</time>
      </trkpt>
      <trkpt lat="47.59593" lon="-0.63321">
        <ele>56.86</ele>
        <time>2014-07-02T16:41:43Z</time>
      </trkpt>
      <trkpt lat="47.59603" lon="-0.63344">
        <ele>56.37</ele>
        <time>2014-07-02T16:41:46Z</time>
      </trkpt>
      <trkpt lat="47.59623" lon="-0.63347">
        <ele>56.37</ele>
        <time>2014-07-02T16:41:50Z</time>
      </trkpt>
      <trkpt lat="47.59628" lon="-0.63342">
        <ele>56.86</ele>
        <time>2014-07-02T16:41:51Z</time>
      </trkpt>
      <trkpt lat="47.59673" lon="-0.63304">
        <ele>56.86</ele>
        <time>2014-07-02T16:42:00Z</time>
      </trkpt>
      <trkpt lat="47.59717" lon="-0.63279">
        <ele>57.34</ele>
        <time>2014-07-02T16:42:08Z</time>
      </trkpt>
      <trkpt lat="47.59758" lon="-0.63263">
        <ele>57.34</ele>
        <time>2014-07-02T16:42:15Z</time>
      </trkpt>
      <trkpt lat="47.59775" lon="-0.63256">
        <ele>57.82</ele>
        <time>2014-07-02T16:42:18Z</time>
      </trkpt>
      <trkpt lat="47.59818" lon="-0.63225">
        <ele>57.82</ele>
        <time>2014-07-02T16:42:26Z</time>
      </trkpt>
      <trkpt lat="47.59823" lon="-0.63221">
        <ele>57.82</ele>
        <time>2014-07-02T16:42:27Z</time>
      </trkpt>
      <trkpt lat="47.59838" lon="-0.6321">
        <ele>57.34</ele>
        <time>2014-07-02T16:42:30Z</time>
      </trkpt>
      <trkpt lat="47.59881" lon="-0.63177">
        <ele>57.82</ele>
        <time>2014-07-02T16:42:38Z</time>
      </trkpt>
      <trkpt lat="47.59923" lon="-0.63148">
        <ele>57.34</ele>
        <time>2014-07-02T16:42:45Z</time>
      </trkpt>
      <trkpt lat="47.59968" lon="-0.63113">
        <ele>57.34</ele>
        <time>2014-07-02T16:42:53Z</time>
      </trkpt>
      <trkpt lat="47.60006" lon="-0.63077">
        <ele>56.37</ele>
        <time>2014-07-02T16:43:00Z</time>
      </trkpt>
      <trkpt lat="47.60041" lon="-0.63039">
        <ele>56.86</ele>
        <time>2014-07-02T16:43:07Z</time>
      </trkpt>
      <trkpt lat="47.60076" lon="-0.63003">
        <ele>56.37</ele>
        <time>2014-07-02T16:43:14Z</time>
      </trkpt>
      <trkpt lat="47.60081" lon="-0.62998">
        <ele>55.89</ele>
        <time>2014-07-02T16:43:15Z</time>
      </trkpt>
      <trkpt lat="47.60122" lon="-0.62945">
        <ele>55.89</ele>
        <time>2014-07-02T16:43:24Z</time>
      </trkpt>
      <trkpt lat="47.60139" lon="-0.62921">
        <ele>55.41</ele>
        <time>2014-07-02T16:43:28Z</time>
      </trkpt>
      <trkpt lat="47.60174" lon="-0.62867">
        <ele>55.89</ele>
        <time>2014-07-02T16:43:37Z</time>
      </trkpt>
      <trkpt lat="47.60194" lon="-0.62832">
        <ele>55.89</ele>
        <time>2014-07-02T16:43:43Z</time>
      </trkpt>
      <trkpt lat="47.60201" lon="-0.6282">
        <ele>56.37</ele>
        <time>2014-07-02T16:43:45Z</time>
      </trkpt>
      <trkpt lat="47.60218" lon="-0.62813">
        <ele>56.37</ele>
        <time>2014-07-02T16:43:49Z</time>
      </trkpt>
      <trkpt lat="47.60227" lon="-0.62819">
        <ele>55.41</ele>
        <time>2014-07-02T16:43:54Z</time>
      </trkpt>
      <trkpt lat="47.60228" lon="-0.62811">
        <ele>55.89</ele>
        <time>2014-07-02T16:43:59Z</time>
      </trkpt>
      <trkpt lat="47.60231" lon="-0.62798">
        <ele>56.37</ele>
        <time>2014-07-02T16:44:02Z</time>
      </trkpt>
      <trkpt lat="47.6023" lon="-0.62789">
        <ele>55.89</ele>
        <time>2014-07-02T16:44:04Z</time>
      </trkpt>
      <trkpt lat="47.60227" lon="-0.62762">
        <ele>56.37</ele>
        <time>2014-07-02T16:44:09Z</time>
      </trkpt>
      <trkpt lat="47.60226" lon="-0.62741">
        <ele>56.37</ele>
        <time>2014-07-02T16:44:12Z</time>
      </trkpt>
      <trkpt lat="47.60228" lon="-0.6272">
        <ele>56.37</ele>
        <time>2014-07-02T16:44:15Z</time>
      </trkpt>
      <trkpt lat="47.60228" lon="-0.62644">
        <ele>56.37</ele>
        <time>2014-07-02T16:44:25Z</time>
      </trkpt>
      <trkpt lat="47.60228" lon="-0.6262">
        <ele>56.86</ele>
        <time>2014-07-02T16:44:28Z</time>
      </trkpt>
      <trkpt lat="47.60227" lon="-0.62586">
        <ele>56.37</ele>
        <time>2014-07-02T16:44:32Z</time>
      </trkpt>
      <trkpt lat="47.60231" lon="-0.62537">
        <ele>55.89</ele>
        <time>2014-07-02T16:44:38Z</time>
      </trkpt>
      <trkpt lat="47.60233" lon="-0.62504">
        <ele>55.89</ele>
        <time>2014-07-02T16:44:42Z</time>
      </trkpt>
      <trkpt lat="47.60236" lon="-0.62476">
        <ele>56.37</ele>
        <time>2014-07-02T16:44:46Z</time>
      </trkpt>
      <trkpt lat="47.60249" lon="-0.62468">
        <ele>55.89</ele>
        <time>2014-07-02T16:44:50Z</time>
      </trkpt>
      <trkpt lat="47.60282" lon="-0.62469">
        <ele>56.37</ele>
        <time>2014-07-02T16:44:57Z</time>
      </trkpt>
      <trkpt lat="47.60326" lon="-0.6247">
        <ele>57.34</ele>
        <time>2014-07-02T16:45:06Z</time>
      </trkpt>
      <trkpt lat="47.60356" lon="-0.62471">
        <ele>58.3</ele>
        <time>2014-07-02T16:45:12Z</time>
      </trkpt>
      <trkpt lat="47.6039" lon="-0.6247">
        <ele>57.82</ele>
        <time>2014-07-02T16:45:19Z</time>
      </trkpt>
      <trkpt lat="47.60429" lon="-0.62468">
        <ele>58.3</ele>
        <time>2014-07-02T16:45:26Z</time>
      </trkpt>
      <trkpt lat="47.60461" lon="-0.62468">
        <ele>58.3</ele>
        <time>2014-07-02T16:45:32Z</time>
      </trkpt>
      <trkpt lat="47.60508" lon="-0.62462">
        <ele>59.26</ele>
        <time>2014-07-02T16:45:41Z</time>
      </trkpt>
      <trkpt lat="47.60557" lon="-0.62455">
        <ele>58.3</ele>
        <time>2014-07-02T16:45:50Z</time>
      </trkpt>
      <trkpt lat="47.60577" lon="-0.62455">
        <ele>58.78</ele>
        <time>2014-07-02T16:45:54Z</time>
      </trkpt>
      <trkpt lat="47.60597" lon="-0.62458">
        <ele>58.3</ele>
        <time>2014-07-02T16:45:58Z</time>
      </trkpt>
      <trkpt lat="47.60617" lon="-0.62457">
        <ele>58.3</ele>
        <time>2014-07-02T16:46:02Z</time>
      </trkpt>
      <trkpt lat="47.60657" lon="-0.62458">
        <ele>58.3</ele>
        <time>2014-07-02T16:46:10Z</time>
      </trkpt>
      <trkpt lat="47.60683" lon="-0.62455">
        <ele>58.3</ele>
        <time>2014-07-02T16:46:15Z</time>
      </trkpt>
      <trkpt lat="47.60718" lon="-0.62466">
        <ele>58.3</ele>
        <time>2014-07-02T16:46:22Z</time>
      </trkpt>
      <trkpt lat="47.60728" lon="-0.6247">
        <ele>58.3</ele>
        <time>2014-07-02T16:46:24Z</time>
      </trkpt>
      <trkpt lat="47.60752" lon="-0.62474">
        <ele>58.3</ele>
        <time>2014-07-02T16:46:29Z</time>
      </trkpt>
      <trkpt lat="47.60794" lon="-0.62478">
        <ele>58.78</ele>
        <time>2014-07-02T16:46:37Z</time>
      </trkpt>
      <trkpt lat="47.60815" lon="-0.62479">
        <ele>58.78</ele>
        <time>2014-07-02T16:46:41Z</time>
      </trkpt>
      <trkpt lat="47.6083" lon="-0.62474">
        <ele>58.78</ele>
        <time>2014-07-02T16:46:44Z</time>
      </trkpt>
      <trkpt lat="47.60845" lon="-0.62484">
        <ele>57.82</ele>
        <time>2014-07-02T16:46:48Z</time>
      </trkpt>
      <trkpt lat="47.60847" lon="-0.62496">
        <ele>57.82</ele>
        <time>2014-07-02T16:46:50Z</time>
      </trkpt>
      <trkpt lat="47.60851" lon="-0.62507">
        <ele>57.82</ele>
        <time>2014-07-02T16:46:52Z</time>
      </trkpt>
      <trkpt lat="47.60866" lon="-0.62533">
        <ele>56.86</ele>
        <time>2014-07-02T16:46:57Z</time>
      </trkpt>
      <trkpt lat="47.60897" lon="-0.62566">
        <ele>57.82</ele>
        <time>2014-07-02T16:47:04Z</time>
      </trkpt>
      <trkpt lat="47.60937" lon="-0.62615">
        <ele>57.82</ele>
        <time>2014-07-02T16:47:13Z</time>
      </trkpt>
      <trkpt lat="47.60962" lon="-0.62646">
        <ele>58.78</ele>
        <time>2014-07-02T16:47:19Z</time>
      </trkpt>
      <trkpt lat="47.60975" lon="-0.6266">
        <ele>58.78</ele>
        <time>2014-07-02T16:47:22Z</time>
      </trkpt>
      <trkpt lat="47.60985" lon="-0.62676">
        <ele>58.78</ele>
        <time>2014-07-02T16:47:25Z</time>
      </trkpt>
      <trkpt lat="47.61023" lon="-0.62728">
        <ele>59.26</ele>
        <time>2014-07-02T16:47:35Z</time>
      </trkpt>
      <trkpt lat="47.61052" lon="-0.62764">
        <ele>59.26</ele>
        <time>2014-07-02T16:47:42Z</time>
      </trkpt>
      <trkpt lat="47.61077" lon="-0.62795">
        <ele>59.74</ele>
        <time>2014-07-02T16:47:48Z</time>
      </trkpt>
      <trkpt lat="47.61101" lon="-0.62828">
        <ele>59.26</ele>
        <time>2014-07-02T16:47:54Z</time>
      </trkpt>
      <trkpt lat="47.61106" lon="-0.62833">
        <ele>59.26</ele>
        <time>2014-07-02T16:47:55Z</time>
      </trkpt>
      <trkpt lat="47.61118" lon="-0.6285">
        <ele>59.26</ele>
        <time>2014-07-02T16:47:58Z</time>
      </trkpt>
      <trkpt lat="47.61154" lon="-0.62898">
        <ele>59.26</ele>
        <time>2014-07-02T16:48:07Z</time>
      </trkpt>
      <trkpt lat="47.61158" lon="-0.62903">
        <ele>59.26</ele>
        <time>2014-07-02T16:48:08Z</time>
      </trkpt>
      <trkpt lat="47.61201" lon="-0.62956">
        <ele>59.26</ele>
        <time>2014-07-02T16:48:18Z</time>
      </trkpt>
      <trkpt lat="47.61218" lon="-0.62978">
        <ele>58.78</ele>
        <time>2014-07-02T16:48:22Z</time>
      </trkpt>
      <trkpt lat="47.61256" lon="-0.63029">
        <ele>58.78</ele>
        <time>2014-07-02T16:48:31Z</time>
      </trkpt>
      <trkpt lat="47.61265" lon="-0.6304">
        <ele>58.78</ele>
        <time>2014-07-02T16:48:33Z</time>
      </trkpt>
      <trkpt lat="47.61274" lon="-0.63068">
        <ele>58.3</ele>
        <time>2014-07-02T16:48:37Z</time>
      </trkpt>
      <trkpt lat="47.61272" lon="-0.63074">
        <ele>57.82</ele>
        <time>2014-07-02T16:48:38Z</time>
      </trkpt>
      <trkpt lat="47.61245" lon="-0.63127">
        <ele>58.3</ele>
        <time>2014-07-02T16:48:46Z</time>
      </trkpt>
      <trkpt lat="47.61215" lon="-0.63179">
        <ele>58.3</ele>
        <time>2014-07-02T16:48:54Z</time>
      </trkpt>
      <trkpt lat="47.61191" lon="-0.63223">
        <ele>57.82</ele>
        <time>2014-07-02T16:49:01Z</time>
      </trkpt>
      <trkpt lat="47.61184" lon="-0.63234">
        <ele>57.82</ele>
        <time>2014-07-02T16:49:03Z</time>
      </trkpt>
      <trkpt lat="47.61181" lon="-0.63258">
        <ele>57.34</ele>
        <time>2014-07-02T16:49:07Z</time>
      </trkpt>
      <trkpt lat="47.61209" lon="-0.63288">
        <ele>56.86</ele>
        <time>2014-07-02T16:49:15Z</time>
      </trkpt>
      <trkpt lat="47.61218" lon="-0.63297">
        <ele>57.34</ele>
        <time>2014-07-02T16:49:17Z</time>
      </trkpt>
      <trkpt lat="47.61255" lon="-0.63351">
        <ele>57.34</ele>
        <time>2014-07-02T16:49:27Z</time>
      </trkpt>
      <trkpt lat="47.61262" lon="-0.63361">
        <ele>58.3</ele>
        <time>2014-07-02T16:49:29Z</time>
      </trkpt>
      <trkpt lat="47.61287" lon="-0.63391">
        <ele>57.82</ele>
        <time>2014-07-02T16:49:35Z</time>
      </trkpt>
      <trkpt lat="47.61317" lon="-0.63444">
        <ele>57.34</ele>
        <time>2014-07-02T16:49:44Z</time>
      </trkpt>
      <trkpt lat="47.61333" lon="-0.63477">
        <ele>56.86</ele>
        <time>2014-07-02T16:49:49Z</time>
      </trkpt>
      <trkpt lat="47.61349" lon="-0.63493">
        <ele>56.86</ele>
        <time>2014-07-02T16:49:52Z</time>
      </trkpt>
      <trkpt lat="47.61392" lon="-0.63537">
        <ele>57.34</ele>
        <time>2014-07-02T16:50:00Z</time>
      </trkpt>
      <trkpt lat="47.61397" lon="-0.63542">
        <ele>57.34</ele>
        <time>2014-07-02T16:50:01Z</time>
      </trkpt>
      <trkpt lat="47.61416" lon="-0.63561">
        <ele>58.3</ele>
        <time>2014-07-02T16:50:05Z</time>
      </trkpt>
      <trkpt lat="47.61439" lon="-0.63585">
        <ele>58.78</ele>
        <time>2014-07-02T16:50:10Z</time>
      </trkpt>
      <trkpt lat="47.61467" lon="-0.63617">
        <ele>58.78</ele>
        <time>2014-07-02T16:50:18Z</time>
      </trkpt>
      <trkpt lat="47.61484" lon="-0.63638">
        <ele>58.3</ele>
        <time>2014-07-02T16:50:24Z</time>
      </trkpt>
      <trkpt lat="47.61506" lon="-0.63671">
        <ele>58.78</ele>
        <time>2014-07-02T16:50:31Z</time>
      </trkpt>
      <trkpt lat="47.61513" lon="-0.63682">
        <ele>58.78</ele>
        <time>2014-07-02T16:50:33Z</time>
      </trkpt>
      <trkpt lat="47.61528" lon="-0.63718">
        <ele>58.78</ele>
        <time>2014-07-02T16:50:39Z</time>
      </trkpt>
      <trkpt lat="47.61544" lon="-0.63755">
        <ele>59.26</ele>
        <time>2014-07-02T16:50:45Z</time>
      </trkpt>
      <trkpt lat="47.61557" lon="-0.63778">
        <ele>59.26</ele>
        <time>2014-07-02T16:50:49Z</time>
      </trkpt>
      <trkpt lat="47.61578" lon="-0.63816">
        <ele>59.26</ele>
        <time>2014-07-02T16:50:55Z</time>
      </trkpt>
      <trkpt lat="47.61598" lon="-0.6386">
        <ele>59.26</ele>
        <time>2014-07-02T16:51:01Z</time>
      </trkpt>
      <trkpt lat="47.61608" lon="-0.63883">
        <ele>58.78</ele>
        <time>2014-07-02T16:51:04Z</time>
      </trkpt>
      <trkpt lat="47.61629" lon="-0.63915">
        <ele>59.74</ele>
        <time>2014-07-02T16:51:09Z</time>
      </trkpt>
      <trkpt lat="47.61662" lon="-0.63983">
        <ele>59.26</ele>
        <time>2014-07-02T16:51:18Z</time>
      </trkpt>
      <trkpt lat="47.61673" lon="-0.64005">
        <ele>58.3</ele>
        <time>2014-07-02T16:51:21Z</time>
      </trkpt>
      <trkpt lat="47.61706" lon="-0.64051">
        <ele>58.78</ele>
        <time>2014-07-02T16:51:28Z</time>
      </trkpt>
      <trkpt lat="47.61739" lon="-0.6409">
        <ele>57.34</ele>
        <time>2014-07-02T16:51:35Z</time>
      </trkpt>
      <trkpt lat="47.61757" lon="-0.64095">
        <ele>56.37</ele>
        <time>2014-07-02T16:51:39Z</time>
      </trkpt>
      <trkpt lat="47.61765" lon="-0.64086">
        <ele>56.86</ele>
        <time>2014-07-02T16:51:41Z</time>
      </trkpt>
      <trkpt lat="47.61775" lon="-0.6407">
        <ele>56.37</ele>
        <time>2014-07-02T16:51:45Z</time>
      </trkpt>
      <trkpt lat="47.61784" lon="-0.64056">
        <ele>56.37</ele>
        <time>2014-07-02T16:51:48Z</time>
      </trkpt>
      <trkpt lat="47.61796" lon="-0.64021">
        <ele>56.86</ele>
        <time>2014-07-02T16:51:54Z</time>
      </trkpt>
      <trkpt lat="47.61808" lon="-0.63971">
        <ele>57.34</ele>
        <time>2014-07-02T16:52:01Z</time>
      </trkpt>
      <trkpt lat="47.61814" lon="-0.63937">
        <ele>57.34</ele>
        <time>2014-07-02T16:52:06Z</time>
      </trkpt>
      <trkpt lat="47.61819" lon="-0.63916">
        <ele>57.82</ele>
        <time>2014-07-02T16:52:09Z</time>
      </trkpt>
      <trkpt lat="47.61838" lon="-0.63858">
        <ele>57.34</ele>
        <time>2014-07-02T16:52:18Z</time>
      </trkpt>
      <trkpt lat="47.61856" lon="-0.63804">
        <ele>56.86</ele>
        <time>2014-07-02T16:52:25Z</time>
      </trkpt>
      <trkpt lat="47.61877" lon="-0.63746">
        <ele>56.86</ele>
        <time>2014-07-02T16:52:33Z</time>
      </trkpt>
      <trkpt lat="47.61894" lon="-0.63711">
        <ele>56.37</ele>
        <time>2014-07-02T16:52:38Z</time>
      </trkpt>
      <trkpt lat="47.61922" lon="-0.6366">
        <ele>55.89</ele>
        <time>2014-07-02T16:52:46Z</time>
      </trkpt>
      <trkpt lat="47.61946" lon="-0.63619">
        <ele>55.89</ele>
        <time>2014-07-02T16:52:52Z</time>
      </trkpt>
      <trkpt lat="47.61971" lon="-0.636">
        <ele>55.41</ele>
        <time>2014-07-02T16:52:57Z</time>
      </trkpt>
      <trkpt lat="47.61983" lon="-0.63581">
        <ele>56.37</ele>
        <time>2014-07-02T16:53:00Z</time>
      </trkpt>
      <trkpt lat="47.61999" lon="-0.63539">
        <ele>57.34</ele>
        <time>2014-07-02T16:53:07Z</time>
      </trkpt>
      <trkpt lat="47.62005" lon="-0.63506">
        <ele>58.3</ele>
        <time>2014-07-02T16:53:12Z</time>
      </trkpt>
      <trkpt lat="47.62018" lon="-0.63455">
        <ele>59.26</ele>
        <time>2014-07-02T16:53:20Z</time>
      </trkpt>
      <trkpt lat="47.62021" lon="-0.6342">
        <ele>59.74</ele>
        <time>2014-07-02T16:53:25Z</time>
      </trkpt>
      <trkpt lat="47.62029" lon="-0.63373">
        <ele>59.74</ele>
        <time>2014-07-02T16:53:32Z</time>
      </trkpt>
      <trkpt lat="47.62037" lon="-0.6334">
        <ele>59.74</ele>
        <time>2014-07-02T16:53:37Z</time>
      </trkpt>
      <trkpt lat="47.62043" lon="-0.63321">
        <ele>59.74</ele>
        <time>2014-07-02T16:53:40Z</time>
      </trkpt>
      <trkpt lat="47.62052" lon="-0.63293">
        <ele>60.22</ele>
        <time>2014-07-02T16:53:45Z</time>
      </trkpt>
      <trkpt lat="47.62064" lon="-0.63254">
        <ele>61.18</ele>
        <time>2014-07-02T16:53:52Z</time>
      </trkpt>
      <trkpt lat="47.62078" lon="-0.63208">
        <ele>61.66</ele>
        <time>2014-07-02T16:54:00Z</time>
      </trkpt>
      <trkpt lat="47.62094" lon="-0.63162">
        <ele>61.66</ele>
        <time>2014-07-02T16:54:08Z</time>
      </trkpt>
      <trkpt lat="47.62096" lon="-0.63157">
        <ele>61.66</ele>
        <time>2014-07-02T16:54:09Z</time>
      </trkpt>
      <trkpt lat="47.62113" lon="-0.63123">
        <ele>61.66</ele>
        <time>2014-07-02T16:54:16Z</time>
      </trkpt>
      <trkpt lat="47.62134" lon="-0.63088">
        <ele>61.18</ele>
        <time>2014-07-02T16:54:23Z</time>
      </trkpt>
      <trkpt lat="47.6215" lon="-0.63061">
        <ele>61.18</ele>
        <time>2014-07-02T16:54:29Z</time>
      </trkpt>
      <trkpt lat="47.62156" lon="-0.63053">
        <ele>61.18</ele>
        <time>2014-07-02T16:54:31Z</time>
      </trkpt>
      <trkpt lat="47.62189" lon="-0.6303">
        <ele>61.18</ele>
        <time>2014-07-02T16:54:40Z</time>
      </trkpt>
      <trkpt lat="47.62203" lon="-0.63023">
        <ele>60.7</ele>
        <time>2014-07-02T16:54:43Z</time>
      </trkpt>
      <trkpt lat="47.6222" lon="-0.63008">
        <ele>60.7</ele>
        <time>2014-07-02T16:54:47Z</time>
      </trkpt>
      <trkpt lat="47.62238" lon="-0.6299">
        <ele>60.22</ele>
        <time>2014-07-02T16:54:52Z</time>
      </trkpt>
      <trkpt lat="47.62246" lon="-0.63003">
        <ele>60.22</ele>
        <time>2014-07-02T16:54:57Z</time>
      </trkpt>
      <trkpt lat="47.62255" lon="-0.63044">
        <ele>60.22</ele>
        <time>2014-07-02T16:55:05Z</time>
      </trkpt>
      <trkpt lat="47.62265" lon="-0.63101">
        <ele>60.22</ele>
        <time>2014-07-02T16:55:15Z</time>
      </trkpt>
      <trkpt lat="47.6227" lon="-0.63147">
        <ele>59.74</ele>
        <time>2014-07-02T16:55:23Z</time>
      </trkpt>
      <trkpt lat="47.62276" lon="-0.63195">
        <ele>60.22</ele>
        <time>2014-07-02T16:55:31Z</time>
      </trkpt>
      <trkpt lat="47.62287" lon="-0.63271">
        <ele>59.74</ele>
        <time>2014-07-02T16:55:41Z</time>
      </trkpt>
      <trkpt lat="47.62297" lon="-0.63339">
        <ele>59.26</ele>
        <time>2014-07-02T16:55:50Z</time>
      </trkpt>
      <trkpt lat="47.62306" lon="-0.63405">
        <ele>59.26</ele>
        <time>2014-07-02T16:55:59Z</time>
      </trkpt>
      <trkpt lat="47.62321" lon="-0.63493">
        <ele>59.26</ele>
        <time>2014-07-02T16:56:10Z</time>
      </trkpt>
      <trkpt lat="47.62334" lon="-0.63558">
        <ele>58.78</ele>
        <time>2014-07-02T16:56:18Z</time>
      </trkpt>
      <trkpt lat="47.62343" lon="-0.636">
        <ele>58.78</ele>
        <time>2014-07-02T16:56:23Z</time>
      </trkpt>
      <trkpt lat="47.62354" lon="-0.6366">
        <ele>58.78</ele>
        <time>2014-07-02T16:56:31Z</time>
      </trkpt>
      <trkpt lat="47.62365" lon="-0.63716">
        <ele>58.3</ele>
        <time>2014-07-02T16:56:38Z</time>
      </trkpt>
      <trkpt lat="47.62397" lon="-0.63787">
        <ele>58.3</ele>
        <time>2014-07-02T16:56:48Z</time>
      </trkpt>
      <trkpt lat="47.62411" lon="-0.63823">
        <ele>58.3</ele>
        <time>2014-07-02T16:56:53Z</time>
      </trkpt>
      <trkpt lat="47.62415" lon="-0.63838">
        <ele>57.82</ele>
        <time>2014-07-02T16:56:55Z</time>
      </trkpt>
      <trkpt lat="47.6242" lon="-0.63852">
        <ele>57.34</ele>
        <time>2014-07-02T16:56:57Z</time>
      </trkpt>
      <trkpt lat="47.62444" lon="-0.63935">
        <ele>57.34</ele>
        <time>2014-07-02T16:57:08Z</time>
      </trkpt>
      <trkpt lat="47.62457" lon="-0.63971">
        <ele>57.34</ele>
        <time>2014-07-02T16:57:13Z</time>
      </trkpt>
      <trkpt lat="47.62468" lon="-0.63991">
        <ele>57.34</ele>
        <time>2014-07-02T16:57:16Z</time>
      </trkpt>
      <trkpt lat="47.62486" lon="-0.63994">
        <ele>57.34</ele>
        <time>2014-07-02T16:57:20Z</time>
      </trkpt>
      <trkpt lat="47.62491" lon="-0.63991">
        <ele>57.34</ele>
        <time>2014-07-02T16:57:21Z</time>
      </trkpt>
      <trkpt lat="47.62506" lon="-0.63983">
        <ele>57.34</ele>
        <time>2014-07-02T16:57:24Z</time>
      </trkpt>
      <trkpt lat="47.62535" lon="-0.63967">
        <ele>57.34</ele>
        <time>2014-07-02T16:57:30Z</time>
      </trkpt>
      <trkpt lat="47.62585" lon="-0.63946">
        <ele>56.86</ele>
        <time>2014-07-02T16:57:39Z</time>
      </trkpt>
      <trkpt lat="47.62596" lon="-0.63943">
        <ele>56.37</ele>
        <time>2014-07-02T16:57:41Z</time>
      </trkpt>
      <trkpt lat="47.62607" lon="-0.63939">
        <ele>55.89</ele>
        <time>2014-07-02T16:57:43Z</time>
      </trkpt>
      <trkpt lat="47.62626" lon="-0.63924">
        <ele>54.93</ele>
        <time>2014-07-02T16:57:48Z</time>
      </trkpt>
      <trkpt lat="47.62633" lon="-0.63927">
        <ele>53.97</ele>
        <time>2014-07-02T16:57:50Z</time>
      </trkpt>
      <trkpt lat="47.62641" lon="-0.63934">
        <ele>53.49</ele>
        <time>2014-07-02T16:57:52Z</time>
      </trkpt>
      <trkpt lat="47.62649" lon="-0.6394">
        <ele>53.49</ele>
        <time>2014-07-02T16:57:54Z</time>
      </trkpt>
      <trkpt lat="47.62666" lon="-0.63936">
        <ele>53.01</ele>
        <time>2014-07-02T16:57:58Z</time>
      </trkpt>
      <trkpt lat="47.6269" lon="-0.63909">
        <ele>53.01</ele>
        <time>2014-07-02T16:58:04Z</time>
      </trkpt>
      <trkpt lat="47.62704" lon="-0.63898">
        <ele>52.53</ele>
        <time>2014-07-02T16:58:07Z</time>
      </trkpt>
      <trkpt lat="47.62723" lon="-0.63889">
        <ele>53.01</ele>
        <time>2014-07-02T16:58:11Z</time>
      </trkpt>
      <trkpt lat="47.62747" lon="-0.63876">
        <ele>53.49</ele>
        <time>2014-07-02T16:58:16Z</time>
      </trkpt>
      <trkpt lat="47.62784" lon="-0.63847">
        <ele>53.97</ele>
        <time>2014-07-02T16:58:25Z</time>
      </trkpt>
      <trkpt lat="47.62795" lon="-0.63839">
        <ele>53.97</ele>
        <time>2014-07-02T16:58:28Z</time>
      </trkpt>
      <trkpt lat="47.62824" lon="-0.63819">
        <ele>55.41</ele>
        <time>2014-07-02T16:58:36Z</time>
      </trkpt>
      <trkpt lat="47.62846" lon="-0.63805">
        <ele>55.89</ele>
        <time>2014-07-02T16:58:42Z</time>
      </trkpt>
      <trkpt lat="47.62863" lon="-0.63792">
        <ele>56.37</ele>
        <time>2014-07-02T16:58:47Z</time>
      </trkpt>
      <trkpt lat="47.62873" lon="-0.63791">
        <ele>56.37</ele>
        <time>2014-07-02T16:58:52Z</time>
      </trkpt>
      <trkpt lat="47.62874" lon="-0.63791">
        <ele>56.37</ele>
        <time>2014-07-02T16:59:00Z</time>
      </trkpt>
      <trkpt lat="47.62879" lon="-0.6379">
        <ele>56.37</ele>
        <time>2014-07-02T16:59:06Z</time>
      </trkpt>
      <trkpt lat="47.62895" lon="-0.63784">
        <ele>56.86</ele>
        <time>2014-07-02T16:59:13Z</time>
      </trkpt>
      <trkpt lat="47.62907" lon="-0.63782">
        <ele>57.34</ele>
        <time>2014-07-02T16:59:17Z</time>
      </trkpt>
      <trkpt lat="47.62926" lon="-0.63778">
        <ele>57.82</ele>
        <time>2014-07-02T16:59:21Z</time>
      </trkpt>
      <trkpt lat="47.62944" lon="-0.63781">
        <ele>57.34</ele>
        <time>2014-07-02T16:59:26Z</time>
      </trkpt>
      <trkpt lat="47.62965" lon="-0.63798">
        <ele>57.82</ele>
        <time>2014-07-02T16:59:33Z</time>
      </trkpt>
      <trkpt lat="47.62985" lon="-0.63817">
        <ele>58.3</ele>
        <time>2014-07-02T16:59:39Z</time>
      </trkpt>
      <trkpt lat="47.6302" lon="-0.6383">
        <ele>58.3</ele>
        <time>2014-07-02T16:59:48Z</time>
      </trkpt>
      <trkpt lat="47.63052" lon="-0.6384">
        <ele>58.78</ele>
        <time>2014-07-02T16:59:55Z</time>
      </trkpt>
      <trkpt lat="47.63095" lon="-0.63849">
        <ele>58.3</ele>
        <time>2014-07-02T17:00:04Z</time>
      </trkpt>
      <trkpt lat="47.63099" lon="-0.6385">
        <ele>58.3</ele>
        <time>2014-07-02T17:00:05Z</time>
      </trkpt>
      <trkpt lat="47.63121" lon="-0.63872">
        <ele>58.3</ele>
        <time>2014-07-02T17:00:11Z</time>
      </trkpt>
      <trkpt lat="47.63125" lon="-0.63883">
        <ele>58.78</ele>
        <time>2014-07-02T17:00:13Z</time>
      </trkpt>
      <trkpt lat="47.63141" lon="-0.63938">
        <ele>58.3</ele>
        <time>2014-07-02T17:00:21Z</time>
      </trkpt>
      <trkpt lat="47.63149" lon="-0.64003">
        <ele>57.82</ele>
        <time>2014-07-02T17:00:30Z</time>
      </trkpt>
      <trkpt lat="47.6315" lon="-0.64064">
        <ele>57.82</ele>
        <time>2014-07-02T17:00:38Z</time>
      </trkpt>
      <trkpt lat="47.6315" lon="-0.64076">
        <ele>57.34</ele>
        <time>2014-07-02T17:00:42Z</time>
      </trkpt>
      <trkpt lat="47.63151" lon="-0.64076">
        <ele>57.34</ele>
        <time>2014-07-02T17:00:49Z</time>
      </trkpt>
      <trkpt lat="47.63151" lon="-0.64076">
        <ele>57.34</ele>
        <time>2014-07-02T17:00:54Z</time>
      </trkpt>
      <trkpt lat="47.63162" lon="-0.64076">
        <ele>57.34</ele>
        <time>2014-07-02T17:00:59Z</time>
      </trkpt>
      <trkpt lat="47.63196" lon="-0.64072">
        <ele>58.3</ele>
        <time>2014-07-02T17:01:07Z</time>
      </trkpt>
      <trkpt lat="47.63229" lon="-0.64067">
        <ele>58.3</ele>
        <time>2014-07-02T17:01:14Z</time>
      </trkpt>
      <trkpt lat="47.63261" lon="-0.64065">
        <ele>57.82</ele>
        <time>2014-07-02T17:01:20Z</time>
      </trkpt>
      <trkpt lat="47.63301" lon="-0.64061">
        <ele>57.82</ele>
        <time>2014-07-02T17:01:27Z</time>
      </trkpt>
      <trkpt lat="47.63319" lon="-0.64046">
        <ele>57.82</ele>
        <time>2014-07-02T17:01:31Z</time>
      </trkpt>
      <trkpt lat="47.63328" lon="-0.64027">
        <ele>58.3</ele>
        <time>2014-07-02T17:01:34Z</time>
      </trkpt>
      <trkpt lat="47.63336" lon="-0.6401">
        <ele>58.3</ele>
        <time>2014-07-02T17:01:37Z</time>
      </trkpt>
      <trkpt lat="47.63353" lon="-0.63964">
        <ele>58.3</ele>
        <time>2014-07-02T17:01:44Z</time>
      </trkpt>
      <trkpt lat="47.63364" lon="-0.63928">
        <ele>57.82</ele>
        <time>2014-07-02T17:01:50Z</time>
      </trkpt>
      <trkpt lat="47.63366" lon="-0.63923">
        <ele>58.3</ele>
        <time>2014-07-02T17:01:51Z</time>
      </trkpt>
      <trkpt lat="47.63379" lon="-0.63877">
        <ele>58.3</ele>
        <time>2014-07-02T17:01:58Z</time>
      </trkpt>
      <trkpt lat="47.63385" lon="-0.63856">
        <ele>58.78</ele>
        <time>2014-07-02T17:02:01Z</time>
      </trkpt>
      <trkpt lat="47.63397" lon="-0.63819">
        <ele>58.78</ele>
        <time>2014-07-02T17:02:07Z</time>
      </trkpt>
      <trkpt lat="47.63409" lon="-0.63777">
        <ele>59.26</ele>
        <time>2014-07-02T17:02:13Z</time>
      </trkpt>
      <trkpt lat="47.63422" lon="-0.6373">
        <ele>59.74</ele>
        <time>2014-07-02T17:02:19Z</time>
      </trkpt>
      <trkpt lat="47.63436" lon="-0.63672">
        <ele>60.7</ele>
        <time>2014-07-02T17:02:27Z</time>
      </trkpt>
      <trkpt lat="47.63449" lon="-0.6363">
        <ele>60.22</ele>
        <time>2014-07-02T17:02:33Z</time>
      </trkpt>
      <trkpt lat="47.6346" lon="-0.63603">
        <ele>60.7</ele>
        <time>2014-07-02T17:02:37Z</time>
      </trkpt>
      <trkpt lat="47.63465" lon="-0.63566">
        <ele>60.7</ele>
        <time>2014-07-02T17:02:42Z</time>
      </trkpt>
      <trkpt lat="47.63465" lon="-0.63534">
        <ele>60.7</ele>
        <time>2014-07-02T17:02:46Z</time>
      </trkpt>
      <trkpt lat="47.63476" lon="-0.63501">
        <ele>61.18</ele>
        <time>2014-07-02T17:02:51Z</time>
      </trkpt>
      <trkpt lat="47.63482" lon="-0.6349">
        <ele>61.18</ele>
        <time>2014-07-02T17:02:53Z</time>
      </trkpt>
      <trkpt lat="47.63488" lon="-0.6348">
        <ele>60.7</ele>
        <time>2014-07-02T17:02:55Z</time>
      </trkpt>
      <trkpt lat="47.63497" lon="-0.6346">
        <ele>61.18</ele>
        <time>2014-07-02T17:02:58Z</time>
      </trkpt>
      <trkpt lat="47.63513" lon="-0.6341">
        <ele>61.18</ele>
        <time>2014-07-02T17:03:05Z</time>
      </trkpt>
      <trkpt lat="47.63518" lon="-0.63394">
        <ele>60.7</ele>
        <time>2014-07-02T17:03:10Z</time>
      </trkpt>
      <trkpt lat="47.63519" lon="-0.63393">
        <ele>60.7</ele>
        <time>2014-07-02T17:03:12Z</time>
      </trkpt>
      <trkpt lat="47.63526" lon="-0.63375">
        <ele>60.7</ele>
        <time>2014-07-02T17:03:17Z</time>
      </trkpt>
      <trkpt lat="47.63528" lon="-0.6337">
        <ele>61.18</ele>
        <time>2014-07-02T17:03:18Z</time>
      </trkpt>
      <trkpt lat="47.63543" lon="-0.63323">
        <ele>61.18</ele>
        <time>2014-07-02T17:03:25Z</time>
      </trkpt>
      <trkpt lat="47.63561" lon="-0.6326">
        <ele>61.18</ele>
        <time>2014-07-02T17:03:33Z</time>
      </trkpt>
      <trkpt lat="47.63567" lon="-0.63222">
        <ele>61.66</ele>
        <time>2014-07-02T17:03:38Z</time>
      </trkpt>
      <trkpt lat="47.63573" lon="-0.63182">
        <ele>61.18</ele>
        <time>2014-07-02T17:03:43Z</time>
      </trkpt>
      <trkpt lat="47.63571" lon="-0.63158">
        <ele>60.7</ele>
        <time>2014-07-02T17:03:46Z</time>
      </trkpt>
      <trkpt lat="47.63559" lon="-0.63106">
        <ele>60.22</ele>
        <time>2014-07-02T17:03:53Z</time>
      </trkpt>
      <trkpt lat="47.63552" lon="-0.63077">
        <ele>61.18</ele>
        <time>2014-07-02T17:03:57Z</time>
      </trkpt>
      <trkpt lat="47.63532" lon="-0.63007">
        <ele>61.18</ele>
        <time>2014-07-02T17:04:07Z</time>
      </trkpt>
      <trkpt lat="47.63521" lon="-0.62958">
        <ele>61.66</ele>
        <time>2014-07-02T17:04:14Z</time>
      </trkpt>
      <trkpt lat="47.63505" lon="-0.62887">
        <ele>61.66</ele>
        <time>2014-07-02T17:04:23Z</time>
      </trkpt>
      <trkpt lat="47.63486" lon="-0.62817">
        <ele>61.66</ele>
        <time>2014-07-02T17:04:32Z</time>
      </trkpt>
      <trkpt lat="47.6347" lon="-0.62755">
        <ele>61.66</ele>
        <time>2014-07-02T17:04:40Z</time>
      </trkpt>
      <trkpt lat="47.63454" lon="-0.62693">
        <ele>61.18</ele>
        <time>2014-07-02T17:04:48Z</time>
      </trkpt>
      <trkpt lat="47.63448" lon="-0.62669">
        <ele>61.66</ele>
        <time>2014-07-02T17:04:52Z</time>
      </trkpt>
      <trkpt lat="47.63442" lon="-0.62634">
        <ele>61.18</ele>
        <time>2014-07-02T17:04:57Z</time>
      </trkpt>
      <trkpt lat="47.63445" lon="-0.62617">
        <ele>61.18</ele>
        <time>2014-07-02T17:04:59Z</time>
      </trkpt>
      <trkpt lat="47.63449" lon="-0.6259">
        <ele>61.18</ele>
        <time>2014-07-02T17:05:02Z</time>
      </trkpt>
      <trkpt lat="47.63463" lon="-0.62512">
        <ele>61.18</ele>
        <time>2014-07-02T17:05:11Z</time>
      </trkpt>
      <trkpt lat="47.63463" lon="-0.62457">
        <ele>60.7</ele>
        <time>2014-07-02T17:05:17Z</time>
      </trkpt>
      <trkpt lat="47.63456" lon="-0.624">
        <ele>60.22</ele>
        <time>2014-07-02T17:05:23Z</time>
      </trkpt>
      <trkpt lat="47.63441" lon="-0.62337">
        <ele>60.7</ele>
        <time>2014-07-02T17:05:30Z</time>
      </trkpt>
      <trkpt lat="47.63437" lon="-0.62319">
        <ele>60.22</ele>
        <time>2014-07-02T17:05:32Z</time>
      </trkpt>
      <trkpt lat="47.63432" lon="-0.62284">
        <ele>60.22</ele>
        <time>2014-07-02T17:05:36Z</time>
      </trkpt>
      <trkpt lat="47.63427" lon="-0.62259">
        <ele>59.26</ele>
        <time>2014-07-02T17:05:39Z</time>
      </trkpt>
      <trkpt lat="47.63427" lon="-0.62234">
        <ele>59.26</ele>
        <time>2014-07-02T17:05:43Z</time>
      </trkpt>
      <trkpt lat="47.63429" lon="-0.62227">
        <ele>58.78</ele>
        <time>2014-07-02T17:05:45Z</time>
      </trkpt>
      <trkpt lat="47.63447" lon="-0.62221">
        <ele>59.26</ele>
        <time>2014-07-02T17:05:51Z</time>
      </trkpt>
      <trkpt lat="47.63457" lon="-0.6222">
        <ele>59.26</ele>
        <time>2014-07-02T17:05:53Z</time>
      </trkpt>
      <trkpt lat="47.63494" lon="-0.62209">
        <ele>59.26</ele>
        <time>2014-07-02T17:06:00Z</time>
      </trkpt>
      <trkpt lat="47.63514" lon="-0.62179">
        <ele>57.82</ele>
        <time>2014-07-02T17:06:05Z</time>
      </trkpt>
      <trkpt lat="47.63519" lon="-0.62142">
        <ele>57.82</ele>
        <time>2014-07-02T17:06:09Z</time>
      </trkpt>
      <trkpt lat="47.6352" lon="-0.62067">
        <ele>57.34</ele>
        <time>2014-07-02T17:06:16Z</time>
      </trkpt>
      <trkpt lat="47.63518" lon="-0.62003">
        <ele>55.89</ele>
        <time>2014-07-02T17:06:22Z</time>
      </trkpt>
      <trkpt lat="47.63504" lon="-0.61972">
        <ele>55.41</ele>
        <time>2014-07-02T17:06:26Z</time>
      </trkpt>
      <trkpt lat="47.63459" lon="-0.61939">
        <ele>55.89</ele>
        <time>2014-07-02T17:06:34Z</time>
      </trkpt>
      <trkpt lat="47.63444" lon="-0.61905">
        <ele>55.89</ele>
        <time>2014-07-02T17:06:38Z</time>
      </trkpt>
      <trkpt lat="47.63438" lon="-0.61844">
        <ele>54.93</ele>
        <time>2014-07-02T17:06:44Z</time>
      </trkpt>
      <trkpt lat="47.63437" lon="-0.61824">
        <ele>54.45</ele>
        <time>2014-07-02T17:06:46Z</time>
      </trkpt>
      <trkpt lat="47.63427" lon="-0.61786">
        <ele>53.49</ele>
        <time>2014-07-02T17:06:50Z</time>
      </trkpt>
      <trkpt lat="47.63412" lon="-0.61753">
        <ele>53.49</ele>
        <time>2014-07-02T17:06:54Z</time>
      </trkpt>
      <trkpt lat="47.63408" lon="-0.61705">
        <ele>52.53</ele>
        <time>2014-07-02T17:06:59Z</time>
      </trkpt>
      <trkpt lat="47.63408" lon="-0.61695">
        <ele>52.05</ele>
        <time>2014-07-02T17:07:00Z</time>
      </trkpt>
      <trkpt lat="47.63405" lon="-0.61663">
        <ele>51.09</ele>
        <time>2014-07-02T17:07:03Z</time>
      </trkpt>
      <trkpt lat="47.63404" lon="-0.61653">
        <ele>50.61</ele>
        <time>2014-07-02T17:07:04Z</time>
      </trkpt>
      <trkpt lat="47.63398" lon="-0.61634">
        <ele>50.13</ele>
        <time>2014-07-02T17:07:06Z</time>
      </trkpt>
      <trkpt lat="47.63389" lon="-0.6161">
        <ele>49.65</ele>
        <time>2014-07-02T17:07:09Z</time>
      </trkpt>
      <trkpt lat="47.6338" lon="-0.61588">
        <ele>49.65</ele>
        <time>2014-07-02T17:07:12Z</time>
      </trkpt>
      <trkpt lat="47.63377" lon="-0.61573">
        <ele>50.13</ele>
        <time>2014-07-02T17:07:14Z</time>
      </trkpt>
      <trkpt lat="47.6337" lon="-0.61524">
        <ele>52.05</ele>
        <time>2014-07-02T17:07:20Z</time>
      </trkpt>
      <trkpt lat="47.63354" lon="-0.61483">
        <ele>52.53</ele>
        <time>2014-07-02T17:07:25Z</time>
      </trkpt>
      <trkpt lat="47.63338" lon="-0.61431">
        <ele>52.53</ele>
        <time>2014-07-02T17:07:31Z</time>
      </trkpt>
      <trkpt lat="47.63325" lon="-0.61397">
        <ele>52.53</ele>
        <time>2014-07-02T17:07:35Z</time>
      </trkpt>
      <trkpt lat="47.63305" lon="-0.61346">
        <ele>52.05</ele>
        <time>2014-07-02T17:07:42Z</time>
      </trkpt>
      <trkpt lat="47.63293" lon="-0.61305">
        <ele>53.01</ele>
        <time>2014-07-02T17:07:47Z</time>
      </trkpt>
      <trkpt lat="47.63285" lon="-0.61274">
        <ele>52.53</ele>
        <time>2014-07-02T17:07:51Z</time>
      </trkpt>
      <trkpt lat="47.63276" lon="-0.61246">
        <ele>52.53</ele>
        <time>2014-07-02T17:07:55Z</time>
      </trkpt>
      <trkpt lat="47.63256" lon="-0.61189">
        <ele>52.53</ele>
        <time>2014-07-02T17:08:03Z</time>
      </trkpt>
      <trkpt lat="47.63251" lon="-0.61169">
        <ele>52.05</ele>
        <time>2014-07-02T17:08:06Z</time>
      </trkpt>
      <trkpt lat="47.63261" lon="-0.61152">
        <ele>51.57</ele>
        <time>2014-07-02T17:08:11Z</time>
      </trkpt>
      <trkpt lat="47.63289" lon="-0.61139">
        <ele>51.09</ele>
        <time>2014-07-02T17:08:18Z</time>
      </trkpt>
      <trkpt lat="47.63333" lon="-0.61115">
        <ele>48.2</ele>
        <time>2014-07-02T17:08:26Z</time>
      </trkpt>
      <trkpt lat="47.63368" lon="-0.61097">
        <ele>46.76</ele>
        <time>2014-07-02T17:08:31Z</time>
      </trkpt>
      <trkpt lat="47.63382" lon="-0.61092">
        <ele>46.28</ele>
        <time>2014-07-02T17:08:33Z</time>
      </trkpt>
      <trkpt lat="47.63429" lon="-0.61091">
        <ele>46.28</ele>
        <time>2014-07-02T17:08:40Z</time>
      </trkpt>
      <trkpt lat="47.63474" lon="-0.61096">
        <ele>46.76</ele>
        <time>2014-07-02T17:08:47Z</time>
      </trkpt>
      <trkpt lat="47.63481" lon="-0.61097">
        <ele>46.76</ele>
        <time>2014-07-02T17:08:48Z</time>
      </trkpt>
      <trkpt lat="47.63499" lon="-0.61099">
        <ele>47.72</ele>
        <time>2014-07-02T17:08:51Z</time>
      </trkpt>
      <trkpt lat="47.63519" lon="-0.611">
        <ele>48.2</ele>
        <time>2014-07-02T17:08:54Z</time>
      </trkpt>
      <trkpt lat="47.63545" lon="-0.61114">
        <ele>49.65</ele>
        <time>2014-07-02T17:08:58Z</time>
      </trkpt>
      <trkpt lat="47.63581" lon="-0.6115">
        <ele>51.09</ele>
        <time>2014-07-02T17:09:05Z</time>
      </trkpt>
      <trkpt lat="47.6362" lon="-0.61183">
        <ele>52.05</ele>
        <time>2014-07-02T17:09:14Z</time>
      </trkpt>
      <trkpt lat="47.63629" lon="-0.6119">
        <ele>52.05</ele>
        <time>2014-07-02T17:09:16Z</time>
      </trkpt>
      <trkpt lat="47.63669" lon="-0.6122">
        <ele>53.01</ele>
        <time>2014-07-02T17:09:25Z</time>
      </trkpt>
      <trkpt lat="47.63678" lon="-0.61226">
        <ele>53.01</ele>
        <time>2014-07-02T17:09:27Z</time>
      </trkpt>
      <trkpt lat="47.63698" lon="-0.61233">
        <ele>52.53</ele>
        <time>2014-07-02T17:09:31Z</time>
      </trkpt>
      <trkpt lat="47.63707" lon="-0.61235">
        <ele>53.01</ele>
        <time>2014-07-02T17:09:33Z</time>
      </trkpt>
      <trkpt lat="47.63727" lon="-0.61231">
        <ele>52.53</ele>
        <time>2014-07-02T17:09:37Z</time>
      </trkpt>
      <trkpt lat="47.63737" lon="-0.61227">
        <ele>52.53</ele>
        <time>2014-07-02T17:09:39Z</time>
      </trkpt>
      <trkpt lat="47.63756" lon="-0.61214">
        <ele>53.01</ele>
        <time>2014-07-02T17:09:44Z</time>
      </trkpt>
      <trkpt lat="47.63764" lon="-0.6121">
        <ele>52.53</ele>
        <time>2014-07-02T17:09:46Z</time>
      </trkpt>
      <trkpt lat="47.6378" lon="-0.61202">
        <ele>52.53</ele>
        <time>2014-07-02T17:09:50Z</time>
      </trkpt>
      <trkpt lat="47.63793" lon="-0.61197">
        <ele>52.53</ele>
        <time>2014-07-02T17:09:53Z</time>
      </trkpt>
      <trkpt lat="47.63814" lon="-0.61202">
        <ele>52.05</ele>
        <time>2014-07-02T17:09:58Z</time>
      </trkpt>
      <trkpt lat="47.63822" lon="-0.61224">
        <ele>51.57</ele>
        <time>2014-07-02T17:10:02Z</time>
      </trkpt>
      <trkpt lat="47.63826" lon="-0.61242">
        <ele>52.05</ele>
        <time>2014-07-02T17:10:05Z</time>
      </trkpt>
      <trkpt lat="47.63833" lon="-0.61271">
        <ele>52.05</ele>
        <time>2014-07-02T17:10:11Z</time>
      </trkpt>
      <trkpt lat="47.63815" lon="-0.61285">
        <ele>52.05</ele>
        <time>2014-07-02T17:10:18Z</time>
      </trkpt>
      <trkpt lat="47.63793" lon="-0.61296">
        <ele>53.01</ele>
        <time>2014-07-02T17:10:24Z</time>
      </trkpt>
      <trkpt lat="47.63783" lon="-0.61301">
        <ele>53.49</ele>
        <time>2014-07-02T17:10:27Z</time>
      </trkpt>
      <trkpt lat="47.63786" lon="-0.61294">
        <ele>53.49</ele>
        <time>2014-07-02T17:10:32Z</time>
      </trkpt>
      <trkpt lat="47.63789" lon="-0.61294">
        <ele>52.53</ele>
        <time>2014-07-02T17:10:33Z</time>
      </trkpt>
      <trkpt lat="47.63799" lon="-0.61291">
        <ele>53.01</ele>
        <time>2014-07-02T17:10:36Z</time>
      </trkpt>
      <trkpt lat="47.6381" lon="-0.61305">
        <ele>52.53</ele>
        <time>2014-07-02T17:10:40Z</time>
      </trkpt>
      <trkpt lat="47.63815" lon="-0.61347">
        <ele>53.97</ele>
        <time>2014-07-02T17:10:46Z</time>
      </trkpt>
      <trkpt lat="47.63826" lon="-0.61392">
        <ele>54.45</ele>
        <time>2014-07-02T17:10:52Z</time>
      </trkpt>
      <trkpt lat="47.63837" lon="-0.61451">
        <ele>54.93</ele>
        <time>2014-07-02T17:11:00Z</time>
      </trkpt>
      <trkpt lat="47.63838" lon="-0.61458">
        <ele>54.93</ele>
        <time>2014-07-02T17:11:01Z</time>
      </trkpt>
      <trkpt lat="47.63843" lon="-0.6148">
        <ele>55.41</ele>
        <time>2014-07-02T17:11:04Z</time>
      </trkpt>
      <trkpt lat="47.63851" lon="-0.61499">
        <ele>55.41</ele>
        <time>2014-07-02T17:11:07Z</time>
      </trkpt>
      <trkpt lat="47.63866" lon="-0.6152">
        <ele>55.41</ele>
        <time>2014-07-02T17:11:11Z</time>
      </trkpt>
      <trkpt lat="47.63874" lon="-0.61544">
        <ele>55.41</ele>
        <time>2014-07-02T17:11:16Z</time>
      </trkpt>
      <trkpt lat="47.63874" lon="-0.6155">
        <ele>55.41</ele>
        <time>2014-07-02T17:11:17Z</time>
      </trkpt>
      <trkpt lat="47.63882" lon="-0.61588">
        <ele>56.37</ele>
        <time>2014-07-02T17:11:24Z</time>
      </trkpt>
      <trkpt lat="47.63894" lon="-0.61626">
        <ele>56.86</ele>
        <time>2014-07-02T17:11:31Z</time>
      </trkpt>
      <trkpt lat="47.63906" lon="-0.61663">
        <ele>57.34</ele>
        <time>2014-07-02T17:11:37Z</time>
      </trkpt>
      <trkpt lat="47.63907" lon="-0.61713">
        <ele>56.37</ele>
        <time>2014-07-02T17:11:43Z</time>
      </trkpt>
      <trkpt lat="47.63909" lon="-0.6173">
        <ele>56.37</ele>
        <time>2014-07-02T17:11:45Z</time>
      </trkpt>
      <trkpt lat="47.63919" lon="-0.61744">
        <ele>56.37</ele>
        <time>2014-07-02T17:11:49Z</time>
      </trkpt>
      <trkpt lat="47.63927" lon="-0.61742">
        <ele>56.86</ele>
        <time>2014-07-02T17:11:51Z</time>
      </trkpt>
      <trkpt lat="47.63948" lon="-0.61752">
        <ele>56.86</ele>
        <time>2014-07-02T17:11:56Z</time>
      </trkpt>
      <trkpt lat="47.63953" lon="-0.61764">
        <ele>56.86</ele>
        <time>2014-07-02T17:11:58Z</time>
      </trkpt>
      <trkpt lat="47.63966" lon="-0.61791">
        <ele>57.34</ele>
        <time>2014-07-02T17:12:02Z</time>
      </trkpt>
      <trkpt lat="47.63988" lon="-0.61834">
        <ele>56.37</ele>
        <time>2014-07-02T17:12:08Z</time>
      </trkpt>
      <trkpt lat="47.64002" lon="-0.61842">
        <ele>56.37</ele>
        <time>2014-07-02T17:12:12Z</time>
      </trkpt>
      <trkpt lat="47.64009" lon="-0.61842">
        <ele>56.86</ele>
        <time>2014-07-02T17:12:14Z</time>
      </trkpt>
      <trkpt lat="47.64032" lon="-0.61851">
        <ele>56.86</ele>
        <time>2014-07-02T17:12:19Z</time>
      </trkpt>
      <trkpt lat="47.64061" lon="-0.61864">
        <ele>57.34</ele>
        <time>2014-07-02T17:12:25Z</time>
      </trkpt>
      <trkpt lat="47.6407" lon="-0.6187">
        <ele>57.34</ele>
        <time>2014-07-02T17:12:27Z</time>
      </trkpt>
      <trkpt lat="47.64088" lon="-0.6187">
        <ele>57.82</ele>
        <time>2014-07-02T17:12:31Z</time>
      </trkpt>
      <trkpt lat="47.64092" lon="-0.61867">
        <ele>57.34</ele>
        <time>2014-07-02T17:12:32Z</time>
      </trkpt>
      <trkpt lat="47.64131" lon="-0.6184">
        <ele>57.34</ele>
        <time>2014-07-02T17:12:41Z</time>
      </trkpt>
      <trkpt lat="47.64163" lon="-0.61816">
        <ele>57.82</ele>
        <time>2014-07-02T17:12:49Z</time>
      </trkpt>
      <trkpt lat="47.64192" lon="-0.61798">
        <ele>57.82</ele>
        <time>2014-07-02T17:12:58Z</time>
      </trkpt>
      <trkpt lat="47.64204" lon="-0.61781">
        <ele>58.3</ele>
        <time>2014-07-02T17:13:03Z</time>
      </trkpt>
      <trkpt lat="47.64211" lon="-0.61753">
        <ele>58.3</ele>
        <time>2014-07-02T17:13:08Z</time>
      </trkpt>
      <trkpt lat="47.64218" lon="-0.6173">
        <ele>58.3</ele>
        <time>2014-07-02T17:13:12Z</time>
      </trkpt>
      <trkpt lat="47.64248" lon="-0.61697">
        <ele>57.82</ele>
        <time>2014-07-02T17:13:19Z</time>
      </trkpt>
      <trkpt lat="47.64253" lon="-0.61693">
        <ele>58.3</ele>
        <time>2014-07-02T17:13:20Z</time>
      </trkpt>
      <trkpt lat="47.64258" lon="-0.6169">
        <ele>58.3</ele>
        <time>2014-07-02T17:13:21Z</time>
      </trkpt>
      <trkpt lat="47.64295" lon="-0.61668">
        <ele>57.82</ele>
        <time>2014-07-02T17:13:29Z</time>
      </trkpt>
      <trkpt lat="47.6433" lon="-0.61649">
        <ele>58.78</ele>
        <time>2014-07-02T17:13:37Z</time>
      </trkpt>
      <trkpt lat="47.64339" lon="-0.61642">
        <ele>58.3</ele>
        <time>2014-07-02T17:13:39Z</time>
      </trkpt>
      <trkpt lat="47.64348" lon="-0.61637">
        <ele>58.78</ele>
        <time>2014-07-02T17:13:41Z</time>
      </trkpt>
      <trkpt lat="47.64353" lon="-0.61634">
        <ele>58.3</ele>
        <time>2014-07-02T17:13:42Z</time>
      </trkpt>
      <trkpt lat="47.64392" lon="-0.61607">
        <ele>57.82</ele>
        <time>2014-07-02T17:13:50Z</time>
      </trkpt>
      <trkpt lat="47.64423" lon="-0.61586">
        <ele>58.3</ele>
        <time>2014-07-02T17:13:56Z</time>
      </trkpt>
      <trkpt lat="47.6446" lon="-0.6156">
        <ele>58.78</ele>
        <time>2014-07-02T17:14:03Z</time>
      </trkpt>
      <trkpt lat="47.64501" lon="-0.61531">
        <ele>59.26</ele>
        <time>2014-07-02T17:14:10Z</time>
      </trkpt>
      <trkpt lat="47.64518" lon="-0.61521">
        <ele>59.26</ele>
        <time>2014-07-02T17:14:13Z</time>
      </trkpt>
      <trkpt lat="47.64524" lon="-0.6152">
        <ele>59.26</ele>
        <time>2014-07-02T17:14:14Z</time>
      </trkpt>
      <trkpt lat="47.64537" lon="-0.6152">
        <ele>59.26</ele>
        <time>2014-07-02T17:14:16Z</time>
      </trkpt>
      <trkpt lat="47.64583" lon="-0.61533">
        <ele>58.78</ele>
        <time>2014-07-02T17:14:24Z</time>
      </trkpt>
      <trkpt lat="47.64625" lon="-0.61547">
        <ele>58.78</ele>
        <time>2014-07-02T17:14:31Z</time>
      </trkpt>
      <trkpt lat="47.6464" lon="-0.61552">
        <ele>58.78</ele>
        <time>2014-07-02T17:14:34Z</time>
      </trkpt>
      <trkpt lat="47.64652" lon="-0.61538">
        <ele>58.78</ele>
        <time>2014-07-02T17:14:38Z</time>
      </trkpt>
      <trkpt lat="47.64669" lon="-0.61479">
        <ele>58.78</ele>
        <time>2014-07-02T17:14:47Z</time>
      </trkpt>
      <trkpt lat="47.64685" lon="-0.61412">
        <ele>59.26</ele>
        <time>2014-07-02T17:14:56Z</time>
      </trkpt>
      <trkpt lat="47.64691" lon="-0.6139">
        <ele>58.78</ele>
        <time>2014-07-02T17:14:59Z</time>
      </trkpt>
      <trkpt lat="47.64696" lon="-0.61377">
        <ele>59.26</ele>
        <time>2014-07-02T17:15:01Z</time>
      </trkpt>
      <trkpt lat="47.64702" lon="-0.61345">
        <ele>58.78</ele>
        <time>2014-07-02T17:15:06Z</time>
      </trkpt>
      <trkpt lat="47.64697" lon="-0.61334">
        <ele>58.78</ele>
        <time>2014-07-02T17:15:08Z</time>
      </trkpt>
      <trkpt lat="47.64674" lon="-0.61283">
        <ele>59.26</ele>
        <time>2014-07-02T17:15:16Z</time>
      </trkpt>
      <trkpt lat="47.64649" lon="-0.61225">
        <ele>59.26</ele>
        <time>2014-07-02T17:15:24Z</time>
      </trkpt>
      <trkpt lat="47.64619" lon="-0.61159">
        <ele>59.26</ele>
        <time>2014-07-02T17:15:33Z</time>
      </trkpt>
      <trkpt lat="47.64604" lon="-0.61132">
        <ele>59.26</ele>
        <time>2014-07-02T17:15:37Z</time>
      </trkpt>
      <trkpt lat="47.64603" lon="-0.6111">
        <ele>58.3</ele>
        <time>2014-07-02T17:15:41Z</time>
      </trkpt>
      <trkpt lat="47.64605" lon="-0.61104">
        <ele>58.78</ele>
        <time>2014-07-02T17:15:42Z</time>
      </trkpt>
      <trkpt lat="47.64605" lon="-0.61097">
        <ele>58.3</ele>
        <time>2014-07-02T17:15:43Z</time>
      </trkpt>
      <trkpt lat="47.64605" lon="-0.6109">
        <ele>58.78</ele>
        <time>2014-07-02T17:15:44Z</time>
      </trkpt>
      <trkpt lat="47.64595" lon="-0.61049">
        <ele>57.82</ele>
        <time>2014-07-02T17:15:49Z</time>
      </trkpt>
      <trkpt lat="47.64576" lon="-0.60973">
        <ele>57.82</ele>
        <time>2014-07-02T17:15:57Z</time>
      </trkpt>
      <trkpt lat="47.64573" lon="-0.60963">
        <ele>57.82</ele>
        <time>2014-07-02T17:15:58Z</time>
      </trkpt>
      <trkpt lat="47.6454" lon="-0.60876">
        <ele>56.37</ele>
        <time>2014-07-02T17:16:07Z</time>
      </trkpt>
      <trkpt lat="47.64515" lon="-0.60826">
        <ele>55.89</ele>
        <time>2014-07-02T17:16:13Z</time>
      </trkpt>
      <trkpt lat="47.64494" lon="-0.60777">
        <ele>55.41</ele>
        <time>2014-07-02T17:16:19Z</time>
      </trkpt>
      <trkpt lat="47.64491" lon="-0.60768">
        <ele>55.41</ele>
        <time>2014-07-02T17:16:20Z</time>
      </trkpt>
      <trkpt lat="47.64484" lon="-0.60751">
        <ele>55.41</ele>
        <time>2014-07-02T17:16:22Z</time>
      </trkpt>
      <trkpt lat="47.64476" lon="-0.60735">
        <ele>54.93</ele>
        <time>2014-07-02T17:16:24Z</time>
      </trkpt>
      <trkpt lat="47.64451" lon="-0.60691">
        <ele>54.45</ele>
        <time>2014-07-02T17:16:30Z</time>
      </trkpt>
      <trkpt lat="47.64444" lon="-0.60676">
        <ele>54.45</ele>
        <time>2014-07-02T17:16:32Z</time>
      </trkpt>
      <trkpt lat="47.64439" lon="-0.60669">
        <ele>54.45</ele>
        <time>2014-07-02T17:16:33Z</time>
      </trkpt>
      <trkpt lat="47.64435" lon="-0.60662">
        <ele>54.45</ele>
        <time>2014-07-02T17:16:34Z</time>
      </trkpt>
      <trkpt lat="47.64423" lon="-0.6064">
        <ele>53.97</ele>
        <time>2014-07-02T17:16:37Z</time>
      </trkpt>
      <trkpt lat="47.64398" lon="-0.60599">
        <ele>53.97</ele>
        <time>2014-07-02T17:16:43Z</time>
      </trkpt>
      <trkpt lat="47.64394" lon="-0.60591">
        <ele>53.97</ele>
        <time>2014-07-02T17:16:44Z</time>
      </trkpt>
      <trkpt lat="47.64391" lon="-0.60584">
        <ele>53.97</ele>
        <time>2014-07-02T17:16:45Z</time>
      </trkpt>
      <trkpt lat="47.64388" lon="-0.60577">
        <ele>53.49</ele>
        <time>2014-07-02T17:16:46Z</time>
      </trkpt>
      <trkpt lat="47.64372" lon="-0.60552">
        <ele>53.01</ele>
        <time>2014-07-02T17:16:50Z</time>
      </trkpt>
      <trkpt lat="47.64355" lon="-0.60523">
        <ele>52.05</ele>
        <time>2014-07-02T17:16:56Z</time>
      </trkpt>
      <trkpt lat="47.64349" lon="-0.60512">
        <ele>52.05</ele>
        <time>2014-07-02T17:16:59Z</time>
      </trkpt>
      <trkpt lat="47.64344" lon="-0.60502">
        <ele>52.05</ele>
        <time>2014-07-02T17:17:05Z</time>
      </trkpt>
      <trkpt lat="47.64344" lon="-0.60502">
        <ele>52.05</ele>
        <time>2014-07-02T17:17:23Z</time>
      </trkpt>
      <trkpt lat="47.64342" lon="-0.605">
        <ele>51.57</ele>
        <time>2014-07-02T17:17:38Z</time>
      </trkpt>
      <trkpt lat="47.64337" lon="-0.60489">
        <ele>52.05</ele>
        <time>2014-07-02T17:17:44Z</time>
      </trkpt>
      <trkpt lat="47.64337" lon="-0.60487">
        <ele>52.05</ele>
        <time>2014-07-02T17:17:54Z</time>
      </trkpt>
      <trkpt lat="47.64337" lon="-0.60487">
        <ele>52.05</ele>
        <time>2014-07-02T17:18:09Z</time>
      </trkpt>
      <trkpt lat="47.64337" lon="-0.60487">
        <ele>52.05</ele>
        <time>2014-07-02T17:18:23Z</time>
      </trkpt>
      <trkpt lat="47.64337" lon="-0.60487">
        <ele>51.57</ele>
        <time>2014-07-02T17:18:32Z</time>
      </trkpt>
      <trkpt lat="47.64335" lon="-0.60484">
        <ele>51.57</ele>
        <time>2014-07-02T17:18:37Z</time>
      </trkpt>
      <trkpt lat="47.64335" lon="-0.60484">
        <ele>52.05</ele>
        <time>2014-07-02T17:18:41Z</time>
      </trkpt>
      <trkpt lat="47.6433" lon="-0.60474">
        <ele>51.57</ele>
        <time>2014-07-02T17:18:45Z</time>
      </trkpt>
      <trkpt lat="47.64328" lon="-0.60469">
        <ele>52.05</ele>
        <time>2014-07-02T17:18:47Z</time>
      </trkpt>
      <trkpt lat="47.64325" lon="-0.60451">
        <ele>52.05</ele>
        <time>2014-07-02T17:18:54Z</time>
      </trkpt>
      <trkpt lat="47.64322" lon="-0.6044">
        <ele>52.05</ele>
        <time>2014-07-02T17:18:59Z</time>
      </trkpt>
      <trkpt lat="47.64321" lon="-0.60439">
        <ele>52.05</ele>
        <time>2014-07-02T17:19:06Z</time>
      </trkpt>
      <trkpt lat="47.64317" lon="-0.60431">
        <ele>52.05</ele>
        <time>2014-07-02T17:19:12Z</time>
      </trkpt>
      <trkpt lat="47.64317" lon="-0.60431">
        <ele>52.05</ele>
        <time>2014-07-02T17:19:26Z</time>
      </trkpt>
      <trkpt lat="47.64315" lon="-0.60426">
        <ele>52.05</ele>
        <time>2014-07-02T17:19:29Z</time>
      </trkpt>
      <trkpt lat="47.6431" lon="-0.60407">
        <ele>52.53</ele>
        <time>2014-07-02T17:19:35Z</time>
      </trkpt>
      <trkpt lat="47.64296" lon="-0.60379">
        <ele>53.01</ele>
        <time>2014-07-02T17:19:43Z</time>
      </trkpt>
      <trkpt lat="47.64285" lon="-0.60349">
        <ele>53.49</ele>
        <time>2014-07-02T17:19:49Z</time>
      </trkpt>
      <trkpt lat="47.64281" lon="-0.60318">
        <ele>53.97</ele>
        <time>2014-07-02T17:19:54Z</time>
      </trkpt>
      <trkpt lat="47.64281" lon="-0.60291">
        <ele>54.45</ele>
        <time>2014-07-02T17:19:58Z</time>
      </trkpt>
      <trkpt lat="47.64283" lon="-0.60263">
        <ele>54.45</ele>
        <time>2014-07-02T17:20:02Z</time>
      </trkpt>
      <trkpt lat="47.64284" lon="-0.60227">
        <ele>55.41</ele>
        <time>2014-07-02T17:20:08Z</time>
      </trkpt>
      <trkpt lat="47.64266" lon="-0.60216">
        <ele>55.41</ele>
        <time>2014-07-02T17:20:12Z</time>
      </trkpt>
      <trkpt lat="47.64245" lon="-0.60208">
        <ele>56.86</ele>
        <time>2014-07-02T17:20:17Z</time>
      </trkpt>
      <trkpt lat="47.64233" lon="-0.60206">
        <ele>57.34</ele>
        <time>2014-07-02T17:20:21Z</time>
      </trkpt>
      <trkpt lat="47.64209" lon="-0.60199">
        <ele>58.3</ele>
        <time>2014-07-02T17:20:26Z</time>
      </trkpt>
      <trkpt lat="47.6418" lon="-0.60189">
        <ele>58.3</ele>
        <time>2014-07-02T17:20:33Z</time>
      </trkpt>
      <trkpt lat="47.6415" lon="-0.60189">
        <ele>58.78</ele>
        <time>2014-07-02T17:20:40Z</time>
      </trkpt>
      <trkpt lat="47.64145" lon="-0.60189">
        <ele>58.78</ele>
        <time>2014-07-02T17:20:41Z</time>
      </trkpt>
      <trkpt lat="47.64114" lon="-0.6019">
        <ele>58.78</ele>
        <time>2014-07-02T17:20:48Z</time>
      </trkpt>
      <trkpt lat="47.64101" lon="-0.6017">
        <ele>59.26</ele>
        <time>2014-07-02T17:20:54Z</time>
      </trkpt>
      <trkpt lat="47.64097" lon="-0.60162">
        <ele>58.78</ele>
        <time>2014-07-02T17:20:56Z</time>
      </trkpt>
      <trkpt lat="47.64085" lon="-0.60127">
        <ele>59.26</ele>
        <time>2014-07-02T17:21:03Z</time>
      </trkpt>
      <trkpt lat="47.64081" lon="-0.60106">
        <ele>60.22</ele>
        <time>2014-07-02T17:21:06Z</time>
      </trkpt>
      <trkpt lat="47.64079" lon="-0.60075">
        <ele>60.22</ele>
        <time>2014-07-02T17:21:10Z</time>
      </trkpt>
      <trkpt lat="47.64075" lon="-0.60046">
        <ele>60.7</ele>
        <time>2014-07-02T17:21:14Z</time>
      </trkpt>
      <trkpt lat="47.64072" lon="-0.60009">
        <ele>61.18</ele>
        <time>2014-07-02T17:21:19Z</time>
      </trkpt>
      <trkpt lat="47.64063" lon="-0.59977">
        <ele>61.66</ele>
        <time>2014-07-02T17:21:24Z</time>
      </trkpt>
      <trkpt lat="47.6406" lon="-0.59972">
        <ele>61.66</ele>
        <time>2014-07-02T17:21:25Z</time>
      </trkpt>
      <trkpt lat="47.64043" lon="-0.59944">
        <ele>62.62</ele>
        <time>2014-07-02T17:21:30Z</time>
      </trkpt>
      <trkpt lat="47.64019" lon="-0.59897">
        <ele>63.58</ele>
        <time>2014-07-02T17:21:38Z</time>
      </trkpt>
      <trkpt lat="47.6401" lon="-0.5988">
        <ele>63.58</ele>
        <time>2014-07-02T17:21:41Z</time>
      </trkpt>
      <trkpt lat="47.63997" lon="-0.59857">
        <ele>63.58</ele>
        <time>2014-07-02T17:21:45Z</time>
      </trkpt>
      <trkpt lat="47.6398" lon="-0.59829">
        <ele>63.58</ele>
        <time>2014-07-02T17:21:50Z</time>
      </trkpt>
      <trkpt lat="47.63971" lon="-0.59812">
        <ele>63.58</ele>
        <time>2014-07-02T17:21:53Z</time>
      </trkpt>
      <trkpt lat="47.63946" lon="-0.59774">
        <ele>63.58</ele>
        <time>2014-07-02T17:22:00Z</time>
      </trkpt>
      <trkpt lat="47.63943" lon="-0.59767">
        <ele>63.58</ele>
        <time>2014-07-02T17:22:01Z</time>
      </trkpt>
      <trkpt lat="47.63923" lon="-0.59733">
        <ele>63.58</ele>
        <time>2014-07-02T17:22:07Z</time>
      </trkpt>
      <trkpt lat="47.63918" lon="-0.59722">
        <ele>63.1</ele>
        <time>2014-07-02T17:22:09Z</time>
      </trkpt>
      <trkpt lat="47.63909" lon="-0.59707">
        <ele>63.58</ele>
        <time>2014-07-02T17:22:12Z</time>
      </trkpt>
      <trkpt lat="47.63907" lon="-0.59702">
        <ele>64.07</ele>
        <time>2014-07-02T17:22:13Z</time>
      </trkpt>
      <trkpt lat="47.63897" lon="-0.59656">
        <ele>64.07</ele>
        <time>2014-07-02T17:22:19Z</time>
      </trkpt>
      <trkpt lat="47.63886" lon="-0.59596">
        <ele>64.07</ele>
        <time>2014-07-02T17:22:27Z</time>
      </trkpt>
      <trkpt lat="47.63884" lon="-0.59581">
        <ele>63.58</ele>
        <time>2014-07-02T17:22:29Z</time>
      </trkpt>
      <trkpt lat="47.63881" lon="-0.59568">
        <ele>64.07</ele>
        <time>2014-07-02T17:22:31Z</time>
      </trkpt>
      <trkpt lat="47.63871" lon="-0.59511">
        <ele>64.07</ele>
        <time>2014-07-02T17:22:39Z</time>
      </trkpt>
      <trkpt lat="47.6387" lon="-0.59504">
        <ele>64.07</ele>
        <time>2014-07-02T17:22:40Z</time>
      </trkpt>
      <trkpt lat="47.63858" lon="-0.59444">
        <ele>64.07</ele>
        <time>2014-07-02T17:22:49Z</time>
      </trkpt>
      <trkpt lat="47.63849" lon="-0.59395">
        <ele>64.55</ele>
        <time>2014-07-02T17:22:56Z</time>
      </trkpt>
      <trkpt lat="47.6384" lon="-0.5935">
        <ele>64.55</ele>
        <time>2014-07-02T17:23:03Z</time>
      </trkpt>
      <trkpt lat="47.63823" lon="-0.59337">
        <ele>64.55</ele>
        <time>2014-07-02T17:23:08Z</time>
      </trkpt>
      <trkpt lat="47.63818" lon="-0.59337">
        <ele>64.55</ele>
        <time>2014-07-02T17:23:09Z</time>
      </trkpt>
      <trkpt lat="47.63769" lon="-0.59338">
        <ele>64.07</ele>
        <time>2014-07-02T17:23:19Z</time>
      </trkpt>
      <trkpt lat="47.63739" lon="-0.59326">
        <ele>64.07</ele>
        <time>2014-07-02T17:23:25Z</time>
      </trkpt>
      <trkpt lat="47.637" lon="-0.59301">
        <ele>63.58</ele>
        <time>2014-07-02T17:23:33Z</time>
      </trkpt>
      <trkpt lat="47.63666" lon="-0.59304">
        <ele>63.58</ele>
        <time>2014-07-02T17:23:39Z</time>
      </trkpt>
      <trkpt lat="47.6362" lon="-0.59324">
        <ele>62.62</ele>
        <time>2014-07-02T17:23:48Z</time>
      </trkpt>
      <trkpt lat="47.63605" lon="-0.59331">
        <ele>63.1</ele>
        <time>2014-07-02T17:23:51Z</time>
      </trkpt>
      <trkpt lat="47.63568" lon="-0.59359">
        <ele>62.14</ele>
        <time>2014-07-02T17:23:59Z</time>
      </trkpt>
      <trkpt lat="47.63522" lon="-0.59398">
        <ele>60.22</ele>
        <time>2014-07-02T17:24:08Z</time>
      </trkpt>
      <trkpt lat="47.63482" lon="-0.59447">
        <ele>58.3</ele>
        <time>2014-07-02T17:24:15Z</time>
      </trkpt>
      <trkpt lat="47.63463" lon="-0.59471">
        <ele>57.34</ele>
        <time>2014-07-02T17:24:18Z</time>
      </trkpt>
      <trkpt lat="47.63425" lon="-0.595">
        <ele>54.93</ele>
        <time>2014-07-02T17:24:23Z</time>
      </trkpt>
      <trkpt lat="47.63364" lon="-0.59538">
        <ele>53.97</ele>
        <time>2014-07-02T17:24:31Z</time>
      </trkpt>
      <trkpt lat="47.63312" lon="-0.59566">
        <ele>53.49</ele>
        <time>2014-07-02T17:24:38Z</time>
      </trkpt>
      <trkpt lat="47.63274" lon="-0.59579">
        <ele>53.49</ele>
        <time>2014-07-02T17:24:43Z</time>
      </trkpt>
      <trkpt lat="47.63191" lon="-0.59574">
        <ele>51.57</ele>
        <time>2014-07-02T17:24:53Z</time>
      </trkpt>
      <trkpt lat="47.6313" lon="-0.59577">
        <ele>52.05</ele>
        <time>2014-07-02T17:25:01Z</time>
      </trkpt>
      <trkpt lat="47.63076" lon="-0.59592">
        <ele>53.49</ele>
        <time>2014-07-02T17:25:09Z</time>
      </trkpt>
      <trkpt lat="47.63019" lon="-0.5961">
        <ele>53.97</ele>
        <time>2014-07-02T17:25:18Z</time>
      </trkpt>
      <trkpt lat="47.62968" lon="-0.59626">
        <ele>54.45</ele>
        <time>2014-07-02T17:25:27Z</time>
      </trkpt>
      <trkpt lat="47.62923" lon="-0.59639">
        <ele>55.41</ele>
        <time>2014-07-02T17:25:36Z</time>
      </trkpt>
      <trkpt lat="47.62915" lon="-0.59642">
        <ele>55.41</ele>
        <time>2014-07-02T17:25:38Z</time>
      </trkpt>
      <trkpt lat="47.62914" lon="-0.5966">
        <ele>54.45</ele>
        <time>2014-07-02T17:25:42Z</time>
      </trkpt>
      <trkpt lat="47.62915" lon="-0.597">
        <ele>53.97</ele>
        <time>2014-07-02T17:25:47Z</time>
      </trkpt>
      <trkpt lat="47.62913" lon="-0.59745">
        <ele>53.49</ele>
        <time>2014-07-02T17:25:52Z</time>
      </trkpt>
      <trkpt lat="47.62908" lon="-0.59805">
        <ele>51.57</ele>
        <time>2014-07-02T17:25:58Z</time>
      </trkpt>
      <trkpt lat="47.62906" lon="-0.59838">
        <ele>50.13</ele>
        <time>2014-07-02T17:26:01Z</time>
      </trkpt>
      <trkpt lat="47.62904" lon="-0.59893">
        <ele>48.2</ele>
        <time>2014-07-02T17:26:06Z</time>
      </trkpt>
      <trkpt lat="47.62911" lon="-0.59969">
        <ele>46.76</ele>
        <time>2014-07-02T17:26:13Z</time>
      </trkpt>
      <trkpt lat="47.62908" lon="-0.60038">
        <ele>44.84</ele>
        <time>2014-07-02T17:26:20Z</time>
      </trkpt>
      <trkpt lat="47.62902" lon="-0.60084">
        <ele>44.84</ele>
        <time>2014-07-02T17:26:25Z</time>
      </trkpt>
      <trkpt lat="47.62893" lon="-0.60153">
        <ele>44.36</ele>
        <time>2014-07-02T17:26:32Z</time>
      </trkpt>
      <trkpt lat="47.62886" lon="-0.60211">
        <ele>43.88</ele>
        <time>2014-07-02T17:26:38Z</time>
      </trkpt>
      <trkpt lat="47.62874" lon="-0.60237">
        <ele>44.36</ele>
        <time>2014-07-02T17:26:42Z</time>
      </trkpt>
      <trkpt lat="47.62869" lon="-0.60238">
        <ele>44.36</ele>
        <time>2014-07-02T17:26:43Z</time>
      </trkpt>
      <trkpt lat="47.62857" lon="-0.60241">
        <ele>44.84</ele>
        <time>2014-07-02T17:26:45Z</time>
      </trkpt>
      <trkpt lat="47.62845" lon="-0.60241">
        <ele>45.8</ele>
        <time>2014-07-02T17:26:47Z</time>
      </trkpt>
      <trkpt lat="47.62822" lon="-0.60242">
        <ele>45.8</ele>
        <time>2014-07-02T17:26:51Z</time>
      </trkpt>
      <trkpt lat="47.62789" lon="-0.60255">
        <ele>48.68</ele>
        <time>2014-07-02T17:26:58Z</time>
      </trkpt>
      <trkpt lat="47.62759" lon="-0.60264">
        <ele>49.65</ele>
        <time>2014-07-02T17:27:05Z</time>
      </trkpt>
      <trkpt lat="47.62745" lon="-0.60268">
        <ele>49.65</ele>
        <time>2014-07-02T17:27:08Z</time>
      </trkpt>
      <trkpt lat="47.62702" lon="-0.60286">
        <ele>49.65</ele>
        <time>2014-07-02T17:27:17Z</time>
      </trkpt>
      <trkpt lat="47.62661" lon="-0.60306">
        <ele>49.16</ele>
        <time>2014-07-02T17:27:25Z</time>
      </trkpt>
      <trkpt lat="47.62647" lon="-0.60309">
        <ele>48.68</ele>
        <time>2014-07-02T17:27:30Z</time>
      </trkpt>
      <trkpt lat="47.62646" lon="-0.60308">
        <ele>48.68</ele>
        <time>2014-07-02T17:27:35Z</time>
      </trkpt>
      <trkpt lat="47.62644" lon="-0.60309">
        <ele>49.16</ele>
        <time>2014-07-02T17:27:41Z</time>
      </trkpt>
      <trkpt lat="47.62644" lon="-0.60309">
        <ele>48.68</ele>
        <time>2014-07-02T17:27:42Z</time>
      </trkpt>
      <trkpt lat="47.62631" lon="-0.60311">
        <ele>48.68</ele>
        <time>2014-07-02T17:27:49Z</time>
      </trkpt>
      <trkpt lat="47.62612" lon="-0.60315">
        <ele>48.2</ele>
        <time>2014-07-02T17:27:56Z</time>
      </trkpt>
      <trkpt lat="47.62587" lon="-0.60321">
        <ele>48.2</ele>
        <time>2014-07-02T17:28:03Z</time>
      </trkpt>
      <trkpt lat="47.62561" lon="-0.60331">
        <ele>46.28</ele>
        <time>2014-07-02T17:28:09Z</time>
      </trkpt>
      <trkpt lat="47.62536" lon="-0.60346">
        <ele>45.32</ele>
        <time>2014-07-02T17:28:14Z</time>
      </trkpt>
      <trkpt lat="47.62525" lon="-0.60352">
        <ele>44.36</ele>
        <time>2014-07-02T17:28:16Z</time>
      </trkpt>
      <trkpt lat="47.62506" lon="-0.60354">
        <ele>42.92</ele>
        <time>2014-07-02T17:28:19Z</time>
      </trkpt>
      <trkpt lat="47.62486" lon="-0.60376">
        <ele>41.47</ele>
        <time>2014-07-02T17:28:24Z</time>
      </trkpt>
      <trkpt lat="47.62476" lon="-0.60408">
        <ele>40.51</ele>
        <time>2014-07-02T17:28:29Z</time>
      </trkpt>
      <trkpt lat="47.62444" lon="-0.60441">
        <ele>39.55</ele>
        <time>2014-07-02T17:28:35Z</time>
      </trkpt>
      <trkpt lat="47.62437" lon="-0.60444">
        <ele>39.55</ele>
        <time>2014-07-02T17:28:36Z</time>
      </trkpt>
      <trkpt lat="47.62389" lon="-0.60464">
        <ele>39.07</ele>
        <time>2014-07-02T17:28:43Z</time>
      </trkpt>
      <trkpt lat="47.62376" lon="-0.60467">
        <ele>39.07</ele>
        <time>2014-07-02T17:28:45Z</time>
      </trkpt>
      <trkpt lat="47.62336" lon="-0.6047">
        <ele>40.03</ele>
        <time>2014-07-02T17:28:51Z</time>
      </trkpt>
      <trkpt lat="47.62315" lon="-0.6048">
        <ele>40.51</ele>
        <time>2014-07-02T17:28:56Z</time>
      </trkpt>
      <trkpt lat="47.62307" lon="-0.60494">
        <ele>40.99</ele>
        <time>2014-07-02T17:28:59Z</time>
      </trkpt>
      <trkpt lat="47.62286" lon="-0.60536">
        <ele>42.92</ele>
        <time>2014-07-02T17:29:07Z</time>
      </trkpt>
      <trkpt lat="47.62275" lon="-0.60562">
        <ele>43.88</ele>
        <time>2014-07-02T17:29:13Z</time>
      </trkpt>
      <trkpt lat="47.6227" lon="-0.60573">
        <ele>44.84</ele>
        <time>2014-07-02T17:29:15Z</time>
      </trkpt>
      <trkpt lat="47.62252" lon="-0.60604">
        <ele>45.32</ele>
        <time>2014-07-02T17:29:21Z</time>
      </trkpt>
      <trkpt lat="47.62242" lon="-0.60634">
        <ele>46.28</ele>
        <time>2014-07-02T17:29:27Z</time>
      </trkpt>
      <trkpt lat="47.62239" lon="-0.60663">
        <ele>46.76</ele>
        <time>2014-07-02T17:29:34Z</time>
      </trkpt>
      <trkpt lat="47.62238" lon="-0.60666">
        <ele>47.24</ele>
        <time>2014-07-02T17:29:35Z</time>
      </trkpt>
      <trkpt lat="47.62238" lon="-0.60699">
        <ele>48.2</ele>
        <time>2014-07-02T17:29:43Z</time>
      </trkpt>
      <trkpt lat="47.62234" lon="-0.60732">
        <ele>48.2</ele>
        <time>2014-07-02T17:29:49Z</time>
      </trkpt>
      <trkpt lat="47.62232" lon="-0.60769">
        <ele>48.68</ele>
        <time>2014-07-02T17:29:56Z</time>
      </trkpt>
      <trkpt lat="47.62232" lon="-0.60798">
        <ele>48.2</ele>
        <time>2014-07-02T17:30:02Z</time>
      </trkpt>
      <trkpt lat="47.62218" lon="-0.60798">
        <ele>48.68</ele>
        <time>2014-07-02T17:30:07Z</time>
      </trkpt>
      <trkpt lat="47.62212" lon="-0.60792">
        <ele>49.16</ele>
        <time>2014-07-02T17:30:09Z</time>
      </trkpt>
      <trkpt lat="47.62182" lon="-0.6076">
        <ele>49.65</ele>
        <time>2014-07-02T17:30:18Z</time>
      </trkpt>
      <trkpt lat="47.62158" lon="-0.60736">
        <ele>49.65</ele>
        <time>2014-07-02T17:30:24Z</time>
      </trkpt>
      <trkpt lat="47.62148" lon="-0.60723">
        <ele>50.13</ele>
        <time>2014-07-02T17:30:27Z</time>
      </trkpt>
      <trkpt lat="47.62133" lon="-0.60707">
        <ele>50.13</ele>
        <time>2014-07-02T17:30:31Z</time>
      </trkpt>
      <trkpt lat="47.62114" lon="-0.60689">
        <ele>50.61</ele>
        <time>2014-07-02T17:30:36Z</time>
      </trkpt>
      <trkpt lat="47.62091" lon="-0.60684">
        <ele>50.13</ele>
        <time>2014-07-02T17:30:41Z</time>
      </trkpt>
      <trkpt lat="47.62083" lon="-0.60703">
        <ele>50.13</ele>
        <time>2014-07-02T17:30:44Z</time>
      </trkpt>
      <trkpt lat="47.62078" lon="-0.60726">
        <ele>50.13</ele>
        <time>2014-07-02T17:30:47Z</time>
      </trkpt>
      <trkpt lat="47.62064" lon="-0.60794">
        <ele>51.57</ele>
        <time>2014-07-02T17:30:56Z</time>
      </trkpt>
      <trkpt lat="47.62053" lon="-0.60853">
        <ele>53.49</ele>
        <time>2014-07-02T17:31:04Z</time>
      </trkpt>
      <trkpt lat="47.62038" lon="-0.60915">
        <ele>54.45</ele>
        <time>2014-07-02T17:31:12Z</time>
      </trkpt>
      <trkpt lat="47.62018" lon="-0.60973">
        <ele>55.89</ele>
        <time>2014-07-02T17:31:20Z</time>
      </trkpt>
      <trkpt lat="47.61999" lon="-0.6104">
        <ele>56.37</ele>
        <time>2014-07-02T17:31:29Z</time>
      </trkpt>
      <trkpt lat="47.61977" lon="-0.61116">
        <ele>56.37</ele>
        <time>2014-07-02T17:31:39Z</time>
      </trkpt>
      <trkpt lat="47.6197" lon="-0.61139">
        <ele>56.37</ele>
        <time>2014-07-02T17:31:42Z</time>
      </trkpt>
      <trkpt lat="47.61932" lon="-0.61202">
        <ele>56.86</ele>
        <time>2014-07-02T17:31:52Z</time>
      </trkpt>
      <trkpt lat="47.61899" lon="-0.61252">
        <ele>56.86</ele>
        <time>2014-07-02T17:32:00Z</time>
      </trkpt>
      <trkpt lat="47.6188" lon="-0.61297">
        <ele>56.37</ele>
        <time>2014-07-02T17:32:06Z</time>
      </trkpt>
      <trkpt lat="47.61872" lon="-0.61318">
        <ele>56.86</ele>
        <time>2014-07-02T17:32:09Z</time>
      </trkpt>
      <trkpt lat="47.61849" lon="-0.61326">
        <ele>56.37</ele>
        <time>2014-07-02T17:32:14Z</time>
      </trkpt>
      <trkpt lat="47.61834" lon="-0.61317">
        <ele>56.37</ele>
        <time>2014-07-02T17:32:17Z</time>
      </trkpt>
      <trkpt lat="47.61786" lon="-0.61285">
        <ele>53.97</ele>
        <time>2014-07-02T17:32:25Z</time>
      </trkpt>
      <trkpt lat="47.61779" lon="-0.61281">
        <ele>53.49</ele>
        <time>2014-07-02T17:32:26Z</time>
      </trkpt>
      <trkpt lat="47.61734" lon="-0.61264">
        <ele>53.49</ele>
        <time>2014-07-02T17:32:33Z</time>
      </trkpt>
      <trkpt lat="47.61712" lon="-0.61274">
        <ele>54.93</ele>
        <time>2014-07-02T17:32:38Z</time>
      </trkpt>
      <trkpt lat="47.61709" lon="-0.61286">
        <ele>54.93</ele>
        <time>2014-07-02T17:32:40Z</time>
      </trkpt>
      <trkpt lat="47.61695" lon="-0.61323">
        <ele>55.41</ele>
        <time>2014-07-02T17:32:47Z</time>
      </trkpt>
      <trkpt lat="47.61691" lon="-0.61325">
        <ele>55.89</ele>
        <time>2014-07-02T17:32:48Z</time>
      </trkpt>
      <trkpt lat="47.61666" lon="-0.61327">
        <ele>56.37</ele>
        <time>2014-07-02T17:32:53Z</time>
      </trkpt>
      <trkpt lat="47.61638" lon="-0.61332">
        <ele>55.41</ele>
        <time>2014-07-02T17:32:58Z</time>
      </trkpt>
      <trkpt lat="47.61626" lon="-0.61338">
        <ele>54.45</ele>
        <time>2014-07-02T17:33:00Z</time>
      </trkpt>
      <trkpt lat="47.61609" lon="-0.61336">
        <ele>53.97</ele>
        <time>2014-07-02T17:33:04Z</time>
      </trkpt>
      <trkpt lat="47.61569" lon="-0.61315">
        <ele>52.05</ele>
        <time>2014-07-02T17:33:11Z</time>
      </trkpt>
      <trkpt lat="47.61562" lon="-0.61312">
        <ele>52.53</ele>
        <time>2014-07-02T17:33:12Z</time>
      </trkpt>
      <trkpt lat="47.6155" lon="-0.61304">
        <ele>51.57</ele>
        <time>2014-07-02T17:33:16Z</time>
      </trkpt>
      <trkpt lat="47.61546" lon="-0.61301">
        <ele>51.57</ele>
        <time>2014-07-02T17:33:22Z</time>
      </trkpt>
      <trkpt lat="47.61544" lon="-0.61301">
        <ele>52.05</ele>
        <time>2014-07-02T17:33:23Z</time>
      </trkpt>
      <trkpt lat="47.61534" lon="-0.61295">
        <ele>52.05</ele>
        <time>2014-07-02T17:33:27Z</time>
      </trkpt>
      <trkpt lat="47.61513" lon="-0.61284">
        <ele>53.01</ele>
        <time>2014-07-02T17:33:32Z</time>
      </trkpt>
      <trkpt lat="47.615" lon="-0.61267">
        <ele>52.05</ele>
        <time>2014-07-02T17:33:36Z</time>
      </trkpt>
      <trkpt lat="47.615" lon="-0.61253">
        <ele>52.05</ele>
        <time>2014-07-02T17:33:38Z</time>
      </trkpt>
      <trkpt lat="47.61503" lon="-0.61227">
        <ele>52.53</ele>
        <time>2014-07-02T17:33:42Z</time>
      </trkpt>
      <trkpt lat="47.61514" lon="-0.6118">
        <ele>52.05</ele>
        <time>2014-07-02T17:33:50Z</time>
      </trkpt>
      <trkpt lat="47.61516" lon="-0.61171">
        <ele>51.57</ele>
        <time>2014-07-02T17:33:54Z</time>
      </trkpt>
      <trkpt lat="47.61515" lon="-0.61167">
        <ele>52.05</ele>
        <time>2014-07-02T17:34:03Z</time>
      </trkpt>
      <trkpt lat="47.61515" lon="-0.61165">
        <ele>52.05</ele>
        <time>2014-07-02T17:34:09Z</time>
      </trkpt>
      <trkpt lat="47.61516" lon="-0.61164">
        <ele>52.05</ele>
        <time>2014-07-02T17:34:17Z</time>
      </trkpt>
      <trkpt lat="47.61516" lon="-0.61161">
        <ele>52.05</ele>
        <time>2014-07-02T17:34:28Z</time>
      </trkpt>
      <trkpt lat="47.61516" lon="-0.6116">
        <ele>52.05</ele>
        <time>2014-07-02T17:34:35Z</time>
      </trkpt>
      <trkpt lat="47.61517" lon="-0.61147">
        <ele>52.05</ele>
        <time>2014-07-02T17:34:39Z</time>
      </trkpt>
      <trkpt lat="47.6152" lon="-0.61124">
        <ele>52.05</ele>
        <time>2014-07-02T17:34:44Z</time>
      </trkpt>
      <trkpt lat="47.61521" lon="-0.61114">
        <ele>52.05</ele>
        <time>2014-07-02T17:34:45Z</time>
      </trkpt>
      <trkpt lat="47.61516" lon="-0.61089">
        <ele>51.57</ele>
        <time>2014-07-02T17:34:50Z</time>
      </trkpt>
      <trkpt lat="47.61499" lon="-0.6107">
        <ele>51.09</ele>
        <time>2014-07-02T17:34:55Z</time>
      </trkpt>
      <trkpt lat="47.6149" lon="-0.61056">
        <ele>51.09</ele>
        <time>2014-07-02T17:34:58Z</time>
      </trkpt>
      <trkpt lat="47.61483" lon="-0.61031">
        <ele>51.57</ele>
        <time>2014-07-02T17:35:01Z</time>
      </trkpt>
      <trkpt lat="47.6148" lon="-0.61025">
        <ele>50.61</ele>
        <time>2014-07-02T17:35:02Z</time>
      </trkpt>
      <trkpt lat="47.61469" lon="-0.61009">
        <ele>51.09</ele>
        <time>2014-07-02T17:35:04Z</time>
      </trkpt>
      <trkpt lat="47.61441" lon="-0.60987">
        <ele>52.53</ele>
        <time>2014-07-02T17:35:09Z</time>
      </trkpt>
      <trkpt lat="47.6142" lon="-0.60974">
        <ele>53.97</ele>
        <time>2014-07-02T17:35:13Z</time>
      </trkpt>
      <trkpt lat="47.6141" lon="-0.60967">
        <ele>54.45</ele>
        <time>2014-07-02T17:35:15Z</time>
      </trkpt>
      <trkpt lat="47.61378" lon="-0.60932">
        <ele>55.89</ele>
        <time>2014-07-02T17:35:22Z</time>
      </trkpt>
      <trkpt lat="47.61361" lon="-0.60907">
        <ele>55.89</ele>
        <time>2014-07-02T17:35:26Z</time>
      </trkpt>
      <trkpt lat="47.6134" lon="-0.60863">
        <ele>55.41</ele>
        <time>2014-07-02T17:35:32Z</time>
      </trkpt>
      <trkpt lat="47.61335" lon="-0.60842">
        <ele>55.89</ele>
        <time>2014-07-02T17:35:34Z</time>
      </trkpt>
      <trkpt lat="47.61323" lon="-0.60774">
        <ele>54.93</ele>
        <time>2014-07-02T17:35:41Z</time>
      </trkpt>
      <trkpt lat="47.61312" lon="-0.60705">
        <ele>53.97</ele>
        <time>2014-07-02T17:35:48Z</time>
      </trkpt>
      <trkpt lat="47.61302" lon="-0.60662">
        <ele>52.05</ele>
        <time>2014-07-02T17:35:52Z</time>
      </trkpt>
      <trkpt lat="47.61299" lon="-0.6065">
        <ele>52.05</ele>
        <time>2014-07-02T17:35:53Z</time>
      </trkpt>
      <trkpt lat="47.6128" lon="-0.60612">
        <ele>50.61</ele>
        <time>2014-07-02T17:35:57Z</time>
      </trkpt>
      <trkpt lat="47.61267" lon="-0.60571">
        <ele>50.61</ele>
        <time>2014-07-02T17:36:02Z</time>
      </trkpt>
      <trkpt lat="47.61272" lon="-0.60535">
        <ele>49.65</ele>
        <time>2014-07-02T17:36:06Z</time>
      </trkpt>
      <trkpt lat="47.61272" lon="-0.60523">
        <ele>48.68</ele>
        <time>2014-07-02T17:36:08Z</time>
      </trkpt>
      <trkpt lat="47.61266" lon="-0.60519">
        <ele>49.65</ele>
        <time>2014-07-02T17:36:10Z</time>
      </trkpt>
      <trkpt lat="47.61245" lon="-0.60519">
        <ele>50.61</ele>
        <time>2014-07-02T17:36:16Z</time>
      </trkpt>
      <trkpt lat="47.61232" lon="-0.60518">
        <ele>51.09</ele>
        <time>2014-07-02T17:36:19Z</time>
      </trkpt>
      <trkpt lat="47.61216" lon="-0.60516">
        <ele>52.53</ele>
        <time>2014-07-02T17:36:23Z</time>
      </trkpt>
      <trkpt lat="47.61194" lon="-0.60513">
        <ele>54.45</ele>
        <time>2014-07-02T17:36:29Z</time>
      </trkpt>
      <trkpt lat="47.61166" lon="-0.60513">
        <ele>54.93</ele>
        <time>2014-07-02T17:36:37Z</time>
      </trkpt>
      <trkpt lat="47.61143" lon="-0.60518">
        <ele>55.41</ele>
        <time>2014-07-02T17:36:44Z</time>
      </trkpt>
      <trkpt lat="47.61112" lon="-0.60532">
        <ele>56.37</ele>
        <time>2014-07-02T17:36:52Z</time>
      </trkpt>
      <trkpt lat="47.61087" lon="-0.60545">
        <ele>56.37</ele>
        <time>2014-07-02T17:36:58Z</time>
      </trkpt>
      <trkpt lat="47.61073" lon="-0.60549">
        <ele>56.37</ele>
        <time>2014-07-02T17:37:01Z</time>
      </trkpt>
      <trkpt lat="47.61038" lon="-0.60565">
        <ele>55.89</ele>
        <time>2014-07-02T17:37:09Z</time>
      </trkpt>
      <trkpt lat="47.61013" lon="-0.60572">
        <ele>55.89</ele>
        <time>2014-07-02T17:37:14Z</time>
      </trkpt>
      <trkpt lat="47.60992" lon="-0.60572">
        <ele>54.93</ele>
        <time>2014-07-02T17:37:18Z</time>
      </trkpt>
      <trkpt lat="47.60965" lon="-0.60563">
        <ele>53.49</ele>
        <time>2014-07-02T17:37:22Z</time>
      </trkpt>
      <trkpt lat="47.60932" lon="-0.60547">
        <ele>51.57</ele>
        <time>2014-07-02T17:37:26Z</time>
      </trkpt>
      <trkpt lat="47.60882" lon="-0.60537">
        <ele>47.24</ele>
        <time>2014-07-02T17:37:31Z</time>
      </trkpt>
      <trkpt lat="47.60871" lon="-0.60538">
        <ele>47.24</ele>
        <time>2014-07-02T17:37:32Z</time>
      </trkpt>
      <trkpt lat="47.6085" lon="-0.6054">
        <ele>46.28</ele>
        <time>2014-07-02T17:37:34Z</time>
      </trkpt>
      <trkpt lat="47.60792" lon="-0.60529">
        <ele>45.32</ele>
        <time>2014-07-02T17:37:40Z</time>
      </trkpt>
      <trkpt lat="47.60767" lon="-0.6053">
        <ele>44.84</ele>
        <time>2014-07-02T17:37:43Z</time>
      </trkpt>
      <trkpt lat="47.60744" lon="-0.60547">
        <ele>44.36</ele>
        <time>2014-07-02T17:37:47Z</time>
      </trkpt>
      <trkpt lat="47.60748" lon="-0.60572">
        <ele>44.84</ele>
        <time>2014-07-02T17:37:50Z</time>
      </trkpt>
      <trkpt lat="47.60775" lon="-0.60635">
        <ele>46.28</ele>
        <time>2014-07-02T17:37:59Z</time>
      </trkpt>
      <trkpt lat="47.60779" lon="-0.60649">
        <ele>46.76</ele>
        <time>2014-07-02T17:38:01Z</time>
      </trkpt>
      <trkpt lat="47.60783" lon="-0.60673">
        <ele>47.24</ele>
        <time>2014-07-02T17:38:04Z</time>
      </trkpt>
      <trkpt lat="47.60775" lon="-0.60717">
        <ele>48.2</ele>
        <time>2014-07-02T17:38:10Z</time>
      </trkpt>
      <trkpt lat="47.60765" lon="-0.60738">
        <ele>48.2</ele>
        <time>2014-07-02T17:38:13Z</time>
      </trkpt>
      <trkpt lat="47.60752" lon="-0.60783">
        <ele>48.2</ele>
        <time>2014-07-02T17:38:19Z</time>
      </trkpt>
      <trkpt lat="47.60751" lon="-0.6082">
        <ele>49.16</ele>
        <time>2014-07-02T17:38:24Z</time>
      </trkpt>
      <trkpt lat="47.6075" lon="-0.60876">
        <ele>51.09</ele>
        <time>2014-07-02T17:38:32Z</time>
      </trkpt>
      <trkpt lat="47.60747" lon="-0.60932">
        <ele>53.01</ele>
        <time>2014-07-02T17:38:41Z</time>
      </trkpt>
      <trkpt lat="47.60738" lon="-0.60984">
        <ele>53.49</ele>
        <time>2014-07-02T17:38:50Z</time>
      </trkpt>
      <trkpt lat="47.60734" lon="-0.60997">
        <ele>53.49</ele>
        <time>2014-07-02T17:38:53Z</time>
      </trkpt>
      <trkpt lat="47.6072" lon="-0.60999">
        <ele>53.49</ele>
        <time>2014-07-02T17:38:57Z</time>
      </trkpt>
      <trkpt lat="47.60686" lon="-0.60986">
        <ele>53.49</ele>
        <time>2014-07-02T17:39:05Z</time>
      </trkpt>
      <trkpt lat="47.60645" lon="-0.60974">
        <ele>52.53</ele>
        <time>2014-07-02T17:39:13Z</time>
      </trkpt>
      <trkpt lat="47.60598" lon="-0.60958">
        <ele>50.61</ele>
        <time>2014-07-02T17:39:21Z</time>
      </trkpt>
      <trkpt lat="47.60584" lon="-0.6095">
        <ele>49.16</ele>
        <time>2014-07-02T17:39:24Z</time>
      </trkpt>
      <trkpt lat="47.6055" lon="-0.60945">
        <ele>49.16</ele>
        <time>2014-07-02T17:39:30Z</time>
      </trkpt>
      <trkpt lat="47.60523" lon="-0.60938">
        <ele>50.61</ele>
        <time>2014-07-02T17:39:35Z</time>
      </trkpt>
      <trkpt lat="47.60486" lon="-0.60935">
        <ele>51.57</ele>
        <time>2014-07-02T17:39:42Z</time>
      </trkpt>
      <trkpt lat="47.6046" lon="-0.60932">
        <ele>52.05</ele>
        <time>2014-07-02T17:39:47Z</time>
      </trkpt>
      <trkpt lat="47.60437" lon="-0.60932">
        <ele>52.53</ele>
        <time>2014-07-02T17:39:52Z</time>
      </trkpt>
      <trkpt lat="47.60432" lon="-0.60932">
        <ele>52.05</ele>
        <time>2014-07-02T17:39:54Z</time>
      </trkpt>
      <trkpt lat="47.60419" lon="-0.60922">
        <ele>52.53</ele>
        <time>2014-07-02T17:39:59Z</time>
      </trkpt>
      <trkpt lat="47.60405" lon="-0.60883">
        <ele>53.01</ele>
        <time>2014-07-02T17:40:07Z</time>
      </trkpt>
      <trkpt lat="47.604" lon="-0.6083">
        <ele>52.53</ele>
        <time>2014-07-02T17:40:16Z</time>
      </trkpt>
      <trkpt lat="47.60396" lon="-0.60782">
        <ele>52.05</ele>
        <time>2014-07-02T17:40:24Z</time>
      </trkpt>
      <trkpt lat="47.60399" lon="-0.60749">
        <ele>50.61</ele>
        <time>2014-07-02T17:40:29Z</time>
      </trkpt>
      <trkpt lat="47.60419" lon="-0.60686">
        <ele>48.68</ele>
        <time>2014-07-02T17:40:37Z</time>
      </trkpt>
      <trkpt lat="47.60428" lon="-0.60649">
        <ele>48.2</ele>
        <time>2014-07-02T17:40:41Z</time>
      </trkpt>
      <trkpt lat="47.60429" lon="-0.60607">
        <ele>46.76</ele>
        <time>2014-07-02T17:40:45Z</time>
      </trkpt>
      <trkpt lat="47.6043" lon="-0.60585">
        <ele>46.76</ele>
        <time>2014-07-02T17:40:47Z</time>
      </trkpt>
      <trkpt lat="47.60434" lon="-0.60564">
        <ele>46.28</ele>
        <time>2014-07-02T17:40:49Z</time>
      </trkpt>
      <trkpt lat="47.60462" lon="-0.60482">
        <ele>44.36</ele>
        <time>2014-07-02T17:40:57Z</time>
      </trkpt>
      <trkpt lat="47.60471" lon="-0.60462">
        <ele>43.88</ele>
        <time>2014-07-02T17:40:59Z</time>
      </trkpt>
      <trkpt lat="47.6048" lon="-0.6042">
        <ele>42.92</ele>
        <time>2014-07-02T17:41:03Z</time>
      </trkpt>
      <trkpt lat="47.6049" lon="-0.60367">
        <ele>41.95</ele>
        <time>2014-07-02T17:41:08Z</time>
      </trkpt>
      <trkpt lat="47.60524" lon="-0.60289">
        <ele>40.99</ele>
        <time>2014-07-02T17:41:17Z</time>
      </trkpt>
      <trkpt lat="47.60559" lon="-0.60226">
        <ele>39.55</ele>
        <time>2014-07-02T17:41:25Z</time>
      </trkpt>
      <trkpt lat="47.60595" lon="-0.6015">
        <ele>38.59</ele>
        <time>2014-07-02T17:41:34Z</time>
      </trkpt>
      <trkpt lat="47.60611" lon="-0.60115">
        <ele>37.63</ele>
        <time>2014-07-02T17:41:38Z</time>
      </trkpt>
      <trkpt lat="47.60619" lon="-0.60075">
        <ele>37.63</ele>
        <time>2014-07-02T17:41:42Z</time>
      </trkpt>
      <trkpt lat="47.6062" lon="-0.60054">
        <ele>37.63</ele>
        <time>2014-07-02T17:41:44Z</time>
      </trkpt>
      <trkpt lat="47.60618" lon="-0.60001">
        <ele>37.63</ele>
        <time>2014-07-02T17:41:49Z</time>
      </trkpt>
      <trkpt lat="47.60629" lon="-0.59914">
        <ele>39.07</ele>
        <time>2014-07-02T17:41:57Z</time>
      </trkpt>
      <trkpt lat="47.60643" lon="-0.59844">
        <ele>40.51</ele>
        <time>2014-07-02T17:42:04Z</time>
      </trkpt>
      <trkpt lat="47.60668" lon="-0.59772">
        <ele>40.51</ele>
        <time>2014-07-02T17:42:12Z</time>
      </trkpt>
      <trkpt lat="47.60693" lon="-0.59717">
        <ele>40.51</ele>
        <time>2014-07-02T17:42:19Z</time>
      </trkpt>
      <trkpt lat="47.60713" lon="-0.5963">
        <ele>39.55</ele>
        <time>2014-07-02T17:42:28Z</time>
      </trkpt>
      <trkpt lat="47.60729" lon="-0.59549">
        <ele>37.63</ele>
        <time>2014-07-02T17:42:36Z</time>
      </trkpt>
      <trkpt lat="47.60731" lon="-0.59527">
        <ele>36.67</ele>
        <time>2014-07-02T17:42:38Z</time>
      </trkpt>
      <trkpt lat="47.60741" lon="-0.59436">
        <ele>35.23</ele>
        <time>2014-07-02T17:42:46Z</time>
      </trkpt>
      <trkpt lat="47.60754" lon="-0.5937">
        <ele>32.82</ele>
        <time>2014-07-02T17:42:52Z</time>
      </trkpt>
      <trkpt lat="47.60756" lon="-0.59358">
        <ele>33.3</ele>
        <time>2014-07-02T17:42:53Z</time>
      </trkpt>
      <trkpt lat="47.60776" lon="-0.59252">
        <ele>30.9</ele>
        <time>2014-07-02T17:43:01Z</time>
      </trkpt>
      <trkpt lat="47.60789" lon="-0.59174">
        <ele>30.42</ele>
        <time>2014-07-02T17:43:07Z</time>
      </trkpt>
      <trkpt lat="47.60804" lon="-0.5911">
        <ele>30.9</ele>
        <time>2014-07-02T17:43:12Z</time>
      </trkpt>
      <trkpt lat="47.60809" lon="-0.5903">
        <ele>31.38</ele>
        <time>2014-07-02T17:43:18Z</time>
      </trkpt>
      <trkpt lat="47.60808" lon="-0.59004">
        <ele>31.86</ele>
        <time>2014-07-02T17:43:20Z</time>
      </trkpt>
      <trkpt lat="47.60796" lon="-0.58961">
        <ele>32.82</ele>
        <time>2014-07-02T17:43:24Z</time>
      </trkpt>
      <trkpt lat="47.60774" lon="-0.58954">
        <ele>33.78</ele>
        <time>2014-07-02T17:43:27Z</time>
      </trkpt>
      <trkpt lat="47.60766" lon="-0.58952">
        <ele>34.26</ele>
        <time>2014-07-02T17:43:28Z</time>
      </trkpt>
      <trkpt lat="47.60733" lon="-0.58939">
        <ele>35.23</ele>
        <time>2014-07-02T17:43:33Z</time>
      </trkpt>
      <trkpt lat="47.60715" lon="-0.58909">
        <ele>35.71</ele>
        <time>2014-07-02T17:43:38Z</time>
      </trkpt>
      <trkpt lat="47.60714" lon="-0.58874">
        <ele>36.19</ele>
        <time>2014-07-02T17:43:42Z</time>
      </trkpt>
      <trkpt lat="47.60715" lon="-0.58846">
        <ele>36.67</ele>
        <time>2014-07-02T17:43:45Z</time>
      </trkpt>
      <trkpt lat="47.60712" lon="-0.5878">
        <ele>38.11</ele>
        <time>2014-07-02T17:43:53Z</time>
      </trkpt>
      <trkpt lat="47.60711" lon="-0.58734">
        <ele>39.55</ele>
        <time>2014-07-02T17:43:59Z</time>
      </trkpt>
      <trkpt lat="47.6071" lon="-0.58695">
        <ele>40.03</ele>
        <time>2014-07-02T17:44:04Z</time>
      </trkpt>
      <trkpt lat="47.60708" lon="-0.58655">
        <ele>40.51</ele>
        <time>2014-07-02T17:44:11Z</time>
      </trkpt>
      <trkpt lat="47.60706" lon="-0.58639">
        <ele>40.51</ele>
        <time>2014-07-02T17:44:15Z</time>
      </trkpt>
      <trkpt lat="47.60692" lon="-0.58632">
        <ele>40.51</ele>
        <time>2014-07-02T17:44:20Z</time>
      </trkpt>
      <trkpt lat="47.60688" lon="-0.58632">
        <ele>40.51</ele>
        <time>2014-07-02T17:44:21Z</time>
      </trkpt>
      <trkpt lat="47.60661" lon="-0.5863">
        <ele>40.51</ele>
        <time>2014-07-02T17:44:27Z</time>
      </trkpt>
      <trkpt lat="47.60652" lon="-0.58616">
        <ele>40.99</ele>
        <time>2014-07-02T17:44:30Z</time>
      </trkpt>
      <trkpt lat="47.60635" lon="-0.58562">
        <ele>40.99</ele>
        <time>2014-07-02T17:44:38Z</time>
      </trkpt>
      <trkpt lat="47.60632" lon="-0.58555">
        <ele>40.51</ele>
        <time>2014-07-02T17:44:39Z</time>
      </trkpt>
      <trkpt lat="47.6062" lon="-0.58497">
        <ele>40.51</ele>
        <time>2014-07-02T17:44:47Z</time>
      </trkpt>
      <trkpt lat="47.60603" lon="-0.58429">
        <ele>40.03</ele>
        <time>2014-07-02T17:44:56Z</time>
      </trkpt>
      <trkpt lat="47.60589" lon="-0.5836">
        <ele>39.07</ele>
        <time>2014-07-02T17:45:05Z</time>
      </trkpt>
      <trkpt lat="47.60573" lon="-0.58272">
        <ele>38.59</ele>
        <time>2014-07-02T17:45:15Z</time>
      </trkpt>
      <trkpt lat="47.60549" lon="-0.58181">
        <ele>37.63</ele>
        <time>2014-07-02T17:45:25Z</time>
      </trkpt>
      <trkpt lat="47.60522" lon="-0.581">
        <ele>36.67</ele>
        <time>2014-07-02T17:45:34Z</time>
      </trkpt>
      <trkpt lat="47.60502" lon="-0.58033">
        <ele>36.67</ele>
        <time>2014-07-02T17:45:41Z</time>
      </trkpt>
      <trkpt lat="47.60483" lon="-0.57972">
        <ele>36.19</ele>
        <time>2014-07-02T17:45:47Z</time>
      </trkpt>
      <trkpt lat="47.60459" lon="-0.57929">
        <ele>35.23</ele>
        <time>2014-07-02T17:45:52Z</time>
      </trkpt>
      <trkpt lat="47.60399" lon="-0.57874">
        <ele>34.74</ele>
        <time>2014-07-02T17:46:01Z</time>
      </trkpt>
      <trkpt lat="47.60345" lon="-0.57838">
        <ele>34.26</ele>
        <time>2014-07-02T17:46:09Z</time>
      </trkpt>
      <trkpt lat="47.60281" lon="-0.57807">
        <ele>33.78</ele>
        <time>2014-07-02T17:46:18Z</time>
      </trkpt>
      <trkpt lat="47.60254" lon="-0.57793">
        <ele>33.78</ele>
        <time>2014-07-02T17:46:22Z</time>
      </trkpt>
      <trkpt lat="47.60235" lon="-0.57779">
        <ele>33.3</ele>
        <time>2014-07-02T17:46:25Z</time>
      </trkpt>
      <trkpt lat="47.60229" lon="-0.57773">
        <ele>32.82</ele>
        <time>2014-07-02T17:46:26Z</time>
      </trkpt>
      <trkpt lat="47.60223" lon="-0.57766">
        <ele>32.34</ele>
        <time>2014-07-02T17:46:27Z</time>
      </trkpt>
      <trkpt lat="47.60217" lon="-0.57758">
        <ele>32.34</ele>
        <time>2014-07-02T17:46:28Z</time>
      </trkpt>
      <trkpt lat="47.60211" lon="-0.57749">
        <ele>32.82</ele>
        <time>2014-07-02T17:46:29Z</time>
      </trkpt>
      <trkpt lat="47.60205" lon="-0.57741">
        <ele>33.3</ele>
        <time>2014-07-02T17:46:30Z</time>
      </trkpt>
      <trkpt lat="47.60199" lon="-0.57732">
        <ele>33.78</ele>
        <time>2014-07-02T17:46:31Z</time>
      </trkpt>
      <trkpt lat="47.60168" lon="-0.57689">
        <ele>34.74</ele>
        <time>2014-07-02T17:46:37Z</time>
      </trkpt>
      <trkpt lat="47.60126" lon="-0.57634">
        <ele>34.26</ele>
        <time>2014-07-02T17:46:46Z</time>
      </trkpt>
      <trkpt lat="47.60086" lon="-0.57586">
        <ele>33.78</ele>
        <time>2014-07-02T17:46:54Z</time>
      </trkpt>
      <trkpt lat="47.6005" lon="-0.57537">
        <ele>32.82</ele>
        <time>2014-07-02T17:47:02Z</time>
      </trkpt>
      <trkpt lat="47.60037" lon="-0.57516">
        <ele>31.86</ele>
        <time>2014-07-02T17:47:05Z</time>
      </trkpt>
      <trkpt lat="47.60001" lon="-0.5747">
        <ele>32.82</ele>
        <time>2014-07-02T17:47:12Z</time>
      </trkpt>
      <trkpt lat="47.59973" lon="-0.57434">
        <ele>33.3</ele>
        <time>2014-07-02T17:47:18Z</time>
      </trkpt>
      <trkpt lat="47.59925" lon="-0.57385">
        <ele>33.3</ele>
        <time>2014-07-02T17:47:27Z</time>
      </trkpt>
      <trkpt lat="47.59876" lon="-0.57337">
        <ele>34.26</ele>
        <time>2014-07-02T17:47:36Z</time>
      </trkpt>
      <trkpt lat="47.5986" lon="-0.57322">
        <ele>34.26</ele>
        <time>2014-07-02T17:47:39Z</time>
      </trkpt>
      <trkpt lat="47.59833" lon="-0.57273">
        <ele>34.74</ele>
        <time>2014-07-02T17:47:46Z</time>
      </trkpt>
      <trkpt lat="47.59815" lon="-0.57232">
        <ele>34.74</ele>
        <time>2014-07-02T17:47:52Z</time>
      </trkpt>
      <trkpt lat="47.59801" lon="-0.572">
        <ele>34.74</ele>
        <time>2014-07-02T17:47:58Z</time>
      </trkpt>
      <trkpt lat="47.59786" lon="-0.57197">
        <ele>35.23</ele>
        <time>2014-07-02T17:48:03Z</time>
      </trkpt>
      <trkpt lat="47.59778" lon="-0.57197">
        <ele>34.74</ele>
        <time>2014-07-02T17:48:05Z</time>
      </trkpt>
      <trkpt lat="47.59739" lon="-0.572">
        <ele>34.26</ele>
        <time>2014-07-02T17:48:13Z</time>
      </trkpt>
      <trkpt lat="47.59707" lon="-0.57204">
        <ele>20.32</ele>
        <time>2014-07-02T17:48:19Z</time>
      </trkpt>
      <trkpt lat="47.59702" lon="-0.57205">
        <ele>37.63</ele>
        <time>2014-07-02T17:48:20Z</time>
      </trkpt>
      <trkpt lat="47.59676" lon="-0.57209">
        <ele>35.23</ele>
        <time>2014-07-02T17:48:25Z</time>
      </trkpt>
      <trkpt lat="47.59647" lon="-0.57213">
        <ele>35.71</ele>
        <time>2014-07-02T17:48:30Z</time>
      </trkpt>
      <trkpt lat="47.596" lon="-0.57201">
        <ele>35.71</ele>
        <time>2014-07-02T17:48:39Z</time>
      </trkpt>
      <trkpt lat="47.59566" lon="-0.57182">
        <ele>36.19</ele>
        <time>2014-07-02T17:48:46Z</time>
      </trkpt>
      <trkpt lat="47.59527" lon="-0.57175">
        <ele>36.67</ele>
        <time>2014-07-02T17:48:54Z</time>
      </trkpt>
      <trkpt lat="47.59492" lon="-0.57172">
        <ele>36.67</ele>
        <time>2014-07-02T17:49:01Z</time>
      </trkpt>
      <trkpt lat="47.59467" lon="-0.57172">
        <ele>39.55</ele>
        <time>2014-07-02T17:49:07Z</time>
      </trkpt>
      <trkpt lat="47.59455" lon="-0.57173">
        <ele>33.78</ele>
        <time>2014-07-02T17:49:10Z</time>
      </trkpt>
      <trkpt lat="47.59451" lon="-0.57174">
        <ele>37.63</ele>
        <time>2014-07-02T17:49:11Z</time>
      </trkpt>
      <trkpt lat="47.59413" lon="-0.57177">
        <ele>37.63</ele>
        <time>2014-07-02T17:49:20Z</time>
      </trkpt>
      <trkpt lat="47.59392" lon="-0.5718">
        <ele>37.15</ele>
        <time>2014-07-02T17:49:24Z</time>
      </trkpt>
      <trkpt lat="47.59374" lon="-0.57182">
        <ele>36.67</ele>
        <time>2014-07-02T17:49:29Z</time>
      </trkpt>
      <trkpt lat="47.59377" lon="-0.57179">
        <ele>36.67</ele>
        <time>2014-07-02T17:49:33Z</time>
      </trkpt>
      <trkpt lat="47.59377" lon="-0.57179">
        <ele>37.15</ele>
        <time>2014-07-02T17:49:42Z</time>
      </trkpt>
      <trkpt lat="47.59377" lon="-0.57179">
        <ele>37.15</ele>
        <time>2014-07-02T17:49:48Z</time>
      </trkpt>
      <trkpt lat="47.59377" lon="-0.57179">
        <ele>37.15</ele>
        <time>2014-07-02T17:49:54Z</time>
      </trkpt>
      <trkpt lat="47.59377" lon="-0.57177">
        <ele>36.19</ele>
        <time>2014-07-02T17:50:00Z</time>
      </trkpt>
      <trkpt lat="47.59377" lon="-0.57177">
        <ele>36.19</ele>
        <time>2014-07-02T17:50:22Z</time>
      </trkpt>
      <trkpt lat="47.59377" lon="-0.57177">
        <ele>36.19</ele>
        <time>2014-07-02T17:50:42Z</time>
      </trkpt>
      <trkpt lat="47.59377" lon="-0.57177">
        <ele>37.15</ele>
        <time>2014-07-02T17:51:00Z</time>
      </trkpt>
      <trkpt lat="47.59377" lon="-0.57177">
        <ele>37.15</ele>
        <time>2014-07-02T17:51:07Z</time>
      </trkpt>
      <trkpt lat="47.59377" lon="-0.57178">
        <ele>37.63</ele>
        <time>2014-07-02T17:51:16Z</time>
      </trkpt>
      <trkpt lat="47.59372" lon="-0.5718">
        <ele>37.15</ele>
        <time>2014-07-02T17:51:21Z</time>
      </trkpt>
      <trkpt lat="47.59364" lon="-0.57181">
        <ele>37.15</ele>
        <time>2014-07-02T17:51:25Z</time>
      </trkpt>
      <trkpt lat="47.59347" lon="-0.57183">
        <ele>37.63</ele>
        <time>2014-07-02T17:51:32Z</time>
      </trkpt>
      <trkpt lat="47.59329" lon="-0.57189">
        <ele>37.63</ele>
        <time>2014-07-02T17:51:40Z</time>
      </trkpt>
      <trkpt lat="47.59317" lon="-0.57193">
        <ele>37.63</ele>
        <time>2014-07-02T17:51:44Z</time>
      </trkpt>
      <trkpt lat="47.59294" lon="-0.57203">
        <ele>37.63</ele>
        <time>2014-07-02T17:51:51Z</time>
      </trkpt>
      <trkpt lat="47.59277" lon="-0.5721">
        <ele>38.11</ele>
        <time>2014-07-02T17:51:57Z</time>
      </trkpt>
      <trkpt lat="47.59259" lon="-0.57219">
        <ele>28.98</ele>
        <time>2014-07-02T17:52:02Z</time>
      </trkpt>
      <trkpt lat="47.59255" lon="-0.57221">
        <ele>47.24</ele>
        <time>2014-07-02T17:52:03Z</time>
      </trkpt>
      <trkpt lat="47.59251" lon="-0.57223">
        <ele>38.59</ele>
        <time>2014-07-02T17:52:04Z</time>
      </trkpt>
      <trkpt lat="47.59243" lon="-0.57226">
        <ele>38.11</ele>
        <time>2014-07-02T17:52:06Z</time>
      </trkpt>
      <trkpt lat="47.59227" lon="-0.5721">
        <ele>38.11</ele>
        <time>2014-07-02T17:52:11Z</time>
      </trkpt>
      <trkpt lat="47.59225" lon="-0.57204">
        <ele>38.11</ele>
        <time>2014-07-02T17:52:12Z</time>
      </trkpt>
      <trkpt lat="47.59218" lon="-0.57179">
        <ele>38.59</ele>
        <time>2014-07-02T17:52:16Z</time>
      </trkpt>
      <trkpt lat="47.59208" lon="-0.57145">
        <ele>38.11</ele>
        <time>2014-07-02T17:52:21Z</time>
      </trkpt>
      <trkpt lat="47.59187" lon="-0.57126">
        <ele>38.11</ele>
        <time>2014-07-02T17:52:26Z</time>
      </trkpt>
      <trkpt lat="47.59176" lon="-0.57128">
        <ele>38.11</ele>
        <time>2014-07-02T17:52:28Z</time>
      </trkpt>
      <trkpt lat="47.5913" lon="-0.57154">
        <ele>39.07</ele>
        <time>2014-07-02T17:52:37Z</time>
      </trkpt>
      <trkpt lat="47.5912" lon="-0.57161">
        <ele>38.59</ele>
        <time>2014-07-02T17:52:39Z</time>
      </trkpt>
      <trkpt lat="47.59094" lon="-0.57174">
        <ele>38.59</ele>
        <time>2014-07-02T17:52:44Z</time>
      </trkpt>
      <trkpt lat="47.59083" lon="-0.57179">
        <ele>39.07</ele>
        <time>2014-07-02T17:52:46Z</time>
      </trkpt>
      <trkpt lat="47.59036" lon="-0.57207">
        <ele>39.07</ele>
        <time>2014-07-02T17:52:54Z</time>
      </trkpt>
      <trkpt lat="47.5901" lon="-0.57213">
        <ele>39.07</ele>
        <time>2014-07-02T17:52:58Z</time>
      </trkpt>
      <trkpt lat="47.58966" lon="-0.57196">
        <ele>39.07</ele>
        <time>2014-07-02T17:53:05Z</time>
      </trkpt>
      <trkpt lat="47.58915" lon="-0.57173">
        <ele>39.55</ele>
        <time>2014-07-02T17:53:14Z</time>
      </trkpt>
      <trkpt lat="47.58904" lon="-0.5717">
        <ele>40.03</ele>
        <time>2014-07-02T17:53:16Z</time>
      </trkpt>
      <trkpt lat="47.58867" lon="-0.57158">
        <ele>40.03</ele>
        <time>2014-07-02T17:53:23Z</time>
      </trkpt>
      <trkpt lat="47.58848" lon="-0.5715">
        <ele>39.55</ele>
        <time>2014-07-02T17:53:29Z</time>
      </trkpt>
      <trkpt lat="47.5884" lon="-0.57162">
        <ele>39.55</ele>
        <time>2014-07-02T17:53:36Z</time>
      </trkpt>
      <trkpt lat="47.58835" lon="-0.57185">
        <ele>39.55</ele>
        <time>2014-07-02T17:53:42Z</time>
      </trkpt>
      <trkpt lat="47.58834" lon="-0.57191">
        <ele>39.55</ele>
        <time>2014-07-02T17:53:43Z</time>
      </trkpt>
      <trkpt lat="47.58831" lon="-0.57229">
        <ele>40.51</ele>
        <time>2014-07-02T17:53:49Z</time>
      </trkpt>
      <trkpt lat="47.58837" lon="-0.57284">
        <ele>40.99</ele>
        <time>2014-07-02T17:53:57Z</time>
      </trkpt>
      <trkpt lat="47.58842" lon="-0.57339">
        <ele>41.47</ele>
        <time>2014-07-02T17:54:05Z</time>
      </trkpt>
      <trkpt lat="47.58843" lon="-0.57353">
        <ele>40.99</ele>
        <time>2014-07-02T17:54:07Z</time>
      </trkpt>
      <trkpt lat="47.58845" lon="-0.57368">
        <ele>41.95</ele>
        <time>2014-07-02T17:54:09Z</time>
      </trkpt>
      <trkpt lat="47.58847" lon="-0.57391">
        <ele>41.95</ele>
        <time>2014-07-02T17:54:12Z</time>
      </trkpt>
      <trkpt lat="47.5885" lon="-0.5742">
        <ele>42.44</ele>
        <time>2014-07-02T17:54:16Z</time>
      </trkpt>
      <trkpt lat="47.58852" lon="-0.57452">
        <ele>42.44</ele>
        <time>2014-07-02T17:54:20Z</time>
      </trkpt>
      <trkpt lat="47.58852" lon="-0.5749">
        <ele>41.95</ele>
        <time>2014-07-02T17:54:25Z</time>
      </trkpt>
      <trkpt lat="47.58847" lon="-0.57542">
        <ele>41.95</ele>
        <time>2014-07-02T17:54:32Z</time>
      </trkpt>
      <trkpt lat="47.58843" lon="-0.57578">
        <ele>41.47</ele>
        <time>2014-07-02T17:54:37Z</time>
      </trkpt>
      <trkpt lat="47.58832" lon="-0.57645">
        <ele>41.95</ele>
        <time>2014-07-02T17:54:46Z</time>
      </trkpt>
      <trkpt lat="47.58831" lon="-0.57653">
        <ele>41.95</ele>
        <time>2014-07-02T17:54:47Z</time>
      </trkpt>
      <trkpt lat="47.58823" lon="-0.57702">
        <ele>40.99</ele>
        <time>2014-07-02T17:54:54Z</time>
      </trkpt>
      <trkpt lat="47.58834" lon="-0.57731">
        <ele>40.03</ele>
        <time>2014-07-02T17:54:59Z</time>
      </trkpt>
      <trkpt lat="47.58888" lon="-0.57744">
        <ele>39.07</ele>
        <time>2014-07-02T17:55:09Z</time>
      </trkpt>
      <trkpt lat="47.58902" lon="-0.57748">
        <ele>39.07</ele>
        <time>2014-07-02T17:55:14Z</time>
      </trkpt>
      <trkpt lat="47.58901" lon="-0.57752">
        <ele>39.07</ele>
        <time>2014-07-02T17:55:18Z</time>
      </trkpt>
      <trkpt lat="47.589" lon="-0.57751">
        <ele>39.07</ele>
        <time>2014-07-02T17:55:19Z</time>
      </trkpt>
      <trkpt lat="47.58894" lon="-0.57746">
        <ele>38.59</ele>
        <time>2014-07-02T17:55:21Z</time>
      </trkpt>
      <trkpt lat="47.58858" lon="-0.57735">
        <ele>39.55</ele>
        <time>2014-07-02T17:55:28Z</time>
      </trkpt>
      <trkpt lat="47.58823" lon="-0.57726">
        <ele>40.51</ele>
        <time>2014-07-02T17:55:34Z</time>
      </trkpt>
      <trkpt lat="47.58781" lon="-0.57713">
        <ele>42.44</ele>
        <time>2014-07-02T17:55:42Z</time>
      </trkpt>
      <trkpt lat="47.58745" lon="-0.57703">
        <ele>44.36</ele>
        <time>2014-07-02T17:55:50Z</time>
      </trkpt>
      <trkpt lat="47.58736" lon="-0.57702">
        <ele>44.36</ele>
        <time>2014-07-02T17:55:52Z</time>
      </trkpt>
      <trkpt lat="47.58697" lon="-0.57703">
        <ele>46.28</ele>
        <time>2014-07-02T17:56:01Z</time>
      </trkpt>
      <trkpt lat="47.58693" lon="-0.57703">
        <ele>46.28</ele>
        <time>2014-07-02T17:56:02Z</time>
      </trkpt>
      <trkpt lat="47.58666" lon="-0.57708">
        <ele>48.2</ele>
        <time>2014-07-02T17:56:09Z</time>
      </trkpt>
      <trkpt lat="47.58627" lon="-0.57717">
        <ele>48.2</ele>
        <time>2014-07-02T17:56:19Z</time>
      </trkpt>
      <trkpt lat="47.58604" lon="-0.57717">
        <ele>49.16</ele>
        <time>2014-07-02T17:56:25Z</time>
      </trkpt>
      <trkpt lat="47.58572" lon="-0.5771">
        <ele>49.65</ele>
        <time>2014-07-02T17:56:33Z</time>
      </trkpt>
      <trkpt lat="47.58564" lon="-0.57708">
        <ele>49.65</ele>
        <time>2014-07-02T17:56:35Z</time>
      </trkpt>
      <trkpt lat="47.58544" lon="-0.57707">
        <ele>50.13</ele>
        <time>2014-07-02T17:56:40Z</time>
      </trkpt>
      <trkpt lat="47.58507" lon="-0.57715">
        <ele>52.05</ele>
        <time>2014-07-02T17:56:50Z</time>
      </trkpt>
      <trkpt lat="47.58478" lon="-0.57714">
        <ele>53.49</ele>
        <time>2014-07-02T17:56:58Z</time>
      </trkpt>
      <trkpt lat="47.58456" lon="-0.5771">
        <ele>53.97</ele>
        <time>2014-07-02T17:57:04Z</time>
      </trkpt>
      <trkpt lat="47.58431" lon="-0.57706">
        <ele>54.45</ele>
        <time>2014-07-02T17:57:11Z</time>
      </trkpt>
      <trkpt lat="47.58394" lon="-0.57706">
        <ele>55.41</ele>
        <time>2014-07-02T17:57:21Z</time>
      </trkpt>
      <trkpt lat="47.58368" lon="-0.57708">
        <ele>55.89</ele>
        <time>2014-07-02T17:57:28Z</time>
      </trkpt>
      <trkpt lat="47.58352" lon="-0.57699">
        <ele>56.37</ele>
        <time>2014-07-02T17:57:33Z</time>
      </trkpt>
      <trkpt lat="47.58328" lon="-0.57673">
        <ele>56.86</ele>
        <time>2014-07-02T17:57:41Z</time>
      </trkpt>
      <trkpt lat="47.58318" lon="-0.57655">
        <ele>57.34</ele>
        <time>2014-07-02T17:57:45Z</time>
      </trkpt>
      <trkpt lat="47.58312" lon="-0.57639">
        <ele>57.34</ele>
        <time>2014-07-02T17:57:48Z</time>
      </trkpt>
      <trkpt lat="47.58297" lon="-0.57574">
        <ele>57.34</ele>
        <time>2014-07-02T17:57:58Z</time>
      </trkpt>
      <trkpt lat="47.5829" lon="-0.57548">
        <ele>57.34</ele>
        <time>2014-07-02T17:58:02Z</time>
      </trkpt>
      <trkpt lat="47.58285" lon="-0.57527">
        <ele>57.34</ele>
        <time>2014-07-02T17:58:05Z</time>
      </trkpt>
      <trkpt lat="47.5828" lon="-0.57507">
        <ele>57.82</ele>
        <time>2014-07-02T17:58:08Z</time>
      </trkpt>
      <trkpt lat="47.58277" lon="-0.57494">
        <ele>57.82</ele>
        <time>2014-07-02T17:58:10Z</time>
      </trkpt>
      <trkpt lat="47.58264" lon="-0.57453">
        <ele>57.82</ele>
        <time>2014-07-02T17:58:16Z</time>
      </trkpt>
      <trkpt lat="47.58256" lon="-0.57424">
        <ele>58.3</ele>
        <time>2014-07-02T17:58:20Z</time>
      </trkpt>
      <trkpt lat="47.5825" lon="-0.57395">
        <ele>57.82</ele>
        <time>2014-07-02T17:58:24Z</time>
      </trkpt>
      <trkpt lat="47.58244" lon="-0.57375">
        <ele>58.3</ele>
        <time>2014-07-02T17:58:27Z</time>
      </trkpt>
      <trkpt lat="47.58235" lon="-0.57358">
        <ele>57.82</ele>
        <time>2014-07-02T17:58:30Z</time>
      </trkpt>
      <trkpt lat="47.58227" lon="-0.57349">
        <ele>57.82</ele>
        <time>2014-07-02T17:58:32Z</time>
      </trkpt>
      <trkpt lat="47.58206" lon="-0.57307">
        <ele>57.82</ele>
        <time>2014-07-02T17:58:39Z</time>
      </trkpt>
      <trkpt lat="47.58196" lon="-0.5728">
        <ele>57.82</ele>
        <time>2014-07-02T17:58:43Z</time>
      </trkpt>
      <trkpt lat="47.58188" lon="-0.57259">
        <ele>57.82</ele>
        <time>2014-07-02T17:58:46Z</time>
      </trkpt>
      <trkpt lat="47.58174" lon="-0.57228">
        <ele>57.82</ele>
        <time>2014-07-02T17:58:51Z</time>
      </trkpt>
      <trkpt lat="47.58161" lon="-0.57212">
        <ele>57.82</ele>
        <time>2014-07-02T17:58:54Z</time>
      </trkpt>
      <trkpt lat="47.58135" lon="-0.57201">
        <ele>57.82</ele>
        <time>2014-07-02T17:58:59Z</time>
      </trkpt>
      <trkpt lat="47.5813" lon="-0.57202">
        <ele>57.82</ele>
        <time>2014-07-02T17:59:00Z</time>
      </trkpt>
      <trkpt lat="47.58109" lon="-0.57206">
        <ele>57.82</ele>
        <time>2014-07-02T17:59:04Z</time>
      </trkpt>
      <trkpt lat="47.58074" lon="-0.57223">
        <ele>57.82</ele>
        <time>2014-07-02T17:59:11Z</time>
      </trkpt>
      <trkpt lat="47.58038" lon="-0.57244">
        <ele>57.34</ele>
        <time>2014-07-02T17:59:18Z</time>
      </trkpt>
      <trkpt lat="47.58032" lon="-0.57246">
        <ele>57.34</ele>
        <time>2014-07-02T17:59:19Z</time>
      </trkpt>
      <trkpt lat="47.57993" lon="-0.57245">
        <ele>56.37</ele>
        <time>2014-07-02T17:59:26Z</time>
      </trkpt>
      <trkpt lat="47.57947" lon="-0.57243">
        <ele>56.37</ele>
        <time>2014-07-02T17:59:34Z</time>
      </trkpt>
      <trkpt lat="47.57924" lon="-0.57236">
        <ele>56.37</ele>
        <time>2014-07-02T17:59:38Z</time>
      </trkpt>
      <trkpt lat="47.57902" lon="-0.5722">
        <ele>56.86</ele>
        <time>2014-07-02T17:59:42Z</time>
      </trkpt>
      <trkpt lat="47.57878" lon="-0.5721">
        <ele>56.37</ele>
        <time>2014-07-02T17:59:46Z</time>
      </trkpt>
      <trkpt lat="47.57832" lon="-0.5722">
        <ele>55.89</ele>
        <time>2014-07-02T17:59:53Z</time>
      </trkpt>
      <trkpt lat="47.57774" lon="-0.57249">
        <ele>54.45</ele>
        <time>2014-07-02T18:00:01Z</time>
      </trkpt>
      <trkpt lat="47.57734" lon="-0.5725">
        <ele>53.97</ele>
        <time>2014-07-02T18:00:06Z</time>
      </trkpt>
      <trkpt lat="47.57719" lon="-0.57244">
        <ele>53.01</ele>
        <time>2014-07-02T18:00:08Z</time>
      </trkpt>
      <trkpt lat="47.57669" lon="-0.57208">
        <ele>52.53</ele>
        <time>2014-07-02T18:00:15Z</time>
      </trkpt>
      <trkpt lat="47.57638" lon="-0.57201">
        <ele>52.05</ele>
        <time>2014-07-02T18:00:19Z</time>
      </trkpt>
      <trkpt lat="47.57624" lon="-0.57212">
        <ele>51.57</ele>
        <time>2014-07-02T18:00:21Z</time>
      </trkpt>
      <trkpt lat="47.57575" lon="-0.57262">
        <ele>50.61</ele>
        <time>2014-07-02T18:00:29Z</time>
      </trkpt>
      <trkpt lat="47.57552" lon="-0.5728">
        <ele>51.09</ele>
        <time>2014-07-02T18:00:33Z</time>
      </trkpt>
      <trkpt lat="47.57525" lon="-0.57288">
        <ele>50.61</ele>
        <time>2014-07-02T18:00:38Z</time>
      </trkpt>
      <trkpt lat="47.57495" lon="-0.57299">
        <ele>50.13</ele>
        <time>2014-07-02T18:00:46Z</time>
      </trkpt>
      <trkpt lat="47.57475" lon="-0.57321">
        <ele>50.61</ele>
        <time>2014-07-02T18:00:51Z</time>
      </trkpt>
      <trkpt lat="47.57454" lon="-0.57334">
        <ele>50.61</ele>
        <time>2014-07-02T18:00:55Z</time>
      </trkpt>
      <trkpt lat="47.57404" lon="-0.57351">
        <ele>50.13</ele>
        <time>2014-07-02T18:01:04Z</time>
      </trkpt>
      <trkpt lat="47.57378" lon="-0.57366">
        <ele>50.13</ele>
        <time>2014-07-02T18:01:09Z</time>
      </trkpt>
      <trkpt lat="47.5735" lon="-0.57389">
        <ele>49.16</ele>
        <time>2014-07-02T18:01:15Z</time>
      </trkpt>
      <trkpt lat="47.57342" lon="-0.57414">
        <ele>49.65</ele>
        <time>2014-07-02T18:01:19Z</time>
      </trkpt>
      <trkpt lat="47.57343" lon="-0.57425">
        <ele>49.16</ele>
        <time>2014-07-02T18:01:21Z</time>
      </trkpt>
      <trkpt lat="47.57347" lon="-0.57449">
        <ele>49.65</ele>
        <time>2014-07-02T18:01:25Z</time>
      </trkpt>
      <trkpt lat="47.57343" lon="-0.57502">
        <ele>49.65</ele>
        <time>2014-07-02T18:01:34Z</time>
      </trkpt>
      <trkpt lat="47.57329" lon="-0.57544">
        <ele>49.16</ele>
        <time>2014-07-02T18:01:42Z</time>
      </trkpt>
      <trkpt lat="47.57307" lon="-0.57591">
        <ele>50.13</ele>
        <time>2014-07-02T18:01:51Z</time>
      </trkpt>
      <trkpt lat="47.573" lon="-0.57607">
        <ele>49.65</ele>
        <time>2014-07-02T18:01:54Z</time>
      </trkpt>
      <trkpt lat="47.57287" lon="-0.57654">
        <ele>50.13</ele>
        <time>2014-07-02T18:02:02Z</time>
      </trkpt>
      <trkpt lat="47.5728" lon="-0.57704">
        <ele>50.61</ele>
        <time>2014-07-02T18:02:10Z</time>
      </trkpt>
      <trkpt lat="47.57273" lon="-0.57739">
        <ele>50.61</ele>
        <time>2014-07-02T18:02:17Z</time>
      </trkpt>
      <trkpt lat="47.57257" lon="-0.5776">
        <ele>50.13</ele>
        <time>2014-07-02T18:02:23Z</time>
      </trkpt>
      <trkpt lat="47.57249" lon="-0.5776">
        <ele>50.61</ele>
        <time>2014-07-02T18:02:25Z</time>
      </trkpt>
      <trkpt lat="47.57229" lon="-0.57753">
        <ele>66.47</ele>
        <time>2014-07-02T18:02:30Z</time>
      </trkpt>
      <trkpt lat="47.5722" lon="-0.5775">
        <ele>50.61</ele>
        <time>2014-07-02T18:02:32Z</time>
      </trkpt>
      <trkpt lat="47.57184" lon="-0.57723">
        <ele>50.13</ele>
        <time>2014-07-02T18:02:41Z</time>
      </trkpt>
      <trkpt lat="47.5716" lon="-0.57716">
        <ele>50.13</ele>
        <time>2014-07-02T18:02:46Z</time>
      </trkpt>
      <trkpt lat="47.57131" lon="-0.57726">
        <ele>50.13</ele>
        <time>2014-07-02T18:02:53Z</time>
      </trkpt>
      <trkpt lat="47.57101" lon="-0.57739">
        <ele>50.61</ele>
        <time>2014-07-02T18:03:00Z</time>
      </trkpt>
      <trkpt lat="47.57054" lon="-0.57759">
        <ele>50.61</ele>
        <time>2014-07-02T18:03:10Z</time>
      </trkpt>
      <trkpt lat="47.57022" lon="-0.57785">
        <ele>49.16</ele>
        <time>2014-07-02T18:03:16Z</time>
      </trkpt>
      <trkpt lat="47.56999" lon="-0.57807">
        <ele>48.2</ele>
        <time>2014-07-02T18:03:20Z</time>
      </trkpt>
      <trkpt lat="47.56976" lon="-0.57827">
        <ele>47.72</ele>
        <time>2014-07-02T18:03:24Z</time>
      </trkpt>
      <trkpt lat="47.56926" lon="-0.57861">
        <ele>46.28</ele>
        <time>2014-07-02T18:03:32Z</time>
      </trkpt>
      <trkpt lat="47.56882" lon="-0.57884">
        <ele>45.8</ele>
        <time>2014-07-02T18:03:39Z</time>
      </trkpt>
      <trkpt lat="47.56849" lon="-0.57899">
        <ele>46.28</ele>
        <time>2014-07-02T18:03:45Z</time>
      </trkpt>
      <trkpt lat="47.56844" lon="-0.579">
        <ele>46.28</ele>
        <time>2014-07-02T18:03:46Z</time>
      </trkpt>
      <trkpt lat="47.56797" lon="-0.57923">
        <ele>46.28</ele>
        <time>2014-07-02T18:03:56Z</time>
      </trkpt>
      <trkpt lat="47.56779" lon="-0.57929">
        <ele>46.76</ele>
        <time>2014-07-02T18:04:02Z</time>
      </trkpt>
      <trkpt lat="47.56763" lon="-0.57935">
        <ele>46.76</ele>
        <time>2014-07-02T18:04:07Z</time>
      </trkpt>
      <trkpt lat="47.56741" lon="-0.57949">
        <ele>47.24</ele>
        <time>2014-07-02T18:04:14Z</time>
      </trkpt>
      <trkpt lat="47.56709" lon="-0.57966">
        <ele>47.72</ele>
        <time>2014-07-02T18:04:21Z</time>
      </trkpt>
      <trkpt lat="47.56673" lon="-0.57986">
        <ele>47.72</ele>
        <time>2014-07-02T18:04:29Z</time>
      </trkpt>
      <trkpt lat="47.5665" lon="-0.57999">
        <ele>47.72</ele>
        <time>2014-07-02T18:04:34Z</time>
      </trkpt>
      <trkpt lat="47.56616" lon="-0.58017">
        <ele>47.72</ele>
        <time>2014-07-02T18:04:42Z</time>
      </trkpt>
      <trkpt lat="47.56577" lon="-0.58034">
        <ele>47.72</ele>
        <time>2014-07-02T18:04:50Z</time>
      </trkpt>
      <trkpt lat="47.56529" lon="-0.58062">
        <ele>47.24</ele>
        <time>2014-07-02T18:04:59Z</time>
      </trkpt>
      <trkpt lat="47.56481" lon="-0.58112">
        <ele>46.76</ele>
        <time>2014-07-02T18:05:08Z</time>
      </trkpt>
      <trkpt lat="47.56427" lon="-0.5817">
        <ele>44.84</ele>
        <time>2014-07-02T18:05:18Z</time>
      </trkpt>
      <trkpt lat="47.56384" lon="-0.58192">
        <ele>43.4</ele>
        <time>2014-07-02T18:05:24Z</time>
      </trkpt>
      <trkpt lat="47.56322" lon="-0.58211">
        <ele>42.44</ele>
        <time>2014-07-02T18:05:32Z</time>
      </trkpt>
      <trkpt lat="47.56259" lon="-0.58236">
        <ele>40.51</ele>
        <time>2014-07-02T18:05:41Z</time>
      </trkpt>
      <trkpt lat="47.56248" lon="-0.58245">
        <ele>40.03</ele>
        <time>2014-07-02T18:05:44Z</time>
      </trkpt>
      <trkpt lat="47.56247" lon="-0.5828">
        <ele>40.03</ele>
        <time>2014-07-02T18:05:49Z</time>
      </trkpt>
      <trkpt lat="47.56246" lon="-0.58369">
        <ele>40.03</ele>
        <time>2014-07-02T18:05:59Z</time>
      </trkpt>
      <trkpt lat="47.56248" lon="-0.58469">
        <ele>40.51</ele>
        <time>2014-07-02T18:06:10Z</time>
      </trkpt>
      <trkpt lat="47.56248" lon="-0.58492">
        <ele>39.55</ele>
        <time>2014-07-02T18:06:13Z</time>
      </trkpt>
      <trkpt lat="47.56249" lon="-0.58506">
        <ele>40.03</ele>
        <time>2014-07-02T18:06:15Z</time>
      </trkpt>
      <trkpt lat="47.56248" lon="-0.58537">
        <ele>39.07</ele>
        <time>2014-07-02T18:06:21Z</time>
      </trkpt>
      <trkpt lat="47.56249" lon="-0.58588">
        <ele>40.51</ele>
        <time>2014-07-02T18:06:29Z</time>
      </trkpt>
      <trkpt lat="47.5625" lon="-0.58648">
        <ele>40.03</ele>
        <time>2014-07-02T18:06:36Z</time>
      </trkpt>
      <trkpt lat="47.56251" lon="-0.58724">
        <ele>39.55</ele>
        <time>2014-07-02T18:06:44Z</time>
      </trkpt>
      <trkpt lat="47.56251" lon="-0.58812">
        <ele>40.03</ele>
        <time>2014-07-02T18:06:53Z</time>
      </trkpt>
      <trkpt lat="47.5625" lon="-0.58872">
        <ele>40.03</ele>
        <time>2014-07-02T18:06:59Z</time>
      </trkpt>
      <trkpt lat="47.56251" lon="-0.58962">
        <ele>40.03</ele>
        <time>2014-07-02T18:07:08Z</time>
      </trkpt>
      <trkpt lat="47.56252" lon="-0.5906">
        <ele>40.03</ele>
        <time>2014-07-02T18:07:18Z</time>
      </trkpt>
      <trkpt lat="47.56253" lon="-0.59096">
        <ele>40.03</ele>
        <time>2014-07-02T18:07:22Z</time>
      </trkpt>
      <trkpt lat="47.56244" lon="-0.59118">
        <ele>40.03</ele>
        <time>2014-07-02T18:07:26Z</time>
      </trkpt>
      <trkpt lat="47.56239" lon="-0.59118">
        <ele>39.55</ele>
        <time>2014-07-02T18:07:27Z</time>
      </trkpt>
      <trkpt lat="47.56197" lon="-0.59117">
        <ele>39.07</ele>
        <time>2014-07-02T18:07:34Z</time>
      </trkpt>
      <trkpt lat="47.56149" lon="-0.59118">
        <ele>38.11</ele>
        <time>2014-07-02T18:07:41Z</time>
      </trkpt>
      <trkpt lat="47.56085" lon="-0.5912">
        <ele>37.63</ele>
        <time>2014-07-02T18:07:49Z</time>
      </trkpt>
      <trkpt lat="47.56027" lon="-0.59118">
        <ele>36.19</ele>
        <time>2014-07-02T18:07:56Z</time>
      </trkpt>
      <trkpt lat="47.55978" lon="-0.591">
        <ele>37.15</ele>
        <time>2014-07-02T18:08:02Z</time>
      </trkpt>
      <trkpt lat="47.55924" lon="-0.59084">
        <ele>37.15</ele>
        <time>2014-07-02T18:08:09Z</time>
      </trkpt>
      <trkpt lat="47.55881" lon="-0.59072">
        <ele>38.11</ele>
        <time>2014-07-02T18:08:15Z</time>
      </trkpt>
      <trkpt lat="47.5586" lon="-0.59068">
        <ele>38.11</ele>
        <time>2014-07-02T18:08:18Z</time>
      </trkpt>
      <trkpt lat="47.55792" lon="-0.59048">
        <ele>37.15</ele>
        <time>2014-07-02T18:08:27Z</time>
      </trkpt>
      <trkpt lat="47.55762" lon="-0.59037">
        <ele>36.67</ele>
        <time>2014-07-02T18:08:31Z</time>
      </trkpt>
      <trkpt lat="47.55754" lon="-0.59034">
        <ele>36.19</ele>
        <time>2014-07-02T18:08:32Z</time>
      </trkpt>
      <trkpt lat="47.55711" lon="-0.59013">
        <ele>36.19</ele>
        <time>2014-07-02T18:08:38Z</time>
      </trkpt>
      <trkpt lat="47.55663" lon="-0.58992">
        <ele>35.71</ele>
        <time>2014-07-02T18:08:45Z</time>
      </trkpt>
      <trkpt lat="47.55636" lon="-0.58981">
        <ele>35.23</ele>
        <time>2014-07-02T18:08:49Z</time>
      </trkpt>
      <trkpt lat="47.55629" lon="-0.58983">
        <ele>34.74</ele>
        <time>2014-07-02T18:08:50Z</time>
      </trkpt>
      <trkpt lat="47.55622" lon="-0.58987">
        <ele>34.74</ele>
        <time>2014-07-02T18:08:51Z</time>
      </trkpt>
      <trkpt lat="47.55617" lon="-0.58993">
        <ele>34.26</ele>
        <time>2014-07-02T18:08:52Z</time>
      </trkpt>
      <trkpt lat="47.55611" lon="-0.58999">
        <ele>34.74</ele>
        <time>2014-07-02T18:08:53Z</time>
      </trkpt>
      <trkpt lat="47.55577" lon="-0.59041">
        <ele>33.78</ele>
        <time>2014-07-02T18:08:59Z</time>
      </trkpt>
      <trkpt lat="47.55543" lon="-0.5908">
        <ele>34.74</ele>
        <time>2014-07-02T18:09:05Z</time>
      </trkpt>
      <trkpt lat="47.5552" lon="-0.59102">
        <ele>33.78</ele>
        <time>2014-07-02T18:09:09Z</time>
      </trkpt>
      <trkpt lat="47.55479" lon="-0.59124">
        <ele>34.26</ele>
        <time>2014-07-02T18:09:15Z</time>
      </trkpt>
      <trkpt lat="47.55424" lon="-0.5914">
        <ele>33.3</ele>
        <time>2014-07-02T18:09:23Z</time>
      </trkpt>
      <trkpt lat="47.55368" lon="-0.59163">
        <ele>32.82</ele>
        <time>2014-07-02T18:09:31Z</time>
      </trkpt>
      <trkpt lat="47.55327" lon="-0.59183">
        <ele>32.82</ele>
        <time>2014-07-02T18:09:37Z</time>
      </trkpt>
      <trkpt lat="47.55278" lon="-0.59209">
        <ele>32.82</ele>
        <time>2014-07-02T18:09:44Z</time>
      </trkpt>
      <trkpt lat="47.55208" lon="-0.59245">
        <ele>31.86</ele>
        <time>2014-07-02T18:09:54Z</time>
      </trkpt>
      <trkpt lat="47.5515" lon="-0.59275">
        <ele>31.86</ele>
        <time>2014-07-02T18:10:02Z</time>
      </trkpt>
      <trkpt lat="47.55107" lon="-0.59295">
        <ele>30.9</ele>
        <time>2014-07-02T18:10:08Z</time>
      </trkpt>
      <trkpt lat="47.5506" lon="-0.59323">
        <ele>29.94</ele>
        <time>2014-07-02T18:10:15Z</time>
      </trkpt>
      <trkpt lat="47.55017" lon="-0.59342">
        <ele>29.94</ele>
        <time>2014-07-02T18:10:21Z</time>
      </trkpt>
      <trkpt lat="47.55003" lon="-0.59348">
        <ele>29.46</ele>
        <time>2014-07-02T18:10:23Z</time>
      </trkpt>
      <trkpt lat="47.54965" lon="-0.59369">
        <ele>28.5</ele>
        <time>2014-07-02T18:10:29Z</time>
      </trkpt>
      <trkpt lat="47.54919" lon="-0.59395">
        <ele>28.5</ele>
        <time>2014-07-02T18:10:36Z</time>
      </trkpt>
      <trkpt lat="47.54895" lon="-0.59411">
        <ele>27.53</ele>
        <time>2014-07-02T18:10:40Z</time>
      </trkpt>
      <trkpt lat="47.5489" lon="-0.59416">
        <ele>27.53</ele>
        <time>2014-07-02T18:10:41Z</time>
      </trkpt>
      <trkpt lat="47.54886" lon="-0.59422">
        <ele>28.02</ele>
        <time>2014-07-02T18:10:42Z</time>
      </trkpt>
      <trkpt lat="47.54882" lon="-0.59428">
        <ele>27.53</ele>
        <time>2014-07-02T18:10:43Z</time>
      </trkpt>
      <trkpt lat="47.54877" lon="-0.59434">
        <ele>27.53</ele>
        <time>2014-07-02T18:10:44Z</time>
      </trkpt>
      <trkpt lat="47.54871" lon="-0.59438">
        <ele>27.05</ele>
        <time>2014-07-02T18:10:45Z</time>
      </trkpt>
      <trkpt lat="47.54865" lon="-0.59442">
        <ele>27.05</ele>
        <time>2014-07-02T18:10:46Z</time>
      </trkpt>
      <trkpt lat="47.54816" lon="-0.59474">
        <ele>27.05</ele>
        <time>2014-07-02T18:10:54Z</time>
      </trkpt>
      <trkpt lat="47.54764" lon="-0.59505">
        <ele>27.53</ele>
        <time>2014-07-02T18:11:02Z</time>
      </trkpt>
      <trkpt lat="47.54707" lon="-0.5954">
        <ele>26.57</ele>
        <time>2014-07-02T18:11:11Z</time>
      </trkpt>
      <trkpt lat="47.54651" lon="-0.59589">
        <ele>26.09</ele>
        <time>2014-07-02T18:11:21Z</time>
      </trkpt>
      <trkpt lat="47.54626" lon="-0.59616">
        <ele>26.09</ele>
        <time>2014-07-02T18:11:27Z</time>
      </trkpt>
      <trkpt lat="47.54624" lon="-0.59623">
        <ele>26.09</ele>
        <time>2014-07-02T18:11:28Z</time>
      </trkpt>
      <trkpt lat="47.54626" lon="-0.59637">
        <ele>26.09</ele>
        <time>2014-07-02T18:11:30Z</time>
      </trkpt>
      <trkpt lat="47.54642" lon="-0.59706">
        <ele>26.57</ele>
        <time>2014-07-02T18:11:40Z</time>
      </trkpt>
      <trkpt lat="47.54643" lon="-0.59719">
        <ele>27.05</ele>
        <time>2014-07-02T18:11:42Z</time>
      </trkpt>
      <trkpt lat="47.5464" lon="-0.59748">
        <ele>26.57</ele>
        <time>2014-07-02T18:11:46Z</time>
      </trkpt>
      <trkpt lat="47.54614" lon="-0.59809">
        <ele>26.57</ele>
        <time>2014-07-02T18:11:55Z</time>
      </trkpt>
      <trkpt lat="47.54611" lon="-0.59816">
        <ele>26.57</ele>
        <time>2014-07-02T18:11:56Z</time>
      </trkpt>
      <trkpt lat="47.54604" lon="-0.59838">
        <ele>26.57</ele>
        <time>2014-07-02T18:11:59Z</time>
      </trkpt>
      <trkpt lat="47.5459" lon="-0.59914">
        <ele>27.53</ele>
        <time>2014-07-02T18:12:09Z</time>
      </trkpt>
      <trkpt lat="47.54596" lon="-0.5999">
        <ele>27.53</ele>
        <time>2014-07-02T18:12:19Z</time>
      </trkpt>
      <trkpt lat="47.546" lon="-0.60012">
        <ele>27.53</ele>
        <time>2014-07-02T18:12:22Z</time>
      </trkpt>
      <trkpt lat="47.54619" lon="-0.60088">
        <ele>27.53</ele>
        <time>2014-07-02T18:12:32Z</time>
      </trkpt>
      <trkpt lat="47.54638" lon="-0.60165">
        <ele>26.09</ele>
        <time>2014-07-02T18:12:42Z</time>
      </trkpt>
      <trkpt lat="47.54648" lon="-0.6019">
        <ele>25.13</ele>
        <time>2014-07-02T18:12:45Z</time>
      </trkpt>
      <trkpt lat="47.54649" lon="-0.60225">
        <ele>24.17</ele>
        <time>2014-07-02T18:12:49Z</time>
      </trkpt>
      <trkpt lat="47.54639" lon="-0.6024">
        <ele>23.69</ele>
        <time>2014-07-02T18:12:51Z</time>
      </trkpt>
      <trkpt lat="47.54586" lon="-0.60307">
        <ele>23.21</ele>
        <time>2014-07-02T18:13:01Z</time>
      </trkpt>
      <trkpt lat="47.54543" lon="-0.60333">
        <ele>24.65</ele>
        <time>2014-07-02T18:13:09Z</time>
      </trkpt>
      <trkpt lat="47.54481" lon="-0.60362">
        <ele>24.65</ele>
        <time>2014-07-02T18:13:20Z</time>
      </trkpt>
      <trkpt lat="47.54437" lon="-0.60399">
        <ele>23.69</ele>
        <time>2014-07-02T18:13:28Z</time>
      </trkpt>
      <trkpt lat="47.54392" lon="-0.60447">
        <ele>23.21</ele>
        <time>2014-07-02T18:13:37Z</time>
      </trkpt>
      <trkpt lat="47.5435" lon="-0.605">
        <ele>23.69</ele>
        <time>2014-07-02T18:13:46Z</time>
      </trkpt>
      <trkpt lat="47.54322" lon="-0.60557">
        <ele>23.69</ele>
        <time>2014-07-02T18:13:54Z</time>
      </trkpt>
      <trkpt lat="47.54293" lon="-0.6061">
        <ele>23.69</ele>
        <time>2014-07-02T18:14:02Z</time>
      </trkpt>
      <trkpt lat="47.5426" lon="-0.60663">
        <ele>23.69</ele>
        <time>2014-07-02T18:14:11Z</time>
      </trkpt>
      <trkpt lat="47.54229" lon="-0.60697">
        <ele>22.73</ele>
        <time>2014-07-02T18:14:18Z</time>
      </trkpt>
      <trkpt lat="47.54199" lon="-0.60734">
        <ele>21.29</ele>
        <time>2014-07-02T18:14:24Z</time>
      </trkpt>
      <trkpt lat="47.54184" lon="-0.60779">
        <ele>21.29</ele>
        <time>2014-07-02T18:14:29Z</time>
      </trkpt>
      <trkpt lat="47.54176" lon="-0.60793">
        <ele>21.29</ele>
        <time>2014-07-02T18:14:31Z</time>
      </trkpt>
      <trkpt lat="47.5414" lon="-0.60828">
        <ele>20.81</ele>
        <time>2014-07-02T18:14:38Z</time>
      </trkpt>
      <trkpt lat="47.54117" lon="-0.60842">
        <ele>20.32</ele>
        <time>2014-07-02T18:14:43Z</time>
      </trkpt>
      <trkpt lat="47.54116" lon="-0.60863">
        <ele>20.81</ele>
        <time>2014-07-02T18:14:48Z</time>
      </trkpt>
      <trkpt lat="47.54124" lon="-0.60894">
        <ele>20.81</ele>
        <time>2014-07-02T18:14:53Z</time>
      </trkpt>
      <trkpt lat="47.5413" lon="-0.60931">
        <ele>20.32</ele>
        <time>2014-07-02T18:14:59Z</time>
      </trkpt>
      <trkpt lat="47.54124" lon="-0.60954">
        <ele>20.81</ele>
        <time>2014-07-02T18:15:04Z</time>
      </trkpt>
      <trkpt lat="47.5412" lon="-0.60956">
        <ele>20.81</ele>
        <time>2014-07-02T18:15:05Z</time>
      </trkpt>
      <trkpt lat="47.54097" lon="-0.60972">
        <ele>20.32</ele>
        <time>2014-07-02T18:15:10Z</time>
      </trkpt>
      <trkpt lat="47.54067" lon="-0.60996">
        <ele>20.32</ele>
        <time>2014-07-02T18:15:17Z</time>
      </trkpt>
      <trkpt lat="47.54052" lon="-0.61014">
        <ele>20.32</ele>
        <time>2014-07-02T18:15:21Z</time>
      </trkpt>
      <trkpt lat="47.54038" lon="-0.61034">
        <ele>20.32</ele>
        <time>2014-07-02T18:15:25Z</time>
      </trkpt>
      <trkpt lat="47.5402" lon="-0.6109">
        <ele>20.81</ele>
        <time>2014-07-02T18:15:33Z</time>
      </trkpt>
      <trkpt lat="47.54016" lon="-0.61126">
        <ele>20.81</ele>
        <time>2014-07-02T18:15:38Z</time>
      </trkpt>
      <trkpt lat="47.54017" lon="-0.61182">
        <ele>20.81</ele>
        <time>2014-07-02T18:15:46Z</time>
      </trkpt>
      <trkpt lat="47.54013" lon="-0.61207">
        <ele>20.81</ele>
        <time>2014-07-02T18:15:50Z</time>
      </trkpt>
      <trkpt lat="47.54009" lon="-0.61293">
        <ele>22.73</ele>
        <time>2014-07-02T18:16:02Z</time>
      </trkpt>
      <trkpt lat="47.54006" lon="-0.61342">
        <ele>23.21</ele>
        <time>2014-07-02T18:16:09Z</time>
      </trkpt>
      <trkpt lat="47.54003" lon="-0.61415">
        <ele>23.21</ele>
        <time>2014-07-02T18:16:19Z</time>
      </trkpt>
      <trkpt lat="47.54" lon="-0.61475">
        <ele>22.73</ele>
        <time>2014-07-02T18:16:27Z</time>
      </trkpt>
      <trkpt lat="47.53999" lon="-0.61491">
        <ele>22.73</ele>
        <time>2014-07-02T18:16:29Z</time>
      </trkpt>
      <trkpt lat="47.53989" lon="-0.61552">
        <ele>21.77</ele>
        <time>2014-07-02T18:16:37Z</time>
      </trkpt>
      <trkpt lat="47.5397" lon="-0.61585">
        <ele>21.77</ele>
        <time>2014-07-02T18:16:43Z</time>
      </trkpt>
      <trkpt lat="47.53945" lon="-0.61599">
        <ele>20.81</ele>
        <time>2014-07-02T18:16:49Z</time>
      </trkpt>
      <trkpt lat="47.5394" lon="-0.61603">
        <ele>20.32</ele>
        <time>2014-07-02T18:16:56Z</time>
      </trkpt>
      <trkpt lat="47.5394" lon="-0.61603">
        <ele>20.81</ele>
        <time>2014-07-02T18:17:09Z</time>
      </trkpt>
      <trkpt lat="47.5394" lon="-0.61603">
        <ele>20.81</ele>
        <time>2014-07-02T18:17:17Z</time>
      </trkpt>
      <trkpt lat="47.5394" lon="-0.61603">
        <ele>20.32</ele>
        <time>2014-07-02T18:17:30Z</time>
      </trkpt>
      <trkpt lat="47.5394" lon="-0.61603">
        <ele>20.32</ele>
        <time>2014-07-02T18:17:48Z</time>
      </trkpt>
      <trkpt lat="47.5394" lon="-0.61603">
        <ele>20.81</ele>
        <time>2014-07-02T18:18:04Z</time>
      </trkpt>
      <trkpt lat="47.5394" lon="-0.61603">
        <ele>20.32</ele>
        <time>2014-07-02T18:18:18Z</time>
      </trkpt>
      <trkpt lat="47.5394" lon="-0.61603">
        <ele>20.81</ele>
        <time>2014-07-02T18:18:31Z</time>
      </trkpt>
      <trkpt lat="47.5394" lon="-0.61603">
        <ele>20.32</ele>
        <time>2014-07-02T18:18:44Z</time>
      </trkpt>
      <trkpt lat="47.5394" lon="-0.61603">
        <ele>20.32</ele>
        <time>2014-07-02T18:18:59Z</time>
      </trkpt>
      <trkpt lat="47.5394" lon="-0.61603">
        <ele>20.81</ele>
        <time>2014-07-02T18:19:12Z</time>
      </trkpt>
      <trkpt lat="47.5394" lon="-0.61603">
        <ele>20.32</ele>
        <time>2014-07-02T18:19:26Z</time>
      </trkpt>
      <trkpt lat="47.5394" lon="-0.61603">
        <ele>20.81</ele>
        <time>2014-07-02T18:19:37Z</time>
      </trkpt>
      <trkpt lat="47.5394" lon="-0.61603">
        <ele>20.81</ele>
        <time>2014-07-02T18:19:48Z</time>
      </trkpt>
      <trkpt lat="47.5394" lon="-0.61603">
        <ele>21.29</ele>
        <time>2014-07-02T18:20:02Z</time>
      </trkpt>
      <trkpt lat="47.5394" lon="-0.61603">
        <ele>20.81</ele>
        <time>2014-07-02T18:20:17Z</time>
      </trkpt>
      <trkpt lat="47.5394" lon="-0.61603">
        <ele>20.32</ele>
        <time>2014-07-02T18:20:30Z</time>
      </trkpt>
      <trkpt lat="47.5394" lon="-0.61603">
        <ele>20.32</ele>
        <time>2014-07-02T18:20:43Z</time>
      </trkpt>
      <trkpt lat="47.5394" lon="-0.61603">
        <ele>20.81</ele>
        <time>2014-07-02T18:20:58Z</time>
      </trkpt>
      <trkpt lat="47.5394" lon="-0.61603">
        <ele>20.32</ele>
        <time>2014-07-02T18:21:11Z</time>
      </trkpt>
      <trkpt lat="47.5394" lon="-0.61603">
        <ele>20.81</ele>
        <time>2014-07-02T18:21:27Z</time>
      </trkpt>
      <trkpt lat="47.5394" lon="-0.61603">
        <ele>20.81</ele>
        <time>2014-07-02T18:21:44Z</time>
      </trkpt>
      <trkpt lat="47.5394" lon="-0.61603">
        <ele>20.32</ele>
        <time>2014-07-02T18:21:58Z</time>
      </trkpt>
      <trkpt lat="47.5394" lon="-0.61602">
        <ele>19.84</ele>
        <time>2014-07-02T18:22:14Z</time>
      </trkpt>
      <trkpt lat="47.5394" lon="-0.61602">
        <ele>20.32</ele>
        <time>2014-07-02T18:22:33Z</time>
      </trkpt>
      <trkpt lat="47.5394" lon="-0.61602">
        <ele>20.81</ele>
        <time>2014-07-02T18:22:51Z</time>
      </trkpt>
      <trkpt lat="47.5394" lon="-0.61603">
        <ele>20.81</ele>
        <time>2014-07-02T18:23:10Z</time>
      </trkpt>
      <trkpt lat="47.5394" lon="-0.61603">
        <ele>20.81</ele>
        <time>2014-07-02T18:23:30Z</time>
      </trkpt>
      <trkpt lat="47.5394" lon="-0.61602">
        <ele>20.81</ele>
        <time>2014-07-02T18:23:44Z</time>
      </trkpt>
      <trkpt lat="47.5394" lon="-0.61602">
        <ele>20.32</ele>
        <time>2014-07-02T18:24:01Z</time>
      </trkpt>
      <trkpt lat="47.5394" lon="-0.61602">
        <ele>20.81</ele>
        <time>2014-07-02T18:24:12Z</time>
      </trkpt>
      <trkpt lat="47.5394" lon="-0.61602">
        <ele>20.32</ele>
        <time>2014-07-02T18:24:26Z</time>
      </trkpt>
      <trkpt lat="47.53939" lon="-0.61603">
        <ele>20.32</ele>
        <time>2014-07-02T18:24:37Z</time>
      </trkpt>
      <trkpt lat="47.53939" lon="-0.61603">
        <ele>20.81</ele>
        <time>2014-07-02T18:24:55Z</time>
      </trkpt>
      <trkpt lat="47.53939" lon="-0.61603">
        <ele>20.32</ele>
        <time>2014-07-02T18:25:10Z</time>
      </trkpt>
      <trkpt lat="47.5394" lon="-0.61603">
        <ele>20.81</ele>
        <time>2014-07-02T18:25:19Z</time>
      </trkpt>
      <trkpt lat="47.5394" lon="-0.61603">
        <ele>20.32</ele>
        <time>2014-07-02T18:25:29Z</time>
      </trkpt>
      <trkpt lat="47.53932" lon="-0.61608">
        <ele>20.81</ele>
        <time>2014-07-02T18:25:33Z</time>
      </trkpt>
      <trkpt lat="47.53913" lon="-0.61625">
        <ele>21.29</ele>
        <time>2014-07-02T18:25:40Z</time>
      </trkpt>
      <trkpt lat="47.53878" lon="-0.61639">
        <ele>20.81</ele>
        <time>2014-07-02T18:25:48Z</time>
      </trkpt>
      <trkpt lat="47.53842" lon="-0.61653">
        <ele>22.73</ele>
        <time>2014-07-02T18:25:56Z</time>
      </trkpt>
      <trkpt lat="47.5381" lon="-0.61663">
        <ele>23.69</ele>
        <time>2014-07-02T18:26:04Z</time>
      </trkpt>
      <trkpt lat="47.53801" lon="-0.61679">
        <ele>24.17</ele>
        <time>2014-07-02T18:26:08Z</time>
      </trkpt>
      <trkpt lat="47.53803" lon="-0.61703">
        <ele>26.57</ele>
        <time>2014-07-02T18:26:13Z</time>
      </trkpt>
      <trkpt lat="47.53813" lon="-0.61734">
        <ele>28.98</ele>
        <time>2014-07-02T18:26:21Z</time>
      </trkpt>
      <trkpt lat="47.53824" lon="-0.61745">
        <ele>30.9</ele>
        <time>2014-07-02T18:26:27Z</time>
      </trkpt>
      <trkpt lat="47.53838" lon="-0.61752">
        <ele>32.34</ele>
        <time>2014-07-02T18:26:34Z</time>
      </trkpt>
      <trkpt lat="47.53853" lon="-0.6175">
        <ele>33.3</ele>
        <time>2014-07-02T18:26:41Z</time>
      </trkpt>
      <trkpt lat="47.53874" lon="-0.61744">
        <ele>34.26</ele>
        <time>2014-07-02T18:26:49Z</time>
      </trkpt>
      <trkpt lat="47.53891" lon="-0.61739">
        <ele>35.23</ele>
        <time>2014-07-02T18:26:56Z</time>
      </trkpt>
      <trkpt lat="47.53905" lon="-0.61736">
        <ele>36.19</ele>
        <time>2014-07-02T18:27:03Z</time>
      </trkpt>
      <trkpt lat="47.53921" lon="-0.6174">
        <ele>37.63</ele>
        <time>2014-07-02T18:27:11Z</time>
      </trkpt>
      <trkpt lat="47.5393" lon="-0.61759">
        <ele>39.07</ele>
        <time>2014-07-02T18:27:18Z</time>
      </trkpt>
      <trkpt lat="47.53935" lon="-0.61786">
        <ele>40.51</ele>
        <time>2014-07-02T18:27:24Z</time>
      </trkpt>
      <trkpt lat="47.53937" lon="-0.61806">
        <ele>41.95</ele>
        <time>2014-07-02T18:27:30Z</time>
      </trkpt>
      <trkpt lat="47.53937" lon="-0.61808">
        <ele>41.95</ele>
        <time>2014-07-02T18:27:31Z</time>
      </trkpt>
      <trkpt lat="47.53922" lon="-0.61821">
        <ele>42.44</ele>
        <time>2014-07-02T18:27:39Z</time>
      </trkpt>
      <trkpt lat="47.539" lon="-0.61823">
        <ele>41.47</ele>
        <time>2014-07-02T18:27:45Z</time>
      </trkpt>
      <trkpt lat="47.53879" lon="-0.61839">
        <ele>40.99</ele>
        <time>2014-07-02T18:27:50Z</time>
      </trkpt>
      <trkpt lat="47.53871" lon="-0.61857">
        <ele>41.47</ele>
        <time>2014-07-02T18:27:53Z</time>
      </trkpt>
      <trkpt lat="47.53855" lon="-0.61911">
        <ele>42.44</ele>
        <time>2014-07-02T18:28:02Z</time>
      </trkpt>
      <trkpt lat="47.53838" lon="-0.6195">
        <ele>43.88</ele>
        <time>2014-07-02T18:28:11Z</time>
      </trkpt>
      <trkpt lat="47.5383" lon="-0.6197">
        <ele>43.88</ele>
        <time>2014-07-02T18:28:16Z</time>
      </trkpt>
      <trkpt lat="47.53839" lon="-0.61982">
        <ele>44.84</ele>
        <time>2014-07-02T18:28:21Z</time>
      </trkpt>
      <trkpt lat="47.53844" lon="-0.61987">
        <ele>44.84</ele>
        <time>2014-07-02T18:28:23Z</time>
      </trkpt>
      <trkpt lat="47.53863" lon="-0.62001">
        <ele>44.36</ele>
        <time>2014-07-02T18:28:30Z</time>
      </trkpt>
      <trkpt lat="47.53872" lon="-0.6198">
        <ele>44.36</ele>
        <time>2014-07-02T18:28:37Z</time>
      </trkpt>
      <trkpt lat="47.53874" lon="-0.61975">
        <ele>44.36</ele>
        <time>2014-07-02T18:28:43Z</time>
      </trkpt>
      <trkpt lat="47.53874" lon="-0.61975">
        <ele>43.88</ele>
        <time>2014-07-02T18:28:49Z</time>
      </trkpt>
      <trkpt lat="47.53874" lon="-0.61973">
        <ele>44.84</ele>
        <time>2014-07-02T18:28:56Z</time>
      </trkpt>
    </trkseg>
  </trk>
</gpx>